Darstellungsparameter: Aktuell verwendete Einstellungen:
Skalierung der Graphiken ... ?
xyx+y,   Skalierungsfaktor:      Skalierung: Modus: x, Faktor: 1
Darstellungszeitraum ... ?
Vom - - bis: - -   Zeitraum: 05.08.2017 - 04.08.2020
Min/Max/Avg-Anzeige ... ?
Zeige MMA aktuell
Zeige MMA Monat
Zeige MMA alles
Zeige --A aktuell
Zeige --A Monat
Zeige --A alles
Keine MMA-Anzeige
MMA:
Average (ber die Originaldaten)
MMA-Basis: 23.02.2003 - 03.08.2020
Quicknavigation für Darstellung... ?
Tage:      1T, 2T, 3T, 5T -1T -2T -3T -5T +1T +2T +3T +5T
Wochen: 1W, 2W, 3W -1W -2W -3W +1W +2W +3W
Monate: 1M, 3M, 6M -1M -3M -6M +1M +3M +6M
Jahre:    1J, 3J, 5J, 10J -1J -3J -5J -10J +1J +3J +5J +10J
Nutze für die Darstellung ... ?
Originaldaten oder ...
Mittelwerte Minima Maxima auf...
Stundenbasis Tagesbasis Wochenbasis
Monatsbasis Jahresbasis      Datenbasis: Mittelwerte auf Stundenbasis
Darstellen als:
Statistik (Auto) Statistik J:M      Darstellung:
Zur Graphik,    zurück zur Übersicht aller Sensoren.
 
Tabellarische Datenbersicht: ?
 
Sensor: Nr:Datum:Temp:Abs-Feuchte:Windchill:Wind:
Aussen-T/F 1 05-08-2017 00:00:00 16.41667 C 12.12 g/m*3 16.42 C 0 km/h
2 05-08-2017 01:00:00 15.60833 C 11.79 g/m*3 15.61 C 0.53333 km/h
3 05-08-2017 02:00:00 15.18333 C 11.67 g/m*3 15.18 C 0 km/h
4 05-08-2017 03:00:00 15.04167 C 11.79 g/m*3 15.04 C 0 km/h
5 05-08-2017 04:00:00 15.34167 C 12.04 g/m*3 15.34 C 0 km/h
6 05-08-2017 05:00:00 15.55833 C 12.2 g/m*3 15.56 C 0 km/h
7 05-08-2017 06:00:00 15.85 C 12.34 g/m*3 15.85 C 0 km/h
8 05-08-2017 07:00:00 16.125 C 12.52 g/m*3 16.13 C 0.53333 km/h
9 05-08-2017 08:00:00 17.48333 C 13.11 g/m*3 17.48 C 0.53333 km/h
10 05-08-2017 09:00:00 19.33333 C 14.29 g/m*3 19.33 C 0.4 km/h
11 05-08-2017 10:00:00 21.59167 C 15.23 g/m*3 21.59 C 9.13333 km/h
12 05-08-2017 11:00:00 23.05 C 15.22 g/m*3 23.05 C 15.7 km/h
13 05-08-2017 12:00:00 24.425 C 15.53 g/m*3 24.43 C 15.03333 km/h
14 05-08-2017 13:00:00 21.21667 C 14.18 g/m*3 21.22 C 10.45833 km/h
15 05-08-2017 14:00:00 21.6 C 14.24 g/m*3 21.6 C 9.95 km/h
16 05-08-2017 15:00:00 22.15833 C 14.28 g/m*3 22.16 C 8.61667 km/h
17 05-08-2017 16:00:00 23.4 C 13.97 g/m*3 23.4 C 13.96667 km/h
18 05-08-2017 17:00:00 21.58333 C 13.28 g/m*3 21.58 C 10.34167 km/h
19 05-08-2017 18:00:00 23.575 C 11.42 g/m*3 23.58 C 13.56667 km/h
20 05-08-2017 19:00:00 21.14167 C 11.64 g/m*3 21.14 C 12.75833 km/h
21 05-08-2017 20:00:00 19.85 C 11.63 g/m*3 19.85 C 7.39167 km/h
22 05-08-2017 21:00:00 18.2 C 11.67 g/m*3 18.2 C 1.86667 km/h
23 05-08-2017 22:00:00 16.15 C 11.54 g/m*3 16.15 C 0 km/h
24 05-08-2017 23:00:00 16.075 C 11.98 g/m*3 16.08 C 0 km/h
25 06-08-2017 00:00:00 15.6 C 11.47 g/m*3 15.6 C 0.13333 km/h
Sensor: Nr:Datum:Temp:Abs-Feuchte:Windchill:Wind:
Aussen-T/F 26 06-08-2017 01:00:00 14.69167 C 11.13 g/m*3 14.69 C 0 km/h
27 06-08-2017 02:00:00 14.09167 C 11.02 g/m*3 14.09 C 0 km/h
28 06-08-2017 03:00:00 13.325 C 10.57 g/m*3 13.33 C 0 km/h
29 06-08-2017 04:00:00 13.225 C 10.68 g/m*3 13.23 C 0.26667 km/h
30 06-08-2017 05:00:00 13.65833 C 10.94 g/m*3 13.66 C 0.53333 km/h
31 06-08-2017 06:00:00 12.7 C 10.22 g/m*3 12.7 C 0 km/h
32 06-08-2017 07:00:00 12.58333 C 10.35 g/m*3 12.58 C 0.4 km/h
33 06-08-2017 08:00:00 13.08333 C 10.65 g/m*3 13.08 C 1.33333 km/h
34 06-08-2017 09:00:00 14.05833 C 11.05 g/m*3 14.06 C 2.81667 km/h
35 06-08-2017 10:00:00 16.64167 C 11.15 g/m*3 16.64 C 4.13333 km/h
36 06-08-2017 11:00:00 17.825 C 10.88 g/m*3 17.83 C 5.75 km/h
37 06-08-2017 12:00:00 18.58333 C 10.19 g/m*3 18.58 C 7.38333 km/h
38 06-08-2017 13:00:00 19.4 C 9.91 g/m*3 19.4 C 6.58333 km/h
39 06-08-2017 14:00:00 20.24167 C 9.71 g/m*3 20.24 C 6.30833 km/h
40 06-08-2017 15:00:00 21.53333 C 9.75 g/m*3 21.53 C 6.425 km/h
41 06-08-2017 16:00:00 22.73333 C 10.19 g/m*3 22.73 C 4.425 km/h
42 06-08-2017 17:00:00 23.7 C 9.68 g/m*3 23.7 C 5.75 km/h
43 06-08-2017 18:00:00 24.3 C 9.96 g/m*3 24.3 C 4.41667 km/h
44 06-08-2017 19:00:00 22.70833 C 10.63 g/m*3 22.71 C 5.10833 km/h
45 06-08-2017 20:00:00 19.55833 C 11.24 g/m*3 19.56 C 0.13333 km/h
46 06-08-2017 21:00:00 16.45 C 10.13 g/m*3 16.45 C 0 km/h
47 06-08-2017 22:00:00 15.1 C 10.11 g/m*3 15.1 C 0 km/h
48 06-08-2017 23:00:00 13.69167 C 9.69 g/m*3 13.69 C 0 km/h
49 07-08-2017 00:00:00 12.625 C 9.27 g/m*3 12.63 C 0 km/h
50 07-08-2017 01:00:00 11.79167 C 9.13 g/m*3 11.79 C 0 km/h
Sensor: Nr:Datum:Temp:Abs-Feuchte:Windchill:Wind:
Aussen-T/F 51 07-08-2017 02:00:00 11.29167 C 9.1 g/m*3 11.29 C 0 km/h
52 07-08-2017 03:00:00 10.79167 C 9 g/m*3 10.79 C 0 km/h
53 07-08-2017 04:00:00 10.325 C 8.86 g/m*3 10.33 C 0 km/h
54 07-08-2017 05:00:00 10 C 8.76 g/m*3 10 C 0 km/h
55 07-08-2017 06:00:00 9.81667 C 8.73 g/m*3 9.82 C 0 km/h
56 07-08-2017 07:00:00 9.96667 C 8.88 g/m*3 9.97 C 0 km/h
57 07-08-2017 08:00:00 10.54167 C 9.26 g/m*3 10.54 C 0 km/h
58 07-08-2017 09:00:00 11.9 C 10.17 g/m*3 11.9 C 0 km/h
59 07-08-2017 10:00:00 13.86667 C 11.36 g/m*3 13.87 C 0 km/h
60 07-08-2017 11:00:00 16.86667 C 12.33 g/m*3 16.87 C 0.53333 km/h
61 07-08-2017 12:00:00 20.65 C 11.68 g/m*3 20.65 C 4.94167 km/h
62 07-08-2017 13:00:00 22.6 C 11.05 g/m*3 22.6 C 5.48333 km/h
63 07-08-2017 14:00:00 23.78333 C 10.49 g/m*3 23.78 C 9.28333 km/h
64 07-08-2017 15:00:00 25.09167 C 10.8 g/m*3 25.09 C 7.65833 km/h
65 07-08-2017 16:00:00 27.19167 C 10.45 g/m*3 27.19 C 7.09167 km/h
66 07-08-2017 17:00:00 27.84167 C 11.1 g/m*3 27.84 C 6.15833 km/h
67 07-08-2017 18:00:00 27.975 C 12.83 g/m*3 27.98 C 2.53333 km/h
68 07-08-2017 19:00:00 24.56667 C 12.9 g/m*3 24.57 C 0.26667 km/h
69 07-08-2017 20:00:00 21.3 C 12.26 g/m*3 21.3 C 0.53333 km/h
70 07-08-2017 21:00:00 18.95833 C 11.04 g/m*3 18.96 C 0.66667 km/h
71 07-08-2017 22:00:00 17.1 C 11.11 g/m*3 17.1 C 0 km/h
72 07-08-2017 23:00:00 16.275 C 11.09 g/m*3 16.27 C 0 km/h
73 08-08-2017 00:00:00 15.5 C 10.93 g/m*3 15.5 C 0 km/h
74 08-08-2017 01:00:00 14.76667 C 10.81 g/m*3 14.77 C 0 km/h
75 08-08-2017 02:00:00 14.15833 C 10.67 g/m*3 14.16 C 0 km/h
Sensor: Nr:Datum:Temp:Abs-Feuchte:Windchill:Wind:
Aussen-T/F 76 08-08-2017 03:00:00 13.98333 C 10.79 g/m*3 13.98 C 0 km/h
77 08-08-2017 04:00:00 14.23333 C 11.03 g/m*3 14.23 C 0.26667 km/h
78 08-08-2017 05:00:00 14.59167 C 11.4 g/m*3 14.59 C 0 km/h
79 08-08-2017 06:00:00 13.95833 C 10.9 g/m*3 13.96 C 0 km/h
80 08-08-2017 07:00:00 13.8 C 10.96 g/m*3 13.8 C 0 km/h
81 08-08-2017 08:00:00 15.60833 C 12.24 g/m*3 15.61 C 0 km/h
82 08-08-2017 09:00:00 17.38333 C 12.71 g/m*3 17.38 C 0.26667 km/h
83 08-08-2017 10:00:00 19.35833 C 13.27 g/m*3 19.36 C 0.26667 km/h
84 08-08-2017 11:00:00 18.875 C 14.06 g/m*3 18.88 C 0.13333 km/h
85 08-08-2017 12:00:00 18.11667 C 14.4 g/m*3 18.12 C 0 km/h
86 08-08-2017 13:00:00 18.18333 C 14.6 g/m*3 18.18 C 1.73333 km/h
87 08-08-2017 14:00:00 18.68333 C 14.9 g/m*3 18.68 C 1.73333 km/h
88 08-08-2017 15:00:00 19.13333 C 15.03 g/m*3 19.13 C 1.06667 km/h
89 08-08-2017 16:00:00 20.49167 C 15.99 g/m*3 20.49 C 4.01667 km/h
90 08-08-2017 17:00:00 22.36667 C 16.37 g/m*3 22.37 C 4.00833 km/h
91 08-08-2017 18:00:00 22.49167 C 14.87 g/m*3 22.49 C 12.09167 km/h
92 08-08-2017 19:00:00 21.95833 C 13.89 g/m*3 21.96 C 10.60833 km/h
93 08-08-2017 20:00:00 19.76667 C 12.88 g/m*3 19.77 C 7.51667 km/h
94 08-08-2017 21:00:00 17.35833 C 12.38 g/m*3 17.36 C 0 km/h
95 08-08-2017 22:00:00 15.90833 C 12.06 g/m*3 15.91 C 0 km/h
96 08-08-2017 23:00:00 15.5 C 11.82 g/m*3 15.5 C 0 km/h
97 09-08-2017 00:00:00 14.6 C 11.42 g/m*3 14.6 C 0 km/h
98 09-08-2017 01:00:00 14.5 C 11.25 g/m*3 14.5 C 2.68333 km/h
99 09-08-2017 02:00:00 14.38333 C 11.02 g/m*3 14.38 C 1.33333 km/h
100 09-08-2017 03:00:00 14.39167 C 11.17 g/m*3 14.39 C 1.86667 km/h
Sensor: Nr:Datum:Temp:Abs-Feuchte:Windchill:Wind:
Aussen-T/F 101 09-08-2017 04:00:00 15.075 C 11.21 g/m*3 15.08 C 4.55833 km/h
102 09-08-2017 05:00:00 14.7 C 10.9 g/m*3 14.7 C 1.86667 km/h
103 09-08-2017 06:00:00 13.74167 C 10.67 g/m*3 13.74 C 0.13333 km/h
104 09-08-2017 07:00:00 13.89167 C 10.94 g/m*3 13.89 C 0.53333 km/h
105 09-08-2017 08:00:00 14.76667 C 11 g/m*3 14.77 C 6.975 km/h
106 09-08-2017 09:00:00 15.88333 C 10.92 g/m*3 15.88 C 8.33333 km/h
107 09-08-2017 10:00:00 16.85833 C 11.13 g/m*3 16.86 C 6.44167 km/h
108 09-08-2017 11:00:00 17.91667 C 11.48 g/m*3 17.92 C 4.80833 km/h
109 09-08-2017 12:00:00 18.975 C 11.57 g/m*3 18.98 C 4.40833 km/h
110 09-08-2017 13:00:00 19.95 C 11.49 g/m*3 19.95 C 6.44167 km/h
111 09-08-2017 14:00:00 21.03333 C 10.91 g/m*3 21.03 C 7.675 km/h
112 09-08-2017 15:00:00 22.54167 C 11.48 g/m*3 22.54 C 5.225 km/h
113 09-08-2017 16:00:00 23.76667 C 11.84 g/m*3 23.77 C 5.375 km/h
114 09-08-2017 17:00:00 22.7 C 13.45 g/m*3 22.7 C 0.93333 km/h
115 09-08-2017 18:00:00 22.73333 C 14.03 g/m*3 22.73 C 0 km/h
116 09-08-2017 19:00:00 21.575 C 13.65 g/m*3 21.58 C 0 km/h
117 09-08-2017 20:00:00 20.125 C 12.56 g/m*3 20.13 C 0.13333 km/h
118 09-08-2017 21:00:00 17.60833 C 11.49 g/m*3 17.61 C 0 km/h
119 09-08-2017 22:00:00 16.08333 C 11.3 g/m*3 16.08 C 0 km/h
120 09-08-2017 23:00:00 15.6 C 11.46 g/m*3 15.6 C 0 km/h
121 10-08-2017 00:00:00 15.90833 C 11.84 g/m*3 15.91 C 0 km/h
122 10-08-2017 01:00:00 16.05 C 12.32 g/m*3 16.05 C 0.13333 km/h
123 10-08-2017 02:00:00 15.70833 C 12.35 g/m*3 15.71 C 0 km/h
124 10-08-2017 03:00:00 15.45833 C 12.32 g/m*3 15.46 C 0 km/h
125 10-08-2017 04:00:00 15.3 C 12.3 g/m*3 15.3 C 0 km/h
Sensor: Nr:Datum:Temp:Abs-Feuchte:Windchill:Wind:
Aussen-T/F 126 10-08-2017 05:00:00 15.2 C 12.31 g/m*3 15.2 C 0 km/h
127 10-08-2017 06:00:00 15.14167 C 12.31 g/m*3 15.14 C 0 km/h
128 10-08-2017 07:00:00 15.16667 C 12.44 g/m*3 15.17 C 0 km/h
129 10-08-2017 08:00:00 15.15833 C 12.43 g/m*3 15.16 C 0 km/h
130 10-08-2017 09:00:00 15.23333 C 12.49 g/m*3 15.23 C 0 km/h
131 10-08-2017 10:00:00 15.65 C 12.81 g/m*3 15.65 C 0 km/h
132 10-08-2017 11:00:00 15.96667 C 13.05 g/m*3 15.97 C 0 km/h
133 10-08-2017 12:00:00 16.275 C 13.28 g/m*3 16.27 C 0 km/h
134 10-08-2017 13:00:00 16.44167 C 13.34 g/m*3 16.44 C 0 km/h
135 10-08-2017 14:00:00 15.95 C 12.85 g/m*3 15.95 C 0.53333 km/h
136 10-08-2017 15:00:00 15.925 C 12.83 g/m*3 15.93 C 1.06667 km/h
137 10-08-2017 16:00:00 15.51667 C 12.54 g/m*3 15.52 C 1.46667 km/h
138 10-08-2017 17:00:00 15.63333 C 12.64 g/m*3 15.63 C 0.4 km/h
139 10-08-2017 18:00:00 15.29167 C 12.39 g/m*3 15.29 C 2.81667 km/h
140 10-08-2017 19:00:00 15.23333 C 12.49 g/m*3 15.23 C 0 km/h
141 10-08-2017 20:00:00 14.89167 C 12.23 g/m*3 14.89 C 0.13333 km/h
142 10-08-2017 21:00:00 14.60833 C 12.02 g/m*3 14.61 C 0 km/h
143 10-08-2017 22:00:00 14.6 C 12.01 g/m*3 14.6 C 0 km/h
144 10-08-2017 23:00:00 14.525 C 11.96 g/m*3 14.53 C 0 km/h
145 11-08-2017 00:00:00 14.46667 C 11.96 g/m*3 14.47 C 0 km/h
146 11-08-2017 01:00:00 14.53333 C 12.09 g/m*3 14.53 C 0 km/h
147 11-08-2017 02:00:00 14.55833 C 12.11 g/m*3 14.56 C 0 km/h
148 11-08-2017 03:00:00 14.48333 C 12.05 g/m*3 14.48 C 0.53333 km/h
149 11-08-2017 04:00:00 14.24167 C 11.87 g/m*3 14.24 C 2.93333 km/h
150 11-08-2017 05:00:00 14.38333 C 11.98 g/m*3 14.38 C 0 km/h
Sensor: Nr:Datum:Temp:Abs-Feuchte:Windchill:Wind:
Aussen-T/F 151 11-08-2017 06:00:00 14.49167 C 12.06 g/m*3 14.49 C 1.60833 km/h
152 11-08-2017 07:00:00 14.425 C 12.01 g/m*3 14.43 C 1.60833 km/h
153 11-08-2017 08:00:00 14.55 C 12.1 g/m*3 14.55 C 3.625 km/h
154 11-08-2017 09:00:00 14.59167 C 12.09 g/m*3 14.59 C 4.825 km/h
155 11-08-2017 10:00:00 15.13333 C 12.46 g/m*3 15.13 C 4.825 km/h
156 11-08-2017 11:00:00 15.48333 C 12.51 g/m*3 15.48 C 5.35 km/h
157 11-08-2017 12:00:00 15.675 C 12.58 g/m*3 15.68 C 7.11667 km/h
158 11-08-2017 13:00:00 15.78333 C 12.6 g/m*3 15.78 C 5.48333 km/h
159 11-08-2017 14:00:00 16.25833 C 12.71 g/m*3 16.26 C 6.98333 km/h
160 11-08-2017 15:00:00 16.475 C 12.47 g/m*3 16.48 C 8.18333 km/h
161 11-08-2017 16:00:00 16.19167 C 12.53 g/m*3 16.19 C 4.15 km/h
162 11-08-2017 17:00:00 15.925 C 12.72 g/m*3 15.93 C 0.13333 km/h
163 11-08-2017 18:00:00 15.40833 C 12.46 g/m*3 15.41 C 0 km/h
164 11-08-2017 19:00:00 15.03333 C 12.25 g/m*3 15.03 C 0 km/h
165 11-08-2017 20:00:00 14.69167 C 12.08 g/m*3 14.69 C 0.26667 km/h
166 11-08-2017 21:00:00 14.38333 C 11.85 g/m*3 14.38 C 0 km/h
167 11-08-2017 22:00:00 14.3 C 11.9 g/m*3 14.3 C 0.8 km/h
168 11-08-2017 23:00:00 14.35833 C 11.96 g/m*3 14.36 C 2 km/h
169 12-08-2017 00:00:00 14.15 C 11.81 g/m*3 14.15 C 1.73333 km/h
170 12-08-2017 01:00:00 14.36667 C 11.97 g/m*3 14.37 C 2.66667 km/h
171 12-08-2017 02:00:00 14.275 C 11.9 g/m*3 14.28 C 0.93333 km/h
172 12-08-2017 03:00:00 14.23333 C 11.87 g/m*3 14.23 C 0.66667 km/h
173 12-08-2017 04:00:00 14.3 C 11.92 g/m*3 14.3 C 0 km/h
174 12-08-2017 05:00:00 14.14167 C 11.8 g/m*3 14.14 C 0 km/h
175 12-08-2017 06:00:00 13.85 C 11.59 g/m*3 13.85 C 0.26667 km/h
Sensor: Nr:Datum:Temp:Abs-Feuchte:Windchill:Wind:
Aussen-T/F 176 12-08-2017 07:00:00 13.59167 C 11.41 g/m*3 13.59 C 1.73333 km/h
177 12-08-2017 08:00:00 13.56667 C 11.39 g/m*3 13.57 C 4.41667 km/h
178 12-08-2017 09:00:00 14.03333 C 11.73 g/m*3 14.03 C 7.79167 km/h
179 12-08-2017 10:00:00 14.49167 C 11.86 g/m*3 14.49 C 9.4 km/h
180 12-08-2017 11:00:00 15.41667 C 12.34 g/m*3 15.42 C 11.96667 km/h
181 12-08-2017 12:00:00 15.56667 C 12.41 g/m*3 15.57 C 13.7 km/h
182 12-08-2017 13:00:00 15.8 C 12.42 g/m*3 15.8 C 13.56667 km/h
183 12-08-2017 14:00:00 16.33333 C 12.66 g/m*3 16.33 C 10.34167 km/h
184 12-08-2017 15:00:00 16.58333 C 12.98 g/m*3 16.58 C 10.9 km/h
185 12-08-2017 16:00:00 16.725 C 13.22 g/m*3 16.73 C 11.16667 km/h
186 12-08-2017 17:00:00 17.08333 C 13.43 g/m*3 17.08 C 11.15 km/h
187 12-08-2017 18:00:00 17.28333 C 13.37 g/m*3 17.28 C 12.9 km/h
188 12-08-2017 19:00:00 17.14167 C 13.32 g/m*3 17.14 C 11.275 km/h
189 12-08-2017 20:00:00 16.8 C 13.14 g/m*3 16.8 C 9.80833 km/h
190 12-08-2017 21:00:00 16.74167 C 13.17 g/m*3 16.74 C 7.65 km/h
191 12-08-2017 22:00:00 16.63333 C 13.22 g/m*3 16.63 C 5.35833 km/h
192 12-08-2017 23:00:00 16.48333 C 13.19 g/m*3 16.48 C 10.20833 km/h
193 13-08-2017 00:00:00 16.55833 C 13.28 g/m*3 16.56 C 6.71667 km/h
194 13-08-2017 01:00:00 16.58333 C 13.35 g/m*3 16.58 C 5.625 km/h
195 13-08-2017 02:00:00 16.61667 C 13.3 g/m*3 16.62 C 3.60833 km/h
196 13-08-2017 03:00:00 16.49167 C 13.33 g/m*3 16.49 C 1.86667 km/h
197 13-08-2017 04:00:00 16.23333 C 13.14 g/m*3 16.23 C 0 km/h
198 13-08-2017 05:00:00 16.05833 C 13.1 g/m*3 16.06 C 0 km/h
199 13-08-2017 06:00:00 15.63333 C 12.76 g/m*3 15.63 C 0.53333 km/h
200 13-08-2017 07:00:00 16 C 13.09 g/m*3 16 C 0 km/h
Sensor: Nr:Datum:Temp:Abs-Feuchte:Windchill:Wind:
Aussen-T/F 201 13-08-2017 08:00:00 16.30833 C 13.22 g/m*3 16.31 C 2.54167 km/h
202 13-08-2017 09:00:00 17.45 C 12.96 g/m*3 17.45 C 6.3 km/h
203 13-08-2017 10:00:00 17.89167 C 12.9 g/m*3 17.89 C 1.73333 km/h
204 13-08-2017 11:00:00 18.4 C 13.02 g/m*3 18.4 C 3.75833 km/h
205 13-08-2017 12:00:00 19.8 C 12.84 g/m*3 19.8 C 6.16667 km/h
206 13-08-2017 13:00:00 20.63333 C 12.73 g/m*3 20.63 C 6.025 km/h
207 13-08-2017 14:00:00 21.54167 C 12.73 g/m*3 21.54 C 9.01667 km/h
208 13-08-2017 15:00:00 22.14167 C 12.83 g/m*3 22.14 C 9.14167 km/h
209 13-08-2017 16:00:00 22.525 C 13.07 g/m*3 22.53 C 7.925 km/h
210 13-08-2017 17:00:00 22.64167 C 13.69 g/m*3 22.64 C 3.875 km/h
211 13-08-2017 18:00:00 22.35 C 14.27 g/m*3 22.35 C 1.2 km/h
212 13-08-2017 19:00:00 19.84167 C 13.87 g/m*3 19.84 C 0 km/h
213 13-08-2017 20:00:00 18.725 C 13.35 g/m*3 18.73 C 0 km/h
214 13-08-2017 21:00:00 17.275 C 12.36 g/m*3 17.27 C 0 km/h
215 13-08-2017 22:00:00 15.9 C 11.95 g/m*3 15.9 C 0 km/h
216 13-08-2017 23:00:00 14.56667 C 11.42 g/m*3 14.57 C 0 km/h
217 14-08-2017 00:00:00 13.64167 C 10.98 g/m*3 13.64 C 0 km/h
218 14-08-2017 01:00:00 13.05 C 10.69 g/m*3 13.05 C 0 km/h
219 14-08-2017 02:00:00 12.5 C 10.44 g/m*3 12.5 C 0 km/h
220 14-08-2017 03:00:00 12.13333 C 10.21 g/m*3 12.13 C 0 km/h
221 14-08-2017 04:00:00 11.76667 C 10.02 g/m*3 11.77 C 0 km/h
222 14-08-2017 05:00:00 11.675 C 10.03 g/m*3 11.68 C 0 km/h
223 14-08-2017 06:00:00 12.01667 C 10.24 g/m*3 12.02 C 0 km/h
224 14-08-2017 07:00:00 12.58333 C 10.67 g/m*3 12.58 C 0 km/h
225 14-08-2017 08:00:00 13.21667 C 11.15 g/m*3 13.22 C 0 km/h
Sensor: Nr:Datum:Temp:Abs-Feuchte:Windchill:Wind:
Aussen-T/F 226 14-08-2017 09:00:00 13.85 C 11.59 g/m*3 13.85 C 0 km/h
227 14-08-2017 10:00:00 15.28333 C 12.65 g/m*3 15.28 C 0.4 km/h
228 14-08-2017 11:00:00 17.35833 C 14.15 g/m*3 17.36 C 1.20833 km/h
229 14-08-2017 12:00:00 20.76667 C 15.24 g/m*3 20.77 C 5.35833 km/h
230 14-08-2017 13:00:00 22.675 C 15.79 g/m*3 22.68 C 4.95833 km/h
231 14-08-2017 14:00:00 23.83333 C 15.45 g/m*3 23.83 C 6.59167 km/h
232 14-08-2017 15:00:00 25.08333 C 15.63 g/m*3 25.08 C 6.55833 km/h
233 14-08-2017 16:00:00 26.09167 C 16.8 g/m*3 26.09 C 6.425 km/h
234 14-08-2017 17:00:00 25.50833 C 17.9 g/m*3 25.51 C 1.34167 km/h
235 14-08-2017 18:00:00 26.725 C 18.04 g/m*3 26.73 C 3.075 km/h
236 14-08-2017 19:00:00 24.20833 C 17.08 g/m*3 24.21 C 0 km/h
237 14-08-2017 20:00:00 21.63333 C 15.87 g/m*3 21.63 C 0.13333 km/h
238 14-08-2017 21:00:00 20.3 C 15.43 g/m*3 20.3 C 0.13333 km/h
239 14-08-2017 22:00:00 19.46667 C 14.92 g/m*3 19.47 C 0 km/h
240 14-08-2017 23:00:00 18.40833 C 14.35 g/m*3 18.41 C 0 km/h
241 15-08-2017 00:00:00 17.28333 C 13.66 g/m*3 17.28 C 0 km/h
242 15-08-2017 01:00:00 16.54167 C 13.23 g/m*3 16.54 C 0 km/h
243 15-08-2017 02:00:00 15.98333 C 12.91 g/m*3 15.98 C 0 km/h
244 15-08-2017 03:00:00 15.74167 C 12.8 g/m*3 15.74 C 0 km/h
245 15-08-2017 04:00:00 15.49167 C 12.67 g/m*3 15.49 C 0 km/h
246 15-08-2017 05:00:00 15.35 C 12.57 g/m*3 15.35 C 0 km/h
247 15-08-2017 06:00:00 15.19167 C 12.45 g/m*3 15.19 C 0.26667 km/h
248 15-08-2017 07:00:00 15.41667 C 12.71 g/m*3 15.42 C 0 km/h
249 15-08-2017 08:00:00 16.125 C 13.32 g/m*3 16.13 C 0 km/h
250 15-08-2017 09:00:00 17.31667 C 14.3 g/m*3 17.32 C 0 km/h
Sensor: Nr:Datum:Temp:Abs-Feuchte:Windchill:Wind:
Aussen-T/F 251 15-08-2017 10:00:00 19.06667 C 15.87 g/m*3 19.07 C 0 km/h
252 15-08-2017 11:00:00 19.84167 C 16.47 g/m*3 19.84 C 0 km/h
253 15-08-2017 12:00:00 20.24167 C 16.48 g/m*3 20.24 C 2.28333 km/h
254 15-08-2017 13:00:00 20.50833 C 16.69 g/m*3 20.51 C 1.73333 km/h
255 15-08-2017 14:00:00 21.68333 C 17.64 g/m*3 21.68 C 3.74167 km/h
256 15-08-2017 15:00:00 22.475 C 18.12 g/m*3 22.48 C 0.26667 km/h
257 15-08-2017 16:00:00 22.30833 C 18.27 g/m*3 22.31 C 0 km/h
258 15-08-2017 17:00:00 22.075 C 17.66 g/m*3 22.08 C 1.73333 km/h
259 15-08-2017 18:00:00 22.65833 C 17.45 g/m*3 22.66 C 1.875 km/h
260 15-08-2017 19:00:00 21.31667 C 16.59 g/m*3 21.32 C 2.00833 km/h
261 15-08-2017 20:00:00 20.35833 C 15.76 g/m*3 20.36 C 0.66667 km/h
262 15-08-2017 21:00:00 19.475 C 15.21 g/m*3 19.48 C 0.13333 km/h
263 15-08-2017 22:00:00 18.90833 C 15.03 g/m*3 18.91 C 0.4 km/h
264 15-08-2017 23:00:00 19.43333 C 15.57 g/m*3 19.43 C 1.06667 km/h
265 16-08-2017 00:00:00 19.025 C 15.42 g/m*3 19.02 C 0.26667 km/h
266 16-08-2017 01:00:00 18.41667 C 14.96 g/m*3 18.42 C 0.13333 km/h
267 16-08-2017 02:00:00 17.85 C 14.53 g/m*3 17.85 C 0 km/h
268 16-08-2017 03:00:00 17.725 C 14.51 g/m*3 17.73 C 0 km/h
269 16-08-2017 04:00:00 17.33333 C 14.17 g/m*3 17.33 C 0.26667 km/h
270 16-08-2017 05:00:00 17.225 C 14.08 g/m*3 17.23 C 0.13333 km/h
271 16-08-2017 06:00:00 17.14167 C 14.01 g/m*3 17.14 C 0 km/h
272 16-08-2017 07:00:00 17.28333 C 14.21 g/m*3 17.28 C 0 km/h
273 16-08-2017 08:00:00 17.25833 C 14.16 g/m*3 17.26 C 0 km/h
274 16-08-2017 09:00:00 17.975 C 14.68 g/m*3 17.98 C 0 km/h
275 16-08-2017 10:00:00 19.36667 C 14.79 g/m*3 19.37 C 0.93333 km/h
Sensor: Nr:Datum:Temp:Abs-Feuchte:Windchill:Wind:
Aussen-T/F 276 16-08-2017 11:00:00 20.19167 C 14.24 g/m*3 20.19 C 0.4 km/h
277 16-08-2017 12:00:00 20.85833 C 14.46 g/m*3 20.86 C 2.13333 km/h
278 16-08-2017 13:00:00 21.80833 C 13.9 g/m*3 21.81 C 5.075 km/h
279 16-08-2017 14:00:00 22.75833 C 13.82 g/m*3 22.76 C 4.26667 km/h
280 16-08-2017 15:00:00 23.39167 C 15.22 g/m*3 23.39 C 1.875 km/h
281 16-08-2017 16:00:00 23.8 C 16.53 g/m*3 23.8 C 0.8 km/h
282 16-08-2017 17:00:00 23.45 C 17.2 g/m*3 23.45 C 0 km/h
283 16-08-2017 18:00:00 23.24167 C 17.09 g/m*3 23.24 C 0 km/h
284 16-08-2017 19:00:00 21.94167 C 16.15 g/m*3 21.94 C 0 km/h
285 16-08-2017 20:00:00 20.65 C 15 g/m*3 20.65 C 0.13333 km/h
286 16-08-2017 21:00:00 19.18333 C 14.21 g/m*3 19.18 C 0 km/h
287 16-08-2017 22:00:00 18.95833 C 14.56 g/m*3 18.96 C 0 km/h
288 16-08-2017 23:00:00 18.48333 C 14.38 g/m*3 18.48 C 0 km/h
289 17-08-2017 00:00:00 17.5 C 13.84 g/m*3 17.5 C 0 km/h
290 17-08-2017 01:00:00 16.84167 C 13.46 g/m*3 16.84 C 0 km/h
291 17-08-2017 02:00:00 16.16667 C 13.06 g/m*3 16.17 C 0 km/h
292 17-08-2017 03:00:00 15.71667 C 12.72 g/m*3 15.72 C 0 km/h
293 17-08-2017 04:00:00 15.55 C 12.71 g/m*3 15.55 C 0 km/h
294 17-08-2017 05:00:00 15.85 C 12.96 g/m*3 15.85 C 0 km/h
295 17-08-2017 06:00:00 15.85 C 12.96 g/m*3 15.85 C 0 km/h
296 17-08-2017 07:00:00 15.84167 C 12.99 g/m*3 15.84 C 0.26667 km/h
297 17-08-2017 08:00:00 16.10833 C 13.3 g/m*3 16.11 C 0 km/h
298 17-08-2017 09:00:00 16.775 C 13.85 g/m*3 16.77 C 0 km/h
299 17-08-2017 10:00:00 18.08333 C 14.69 g/m*3 18.08 C 0 km/h
300 17-08-2017 11:00:00 20.81667 C 16.12 g/m*3 20.82 C 0 km/h
Sensor: Nr:Datum:Temp:Abs-Feuchte:Windchill:Wind:
Aussen-T/F 301 17-08-2017 12:00:00 23.31667 C 16.46 g/m*3 23.32 C 10.35833 km/h
302 17-08-2017 13:00:00 24.10833 C 15.16 g/m*3 24.11 C 12.76667 km/h
303 17-08-2017 14:00:00 24.68333 C 14.64 g/m*3 24.68 C 11.28333 km/h
304 17-08-2017 15:00:00 23.7 C 15.63 g/m*3 23.7 C 4.025 km/h
305 17-08-2017 16:00:00 22.89167 C 15.58 g/m*3 22.89 C 6.58333 km/h
306 17-08-2017 17:00:00 21.96667 C 15.13 g/m*3 21.97 C 2.66667 km/h
307 17-08-2017 18:00:00 21.725 C 14.61 g/m*3 21.73 C 6.84167 km/h
308 17-08-2017 19:00:00 20.86667 C 14.94 g/m*3 20.87 C 4.55833 km/h
309 17-08-2017 20:00:00 20.44167 C 15.09 g/m*3 20.44 C 0.66667 km/h
310 17-08-2017 21:00:00 19.49167 C 14.86 g/m*3 19.49 C 0 km/h
311 17-08-2017 22:00:00 18.4 C 14.34 g/m*3 18.4 C 0 km/h
312 17-08-2017 23:00:00 17.73333 C 14.07 g/m*3 17.73 C 0 km/h
313 18-08-2017 00:00:00 17.68333 C 14.17 g/m*3 17.68 C 0 km/h
314 18-08-2017 01:00:00 17.78333 C 14.38 g/m*3 17.78 C 0 km/h
315 18-08-2017 02:00:00 17.675 C 14.32 g/m*3 17.68 C 0 km/h
316 18-08-2017 03:00:00 17.8 C 14.49 g/m*3 17.8 C 0 km/h
317 18-08-2017 04:00:00 17.825 C 14.59 g/m*3 17.83 C 0 km/h
318 18-08-2017 05:00:00 17.95833 C 14.71 g/m*3 17.96 C 0 km/h
319 18-08-2017 06:00:00 18.08333 C 14.82 g/m*3 18.08 C 0 km/h
320 18-08-2017 07:00:00 18.44167 C 15.14 g/m*3 18.44 C 0 km/h
321 18-08-2017 08:00:00 19.325 C 15.67 g/m*3 19.33 C 0 km/h
322 18-08-2017 09:00:00 20.21667 C 15.84 g/m*3 20.22 C 3.35833 km/h
323 18-08-2017 10:00:00 20.5 C 15.41 g/m*3 20.5 C 7.25 km/h
324 18-08-2017 11:00:00 19.55833 C 14.67 g/m*3 19.56 C 4.00833 km/h
325 18-08-2017 12:00:00 20.09167 C 15.23 g/m*3 20.09 C 2.13333 km/h
Sensor: Nr:Datum:Temp:Abs-Feuchte:Windchill:Wind:
Aussen-T/F 326 18-08-2017 13:00:00 19.95 C 15.98 g/m*3 19.95 C 0.66667 km/h
327 18-08-2017 14:00:00 19.71667 C 15.89 g/m*3 19.72 C 3.48333 km/h
328 18-08-2017 15:00:00 18.66667 C 15.13 g/m*3 18.67 C 4.00833 km/h
329 18-08-2017 16:00:00 18.31667 C 14.99 g/m*3 18.32 C 1.73333 km/h
330 18-08-2017 17:00:00 18.1 C 14.83 g/m*3 18.1 C 0.53333 km/h
331 18-08-2017 18:00:00 17.86667 C 14.63 g/m*3 17.87 C 0.93333 km/h
332 18-08-2017 19:00:00 17.43333 C 14.29 g/m*3 17.43 C 1.74167 km/h
333 18-08-2017 20:00:00 17.25833 C 14.14 g/m*3 17.26 C 1.2 km/h
334 18-08-2017 21:00:00 16.54167 C 13.51 g/m*3 16.54 C 2.15 km/h
335 18-08-2017 22:00:00 16.25833 C 13.39 g/m*3 16.26 C 3.61667 km/h
336 18-08-2017 23:00:00 15.86667 C 13.03 g/m*3 15.87 C 0.53333 km/h
337 19-08-2017 00:00:00 14.45 C 11.9 g/m*3 14.45 C 0.53333 km/h
338 19-08-2017 01:00:00 13.53333 C 11.25 g/m*3 13.53 C 0.13333 km/h
339 19-08-2017 02:00:00 12.99167 C 10.89 g/m*3 12.99 C 0 km/h
340 19-08-2017 03:00:00 12.325 C 10.49 g/m*3 12.33 C 0 km/h
341 19-08-2017 04:00:00 11.95833 C 10.31 g/m*3 11.96 C 0 km/h
342 19-08-2017 05:00:00 11.55833 C 10.06 g/m*3 11.56 C 0 km/h
343 19-08-2017 06:00:00 11.40833 C 9.96 g/m*3 11.41 C 0 km/h
344 19-08-2017 07:00:00 11.425 C 9.97 g/m*3 11.43 C 0 km/h
345 19-08-2017 08:00:00 11.725 C 10.16 g/m*3 11.73 C 0 km/h
346 19-08-2017 09:00:00 12.45 C 10.63 g/m*3 12.45 C 4.025 km/h
347 19-08-2017 10:00:00 13.7 C 11.14 g/m*3 13.7 C 9.275 km/h
348 19-08-2017 11:00:00 15.425 C 11.35 g/m*3 15.43 C 12.35833 km/h
349 19-08-2017 12:00:00 16.76667 C 11.34 g/m*3 16.77 C 15.16667 km/h
350 19-08-2017 13:00:00 17.85833 C 11.56 g/m*3 17.86 C 14.225 km/h
Sensor: Nr:Datum:Temp:Abs-Feuchte:Windchill:Wind:
Aussen-T/F 351 19-08-2017 14:00:00 18.39167 C 11.76 g/m*3 18.39 C 12.625 km/h
352 19-08-2017 15:00:00 18.50833 C 11.86 g/m*3 18.51 C 11.69167 km/h
353 19-08-2017 16:00:00 18.54167 C 11.95 g/m*3 18.54 C 9.26667 km/h
354 19-08-2017 17:00:00 17.275 C 13.09 g/m*3 17.27 C 1.475 km/h
355 19-08-2017 18:00:00 16.3 C 12.81 g/m*3 16.3 C 0.8 km/h
356 19-08-2017 19:00:00 15.79167 C 12.5 g/m*3 15.79 C 2.8 km/h
357 19-08-2017 20:00:00 15.34167 C 12.06 g/m*3 15.34 C 2.13333 km/h
358 19-08-2017 21:00:00 15.00833 C 11.94 g/m*3 15.01 C 0.53333 km/h
359 19-08-2017 22:00:00 14.51667 C 11.68 g/m*3 14.52 C 0 km/h
360 19-08-2017 23:00:00 13.64167 C 11.08 g/m*3 13.64 C 0 km/h
361 20-08-2017 00:00:00 13.375 C 11.03 g/m*3 13.38 C 0 km/h
362 20-08-2017 01:00:00 12.91667 C 10.72 g/m*3 12.92 C 0.8 km/h
363 20-08-2017 02:00:00 13.08333 C 10.89 g/m*3 13.08 C 3.33333 km/h
364 20-08-2017 03:00:00 12.15 C 10.22 g/m*3 12.15 C 0 km/h
365 20-08-2017 04:00:00 11.575 C 9.93 g/m*3 11.58 C 0.66667 km/h
366 20-08-2017 05:00:00 11.44167 C 9.88 g/m*3 11.44 C 1.2 km/h
367 20-08-2017 06:00:00 11.475 C 9.89 g/m*3 11.48 C 0.66667 km/h
368 20-08-2017 07:00:00 11.75833 C 10.08 g/m*3 11.76 C 1.33333 km/h
369 20-08-2017 08:00:00 12.125 C 10.29 g/m*3 12.13 C 0.53333 km/h
370 20-08-2017 09:00:00 12.98333 C 10.64 g/m*3 12.98 C 3.625 km/h
371 20-08-2017 10:00:00 14.43333 C 10.99 g/m*3 14.43 C 9.69167 km/h
372 20-08-2017 11:00:00 16.04167 C 11.52 g/m*3 16.04 C 9.55 km/h
373 20-08-2017 12:00:00 17.05 C 11.51 g/m*3 17.05 C 11.29167 km/h
374 20-08-2017 13:00:00 17.40833 C 11.27 g/m*3 17.41 C 12.75833 km/h
375 20-08-2017 14:00:00 18.225 C 10.96 g/m*3 18.23 C 9 km/h
Sensor: Nr:Datum:Temp:Abs-Feuchte:Windchill:Wind:
Aussen-T/F 376 20-08-2017 15:00:00 17.35833 C 11.53 g/m*3 17.36 C 1.60833 km/h
377 20-08-2017 16:00:00 18.20833 C 12.3 g/m*3 18.21 C 1.46667 km/h
378 20-08-2017 17:00:00 19.45 C 12.4 g/m*3 19.45 C 1.875 km/h
379 20-08-2017 18:00:00 19.05833 C 11.69 g/m*3 19.06 C 3.48333 km/h
380 20-08-2017 19:00:00 17.79167 C 11.63 g/m*3 17.79 C 0.8 km/h
381 20-08-2017 20:00:00 15.66667 C 10.87 g/m*3 15.67 C 0.4 km/h
382 20-08-2017 21:00:00 14.925 C 10.75 g/m*3 14.93 C 0 km/h
383 20-08-2017 22:00:00 14.33333 C 10.81 g/m*3 14.33 C 0 km/h
384 20-08-2017 23:00:00 13.625 C 10.38 g/m*3 13.63 C 0 km/h
385 21-08-2017 00:00:00 12.83333 C 10.17 g/m*3 12.83 C 0 km/h
386 21-08-2017 01:00:00 12.625 C 10.21 g/m*3 12.63 C 0 km/h
387 21-08-2017 02:00:00 12.50833 C 10.23 g/m*3 12.51 C 0 km/h
388 21-08-2017 03:00:00 12.33333 C 10.12 g/m*3 12.33 C 0 km/h
389 21-08-2017 04:00:00 12.24167 C 10.11 g/m*3 12.24 C 0 km/h
390 21-08-2017 05:00:00 12.06667 C 10.06 g/m*3 12.07 C 0 km/h
391 21-08-2017 06:00:00 11.69167 C 9.83 g/m*3 11.69 C 0 km/h
392 21-08-2017 07:00:00 11.61667 C 9.87 g/m*3 11.62 C 0 km/h
393 21-08-2017 08:00:00 12.66667 C 10.62 g/m*3 12.67 C 0 km/h
394 21-08-2017 09:00:00 13.41667 C 10.94 g/m*3 13.42 C 0 km/h
395 21-08-2017 10:00:00 14.25833 C 11.35 g/m*3 14.26 C 0 km/h
396 21-08-2017 11:00:00 15.83333 C 11.54 g/m*3 15.83 C 0.675 km/h
397 21-08-2017 12:00:00 18.34167 C 11.27 g/m*3 18.34 C 5.46667 km/h
398 21-08-2017 13:00:00 19.19167 C 11.15 g/m*3 19.19 C 4.53333 km/h
399 21-08-2017 14:00:00 19.875 C 10.91 g/m*3 19.88 C 6.31667 km/h
400 21-08-2017 15:00:00 21.01667 C 11.22 g/m*3 21.02 C 5.21667 km/h
Sensor: Nr:Datum:Temp:Abs-Feuchte:Windchill:Wind:
Aussen-T/F 401 21-08-2017 16:00:00 21.80833 C 11.47 g/m*3 21.81 C 4.66667 km/h
402 21-08-2017 17:00:00 22.85833 C 11.49 g/m*3 22.86 C 4.93333 km/h
403 21-08-2017 18:00:00 23.35833 C 13.51 g/m*3 23.36 C 0.53333 km/h
404 21-08-2017 19:00:00 19.25 C 12.51 g/m*3 19.25 C 0 km/h
405 21-08-2017 20:00:00 17.18333 C 11.95 g/m*3 17.18 C 0 km/h
406 21-08-2017 21:00:00 15.65 C 11.14 g/m*3 15.65 C 0.13333 km/h
407 21-08-2017 22:00:00 14.50833 C 10.7 g/m*3 14.51 C 0 km/h
408 21-08-2017 23:00:00 13.46667 C 10.33 g/m*3 13.47 C 0 km/h
409 22-08-2017 00:00:00 12.55 C 10.02 g/m*3 12.55 C 0 km/h
410 22-08-2017 01:00:00 11.90833 C 9.8 g/m*3 11.91 C 0 km/h
411 22-08-2017 02:00:00 11.475 C 9.67 g/m*3 11.48 C 0 km/h
412 22-08-2017 03:00:00 11.06667 C 9.45 g/m*3 11.07 C 0 km/h
413 22-08-2017 04:00:00 10.775 C 9.38 g/m*3 10.78 C 0 km/h
414 22-08-2017 05:00:00 10.38333 C 9.15 g/m*3 10.38 C 0 km/h
415 22-08-2017 06:00:00 10.625 C 9.38 g/m*3 10.63 C 0 km/h
416 22-08-2017 07:00:00 10.98333 C 9.6 g/m*3 10.98 C 0 km/h
417 22-08-2017 08:00:00 11.30833 C 9.8 g/m*3 11.31 C 0 km/h
418 22-08-2017 09:00:00 12.00833 C 10.25 g/m*3 12.01 C 0 km/h
419 22-08-2017 10:00:00 13.04167 C 10.94 g/m*3 13.04 C 0 km/h
420 22-08-2017 11:00:00 15.00833 C 12.25 g/m*3 15.01 C 0 km/h
421 22-08-2017 12:00:00 17.09167 C 13.43 g/m*3 17.09 C 0 km/h
422 22-08-2017 13:00:00 19.20833 C 12.63 g/m*3 19.21 C 0 km/h
423 22-08-2017 14:00:00 19.94167 C 12.44 g/m*3 19.94 C 0 km/h
424 22-08-2017 15:00:00 21.63333 C 11.97 g/m*3 21.63 C 0 km/h
425 22-08-2017 16:00:00 23.6 C 12.51 g/m*3 23.6 C 0 km/h
Sensor: Nr:Datum:Temp:Abs-Feuchte:Windchill:Wind:
Aussen-T/F 426 22-08-2017 17:00:00 25.3 C 13.34 g/m*3 25.3 C 0 km/h
427 22-08-2017 18:00:00 22.43333 C 14.03 g/m*3 22.43 C 0 km/h
428 22-08-2017 19:00:00 20.96667 C 13.58 g/m*3 20.97 C 0 km/h
429 22-08-2017 20:00:00 18.43333 C 12.54 g/m*3 18.43 C 0 km/h
430 22-08-2017 21:00:00 16.95833 C 11.74 g/m*3 16.96 C 0 km/h
431 22-08-2017 22:00:00 16 C 11.69 g/m*3 16 C 0 km/h
432 22-08-2017 23:00:00 14.85833 C 11.37 g/m*3 14.86 C 0 km/h
433 23-08-2017 00:00:00 14.325 C 11.17 g/m*3 14.33 C 0.13333 km/h
434 23-08-2017 01:00:00 14.175 C 11.12 g/m*3 14.18 C 0 km/h
435 23-08-2017 02:00:00 13.51667 C 10.81 g/m*3 13.52 C 0 km/h
436 23-08-2017 03:00:00 12.96667 C 10.6 g/m*3 12.97 C 0 km/h
437 23-08-2017 04:00:00 12.74167 C 10.49 g/m*3 12.74 C 0 km/h
438 23-08-2017 05:00:00 12.275 C 10.23 g/m*3 12.28 C 0 km/h
439 23-08-2017 06:00:00 11.98333 C 10.11 g/m*3 11.98 C 0 km/h
440 23-08-2017 07:00:00 12.16667 C 10.3 g/m*3 12.17 C 0 km/h
441 23-08-2017 08:00:00 13.53333 C 11.25 g/m*3 13.53 C 0 km/h
442 23-08-2017 09:00:00 13.94167 C 11.54 g/m*3 13.94 C 0 km/h
443 23-08-2017 10:00:00 14.81667 C 12.11 g/m*3 14.82 C 0 km/h
444 23-08-2017 11:00:00 16.69167 C 13.09 g/m*3 16.69 C 0 km/h
445 23-08-2017 12:00:00 19.48333 C 13.59 g/m*3 19.48 C 0 km/h
446 23-08-2017 13:00:00 21.25 C 13.89 g/m*3 21.25 C 0 km/h
447 23-08-2017 14:00:00 23.15833 C 13.38 g/m*3 23.16 C 0 km/h
448 23-08-2017 15:00:00 24.11667 C 13.41 g/m*3 24.12 C 2.15833 km/h
449 23-08-2017 16:00:00 26.125 C 15.3 g/m*3 26.13 C 1.2 km/h
450 23-08-2017 17:00:00 27.3 C 16.44 g/m*3 27.3 C 0.4 km/h
Sensor: Nr:Datum:Temp:Abs-Feuchte:Windchill:Wind:
Aussen-T/F 451 23-08-2017 18:00:00 25.31667 C 16.4 g/m*3 25.32 C 0 km/h
452 23-08-2017 19:00:00 22.21667 C 15.07 g/m*3 22.22 C 0 km/h
453 23-08-2017 20:00:00 20.34167 C 14.32 g/m*3 20.34 C 0 km/h
454 23-08-2017 21:00:00 19.275 C 13.95 g/m*3 19.27 C 0 km/h
455 23-08-2017 22:00:00 18.425 C 13.8 g/m*3 18.43 C 0 km/h
456 23-08-2017 23:00:00 17.73333 C 13.44 g/m*3 17.73 C 0 km/h
457 24-08-2017 00:00:00 16.96667 C 13.06 g/m*3 16.97 C 0 km/h
458 24-08-2017 01:00:00 16.48333 C 12.89 g/m*3 16.48 C 0 km/h
459 24-08-2017 02:00:00 16.35833 C 12.97 g/m*3 16.36 C 0.13333 km/h
460 24-08-2017 03:00:00 17.35833 C 13.81 g/m*3 17.36 C 0.13333 km/h
461 24-08-2017 04:00:00 17.81667 C 14.05 g/m*3 17.82 C 0 km/h
462 24-08-2017 05:00:00 17.91667 C 14.14 g/m*3 17.92 C 0 km/h
463 24-08-2017 06:00:00 18.01667 C 14.34 g/m*3 18.02 C 0 km/h
464 24-08-2017 07:00:00 17.95833 C 13.87 g/m*3 17.96 C 0.26667 km/h
465 24-08-2017 08:00:00 18.2 C 13.73 g/m*3 18.2 C 0.53333 km/h
466 24-08-2017 09:00:00 18.33333 C 13.17 g/m*3 18.33 C 2.28333 km/h
467 24-08-2017 10:00:00 18.75833 C 13.01 g/m*3 18.76 C 2.95 km/h
468 24-08-2017 11:00:00 19.59167 C 13.15 g/m*3 19.59 C 4.00833 km/h
469 24-08-2017 12:00:00 20.23333 C 13.02 g/m*3 20.23 C 3.2 km/h
470 24-08-2017 13:00:00 21.05 C 12.88 g/m*3 21.05 C 3.21667 km/h
471 24-08-2017 14:00:00 21.975 C 13.36 g/m*3 21.98 C 3.89167 km/h
472 24-08-2017 15:00:00 23.23333 C 13.78 g/m*3 23.23 C 4.00833 km/h
473 24-08-2017 16:00:00 23.95833 C 15.19 g/m*3 23.96 C 0.66667 km/h
474 24-08-2017 17:00:00 24.99167 C 14.59 g/m*3 24.99 C 7.40833 km/h
475 24-08-2017 18:00:00 24.13333 C 15 g/m*3 24.13 C 2.54167 km/h
Sensor: Nr:Datum:Temp:Abs-Feuchte:Windchill:Wind:
Aussen-T/F 476 24-08-2017 19:00:00 21.01667 C 14.46 g/m*3 21.02 C 0 km/h
477 24-08-2017 20:00:00 18.83333 C 13.23 g/m*3 18.83 C 0 km/h
478 24-08-2017 21:00:00 17.80833 C 12.83 g/m*3 17.81 C 0 km/h
479 24-08-2017 22:00:00 16.86667 C 12.38 g/m*3 16.87 C 0 km/h
480 24-08-2017 23:00:00 15.49167 C 11.89 g/m*3 15.49 C 0 km/h
481 25-08-2017 00:00:00 14.875 C 11.7 g/m*3 14.88 C 0 km/h
482 25-08-2017 01:00:00 14.48333 C 11.54 g/m*3 14.48 C 0 km/h
483 25-08-2017 02:00:00 14.20833 C 11.43 g/m*3 14.21 C 0 km/h
484 25-08-2017 03:00:00 13.95 C 11.31 g/m*3 13.95 C 0 km/h
485 25-08-2017 04:00:00 13.69167 C 11.22 g/m*3 13.69 C 0 km/h
486 25-08-2017 05:00:00 13.46667 C 11.1 g/m*3 13.47 C 0 km/h
487 25-08-2017 06:00:00 13.49167 C 11.18 g/m*3 13.49 C 0 km/h
488 25-08-2017 07:00:00 14.06667 C 11.63 g/m*3 14.07 C 0 km/h
489 25-08-2017 08:00:00 14.69167 C 12.05 g/m*3 14.69 C 0 km/h
490 25-08-2017 09:00:00 15.56667 C 12.53 g/m*3 15.57 C 0 km/h
491 25-08-2017 10:00:00 16.95 C 13.34 g/m*3 16.95 C 0 km/h
492 25-08-2017 11:00:00 18.68333 C 14.04 g/m*3 18.68 C 0 km/h
493 25-08-2017 12:00:00 20.875 C 14.05 g/m*3 20.88 C 0.53333 km/h
494 25-08-2017 13:00:00 22.49167 C 14.56 g/m*3 22.49 C 3.61667 km/h
495 25-08-2017 14:00:00 23.71667 C 14.97 g/m*3 23.72 C 5.25 km/h
496 25-08-2017 15:00:00 24.59167 C 16.31 g/m*3 24.59 C 1.075 km/h
497 25-08-2017 16:00:00 24.60833 C 17.49 g/m*3 24.61 C 0 km/h
498 25-08-2017 17:00:00 23.05833 C 17.19 g/m*3 23.06 C 0 km/h
499 25-08-2017 18:00:00 20.8 C 16.73 g/m*3 20.8 C 0 km/h
500 25-08-2017 19:00:00 20.76667 C 17.08 g/m*3 20.77 C 0 km/h
Sensor: Nr:Datum:Temp:Abs-Feuchte:Windchill:Wind:
Aussen-T/F 501 25-08-2017 20:00:00 19.8 C 16.06 g/m*3 19.8 C 0 km/h
502 25-08-2017 21:00:00 18.875 C 15.37 g/m*3 18.88 C 0 km/h
503 25-08-2017 22:00:00 18.50833 C 15.13 g/m*3 18.51 C 0 km/h
504 25-08-2017 23:00:00 18.675 C 15.35 g/m*3 18.68 C 0 km/h
505 26-08-2017 00:00:00 18.29167 C 15 g/m*3 18.29 C 0 km/h
506 26-08-2017 01:00:00 18.03333 C 14.77 g/m*3 18.03 C 0 km/h
507 26-08-2017 02:00:00 17.91667 C 14.76 g/m*3 17.92 C 0 km/h
508 26-08-2017 03:00:00 18.3 C 15.17 g/m*3 18.3 C 0 km/h
509 26-08-2017 04:00:00 18.475 C 15.32 g/m*3 18.48 C 2.55 km/h
510 26-08-2017 05:00:00 18.30833 C 15.17 g/m*3 18.31 C 0.93333 km/h
511 26-08-2017 06:00:00 18.125 C 15.01 g/m*3 18.13 C 1.06667 km/h
512 26-08-2017 07:00:00 17.65833 C 14.6 g/m*3 17.66 C 0 km/h
513 26-08-2017 08:00:00 17.89167 C 14.8 g/m*3 17.89 C 0 km/h
514 26-08-2017 09:00:00 18.725 C 15.59 g/m*3 18.73 C 0 km/h
515 26-08-2017 10:00:00 19.30833 C 16.11 g/m*3 19.31 C 0.8 km/h
516 26-08-2017 11:00:00 19.80833 C 16.59 g/m*3 19.81 C 0 km/h
517 26-08-2017 12:00:00 20.98333 C 17.78 g/m*3 20.98 C 0.26667 km/h
518 26-08-2017 13:00:00 22.325 C 19.18 g/m*3 22.33 C 0 km/h
519 26-08-2017 14:00:00 23.46667 C 19.79 g/m*3 23.47 C 2.54167 km/h
520 26-08-2017 15:00:00 25.14167 C 19.26 g/m*3 25.14 C 6.45 km/h
521 26-08-2017 16:00:00 25.51667 C 19.61 g/m*3 25.52 C 2.95 km/h
522 26-08-2017 17:00:00 25.95 C 19.36 g/m*3 25.95 C 1.06667 km/h
523 26-08-2017 18:00:00 24.575 C 18.65 g/m*3 24.58 C 0.4 km/h
524 26-08-2017 19:00:00 23.5 C 17.66 g/m*3 23.5 C 0 km/h
525 26-08-2017 20:00:00 21.55833 C 16.76 g/m*3 21.56 C 0.4 km/h
Sensor: Nr:Datum:Temp:Abs-Feuchte:Windchill:Wind:
Aussen-T/F 526 26-08-2017 21:00:00 20.50833 C 16.39 g/m*3 20.51 C 0 km/h
527 26-08-2017 22:00:00 20.175 C 16.3 g/m*3 20.18 C 0 km/h
528 26-08-2017 23:00:00 19.825 C 16.08 g/m*3 19.83 C 0 km/h
529 27-08-2017 00:00:00 18.875 C 15.19 g/m*3 18.88 C 0 km/h
530 27-08-2017 01:00:00 18.01667 C 14.57 g/m*3 18.02 C 0 km/h
531 27-08-2017 02:00:00 17.4 C 14.1 g/m*3 17.4 C 0 km/h
532 27-08-2017 03:00:00 17.225 C 14.08 g/m*3 17.23 C 0 km/h
533 27-08-2017 04:00:00 16.89167 C 13.8 g/m*3 16.89 C 0 km/h
534 27-08-2017 05:00:00 16.38333 C 13.39 g/m*3 16.38 C 0 km/h
535 27-08-2017 06:00:00 16.375 C 13.44 g/m*3 16.38 C 1.06667 km/h
536 27-08-2017 07:00:00 16.575 C 13.68 g/m*3 16.58 C 0.26667 km/h
537 27-08-2017 08:00:00 17.025 C 14.06 g/m*3 17.02 C 0.26667 km/h
538 27-08-2017 09:00:00 17.44167 C 14.41 g/m*3 17.44 C 0 km/h
539 27-08-2017 10:00:00 18.04167 C 14.83 g/m*3 18.04 C 0 km/h
540 27-08-2017 11:00:00 19.6 C 15.28 g/m*3 19.6 C 0 km/h
541 27-08-2017 12:00:00 21.00833 C 15.2 g/m*3 21.01 C 0 km/h
542 27-08-2017 13:00:00 21.76667 C 14.95 g/m*3 21.77 C 0 km/h
543 27-08-2017 14:00:00 22.625 C 15.61 g/m*3 22.63 C 0 km/h
544 27-08-2017 15:00:00 24.23333 C 16.42 g/m*3 24.23 C 0 km/h
545 27-08-2017 16:00:00 24.15833 C 16.54 g/m*3 24.16 C 0 km/h
546 27-08-2017 17:00:00 22.98333 C 17.06 g/m*3 22.98 C 0 km/h
547 27-08-2017 18:00:00 22.29167 C 16.76 g/m*3 22.29 C 0 km/h
548 27-08-2017 19:00:00 21.025 C 15.82 g/m*3 21.03 C 0 km/h
549 27-08-2017 20:00:00 19.93333 C 15.18 g/m*3 19.93 C 0 km/h
550 27-08-2017 21:00:00 19.38333 C 14.95 g/m*3 19.38 C 0 km/h
Sensor: Nr:Datum:Temp:Abs-Feuchte:Windchill:Wind:
Aussen-T/F 551 27-08-2017 22:00:00 18.99167 C 14.81 g/m*3 18.99 C 0 km/h
552 27-08-2017 23:00:00 18.19167 C 14.07 g/m*3 18.19 C 0 km/h
553 28-08-2017 00:00:00 17.51667 C 13.73 g/m*3 17.52 C 0 km/h
554 28-08-2017 01:00:00 16.70833 C 13.27 g/m*3 16.71 C 0 km/h
555 28-08-2017 02:00:00 16.01667 C 12.87 g/m*3 16.02 C 0 km/h
556 28-08-2017 03:00:00 15.96667 C 12.85 g/m*3 15.97 C 0 km/h
557 28-08-2017 04:00:00 15.48333 C 12.35 g/m*3 15.48 C 0 km/h
558 28-08-2017 05:00:00 15.23333 C 12.1 g/m*3 15.23 C 0 km/h
559 28-08-2017 06:00:00 14.86667 C 11.83 g/m*3 14.87 C 0 km/h
560 28-08-2017 07:00:00 14.89167 C 11.97 g/m*3 14.89 C 0 km/h
561 28-08-2017 08:00:00 15.68333 C 12.7 g/m*3 15.68 C 0 km/h
562 28-08-2017 09:00:00 16.475 C 13.3 g/m*3 16.48 C 0 km/h
563 28-08-2017 10:00:00 17.2 C 13.75 g/m*3 17.2 C 0 km/h
564 28-08-2017 11:00:00 18.40833 C 14.35 g/m*3 18.41 C 0 km/h
565 28-08-2017 12:00:00 20.35 C 15.21 g/m*3 20.35 C 0 km/h
566 28-08-2017 13:00:00 22.65 C 15.19 g/m*3 22.65 C 0.26667 km/h
567 28-08-2017 14:00:00 24.10833 C 15.27 g/m*3 24.11 C 0.4 km/h
568 28-08-2017 15:00:00 24.80833 C 15.5 g/m*3 24.81 C 0.13333 km/h
569 28-08-2017 16:00:00 26.23333 C 16.26 g/m*3 26.23 C 0.13333 km/h
570 28-08-2017 17:00:00 27.80833 C 17.98 g/m*3 27.81 C 0.13333 km/h
571 28-08-2017 18:00:00 26.60833 C 17.88 g/m*3 26.61 C 0 km/h
572 28-08-2017 19:00:00 22.99167 C 16.28 g/m*3 22.99 C 0 km/h
573 28-08-2017 20:00:00 20.88333 C 15.47 g/m*3 20.88 C 0 km/h
574 28-08-2017 21:00:00 19.81667 C 14.95 g/m*3 19.82 C 0 km/h
575 28-08-2017 22:00:00 18.89167 C 14.56 g/m*3 18.89 C 0 km/h
Sensor: Nr:Datum:Temp:Abs-Feuchte:Windchill:Wind:
Aussen-T/F 576 28-08-2017 23:00:00 18.175 C 14.2 g/m*3 18.18 C 0 km/h
577 29-08-2017 00:00:00 17.49167 C 13.81 g/m*3 17.49 C 0 km/h
578 29-08-2017 01:00:00 16.94167 C 13.55 g/m*3 16.94 C 0 km/h
579 29-08-2017 02:00:00 16.46667 C 13.24 g/m*3 16.47 C 0 km/h
580 29-08-2017 03:00:00 15.95 C 12.9 g/m*3 15.95 C 0 km/h
581 29-08-2017 04:00:00 15.58333 C 12.67 g/m*3 15.58 C 0 km/h
582 29-08-2017 05:00:00 15.19167 C 12.4 g/m*3 15.19 C 0 km/h
583 29-08-2017 06:00:00 14.84167 C 12.19 g/m*3 14.84 C 0 km/h
584 29-08-2017 07:00:00 14.75 C 12.14 g/m*3 14.75 C 0 km/h
585 29-08-2017 08:00:00 15.46667 C 12.8 g/m*3 15.47 C 0 km/h
586 29-08-2017 09:00:00 16 C 13.22 g/m*3 16 C 0 km/h
587 29-08-2017 10:00:00 17.4 C 14.38 g/m*3 17.4 C 0 km/h
588 29-08-2017 11:00:00 19.00833 C 15.76 g/m*3 19.01 C 0 km/h
589 29-08-2017 12:00:00 21.15833 C 17.21 g/m*3 21.16 C 0 km/h
590 29-08-2017 13:00:00 23.51667 C 17.32 g/m*3 23.52 C 0 km/h
591 29-08-2017 14:00:00 25.00833 C 16.89 g/m*3 25.01 C 0 km/h
592 29-08-2017 15:00:00 26.18333 C 15.97 g/m*3 26.18 C 0 km/h
593 29-08-2017 16:00:00 27.45833 C 16.89 g/m*3 27.46 C 0 km/h
594 29-08-2017 17:00:00 28.86667 C 18.13 g/m*3 28.87 C 0 km/h
595 29-08-2017 18:00:00 27.15 C 17.8 g/m*3 27.15 C 0 km/h
596 29-08-2017 19:00:00 24.76667 C 16.6 g/m*3 24.77 C 0 km/h
597 29-08-2017 20:00:00 22.00833 C 15.36 g/m*3 22.01 C 0 km/h
598 29-08-2017 21:00:00 20.6 C 15.11 g/m*3 20.6 C 0 km/h
599 29-08-2017 22:00:00 19.36667 C 14.75 g/m*3 19.37 C 0 km/h
600 29-08-2017 23:00:00 18.34167 C 14.26 g/m*3 18.34 C 0 km/h
Sensor: Nr:Datum:Temp:Abs-Feuchte:Windchill:Wind:
Aussen-T/F 601 30-08-2017 00:00:00 17.70833 C 13.96 g/m*3 17.71 C 0 km/h
602 30-08-2017 01:00:00 17.24167 C 13.71 g/m*3 17.24 C 0.13333 km/h
603 30-08-2017 02:00:00 16.90833 C 13.56 g/m*3 16.91 C 0 km/h
604 30-08-2017 03:00:00 16.50833 C 13.35 g/m*3 16.51 C 0 km/h
605 30-08-2017 04:00:00 16.15833 C 13.1 g/m*3 16.16 C 0 km/h
606 30-08-2017 05:00:00 15.80833 C 12.91 g/m*3 15.81 C 0 km/h
607 30-08-2017 06:00:00 15.60833 C 12.77 g/m*3 15.61 C 0 km/h
608 30-08-2017 07:00:00 15.65 C 12.83 g/m*3 15.65 C 0 km/h
609 30-08-2017 08:00:00 16.75833 C 13.83 g/m*3 16.76 C 0 km/h
610 30-08-2017 09:00:00 18.03333 C 14.93 g/m*3 18.03 C 0 km/h
611 30-08-2017 10:00:00 19.625 C 16.29 g/m*3 19.63 C 0 km/h
612 30-08-2017 11:00:00 21.84167 C 17.81 g/m*3 21.84 C 0 km/h
613 30-08-2017 12:00:00 23.65 C 18.7 g/m*3 23.65 C 0 km/h
614 30-08-2017 13:00:00 25.525 C 19.93 g/m*3 25.53 C 0 km/h
615 30-08-2017 14:00:00 26.44167 C 19.42 g/m*3 26.44 C 4.16667 km/h
616 30-08-2017 15:00:00 27.29167 C 19.16 g/m*3 27.29 C 5.23333 km/h
617 30-08-2017 16:00:00 25.55 C 19.37 g/m*3 25.55 C 0 km/h
618 30-08-2017 17:00:00 24.76667 C 18.78 g/m*3 24.77 C 0 km/h
619 30-08-2017 18:00:00 23.60833 C 17.82 g/m*3 23.61 C 0 km/h
620 30-08-2017 19:00:00 22.775 C 17.21 g/m*3 22.78 C 0 km/h
621 30-08-2017 20:00:00 21.95 C 16.48 g/m*3 21.95 C 0 km/h
622 30-08-2017 21:00:00 21.56667 C 16.17 g/m*3 21.57 C 0.53333 km/h
623 30-08-2017 22:00:00 21.775 C 16.2 g/m*3 21.78 C 0.94167 km/h
624 30-08-2017 23:00:00 21.36667 C 16.09 g/m*3 21.37 C 0 km/h
625 31-08-2017 00:00:00 20.7 C 15.86 g/m*3 20.7 C 0 km/h
Sensor: Nr:Datum:Temp:Abs-Feuchte:Windchill:Wind:
Aussen-T/F 626 31-08-2017 01:00:00 20.11667 C 15.4 g/m*3 20.12 C 0 km/h
627 31-08-2017 02:00:00 20.125 C 15.29 g/m*3 20.13 C 0 km/h
628 31-08-2017 03:00:00 19.94167 C 15.13 g/m*3 19.94 C 0 km/h
629 31-08-2017 04:00:00 19.8 C 14.97 g/m*3 19.8 C 0 km/h
630 31-08-2017 05:00:00 19.5 C 14.87 g/m*3 19.5 C 0 km/h
631 31-08-2017 06:00:00 19.25 C 14.9 g/m*3 19.25 C 0 km/h
632 31-08-2017 07:00:00 17.65833 C 13.13 g/m*3 17.66 C 10.33333 km/h
633 31-08-2017 08:00:00 15.56667 C 12.44 g/m*3 15.57 C 1.35 km/h
634 31-08-2017 09:00:00 15.15 C 12.24 g/m*3 15.15 C 2.825 km/h
635 31-08-2017 10:00:00 15.24167 C 12.28 g/m*3 15.24 C 2.94167 km/h
636 31-08-2017 11:00:00 16.15833 C 12.35 g/m*3 16.16 C 8.875 km/h
637 31-08-2017 12:00:00 17.025 C 12.28 g/m*3 17.02 C 11.55 km/h
638 31-08-2017 13:00:00 17.73333 C 12.09 g/m*3 17.73 C 9.65833 km/h
639 31-08-2017 14:00:00 17.23333 C 11.87 g/m*3 17.23 C 7.525 km/h
640 31-08-2017 15:00:00 16.11667 C 11.72 g/m*3 16.12 C 5.775 km/h
641 31-08-2017 16:00:00 15.96667 C 11.42 g/m*3 15.97 C 5.91667 km/h
642 31-08-2017 17:00:00 16.575 C 11.5 g/m*3 16.58 C 2.28333 km/h
643 31-08-2017 18:00:00 18.375 C 11.87 g/m*3 18.38 C 0 km/h
644 31-08-2017 19:00:00 17.10833 C 11.72 g/m*3 17.11 C 0 km/h
645 31-08-2017 20:00:00 14.76667 C 10.85 g/m*3 14.77 C 0 km/h
646 31-08-2017 21:00:00 13.51667 C 10.44 g/m*3 13.52 C 0 km/h
647 31-08-2017 22:00:00 12.80833 C 10.32 g/m*3 12.81 C 0 km/h
648 31-08-2017 23:00:00 12.33333 C 10.18 g/m*3 12.33 C 0 km/h
649 01-09-2017 00:00:00 12.125 C 10.15 g/m*3 12.13 C 0 km/h
650 01-09-2017 01:00:00 11.51667 C 9.79 g/m*3 11.52 C 0 km/h
Sensor: Nr:Datum:Temp:Abs-Feuchte:Windchill:Wind:
Aussen-T/F 651 01-09-2017 02:00:00 11.06667 C 9.55 g/m*3 11.07 C 0 km/h
652 01-09-2017 03:00:00 10.53333 C 9.23 g/m*3 10.53 C 0 km/h
653 01-09-2017 04:00:00 10.25833 C 9.15 g/m*3 10.26 C 0 km/h
654 01-09-2017 05:00:00 10.49167 C 9.31 g/m*3 10.49 C 0 km/h
655 01-09-2017 06:00:00 10.43333 C 9.27 g/m*3 10.43 C 0 km/h
656 01-09-2017 07:00:00 10.25833 C 9.17 g/m*3 10.26 C 0 km/h
657 01-09-2017 08:00:00 10.51667 C 9.4 g/m*3 10.52 C 0 km/h
658 01-09-2017 09:00:00 11.15833 C 9.81 g/m*3 11.16 C 0 km/h
659 01-09-2017 10:00:00 12.075 C 10.37 g/m*3 12.08 C 0 km/h
660 01-09-2017 11:00:00 13.30833 C 11.05 g/m*3 13.31 C 0 km/h
661 01-09-2017 12:00:00 15.61667 C 11.58 g/m*3 15.62 C 1.75 km/h
662 01-09-2017 13:00:00 17.9 C 11.46 g/m*3 17.9 C 1.06667 km/h
663 01-09-2017 14:00:00 18.7 C 12.06 g/m*3 18.7 C 2.4 km/h
664 01-09-2017 15:00:00 17.83333 C 10.27 g/m*3 17.83 C 9.41667 km/h
665 01-09-2017 16:00:00 17.85833 C 10.6 g/m*3 17.86 C 2.8 km/h
666 01-09-2017 17:00:00 18.00833 C 12.17 g/m*3 18.01 C 0 km/h
667 01-09-2017 18:00:00 18.06667 C 12.07 g/m*3 18.07 C 0.13333 km/h
668 01-09-2017 19:00:00 16.53333 C 11.61 g/m*3 16.53 C 0 km/h
669 01-09-2017 20:00:00 14.68333 C 10.88 g/m*3 14.68 C 0 km/h
670 01-09-2017 21:00:00 14.01667 C 10.66 g/m*3 14.02 C 0.13333 km/h
671 01-09-2017 22:00:00 13.24167 C 10.39 g/m*3 13.24 C 0 km/h
672 01-09-2017 23:00:00 13.23333 C 10.64 g/m*3 13.23 C 0 km/h
673 02-09-2017 00:00:00 13.25833 C 10.72 g/m*3 13.26 C 0 km/h
674 02-09-2017 01:00:00 13.05833 C 10.59 g/m*3 13.06 C 0 km/h
675 02-09-2017 02:00:00 12.70833 C 10.4 g/m*3 12.71 C 0 km/h
Sensor: Nr:Datum:Temp:Abs-Feuchte:Windchill:Wind:
Aussen-T/F 676 02-09-2017 03:00:00 12.64167 C 10.43 g/m*3 12.64 C 0 km/h
677 02-09-2017 04:00:00 12.41667 C 10.32 g/m*3 12.42 C 0 km/h
678 02-09-2017 05:00:00 12.35833 C 10.35 g/m*3 12.36 C 0 km/h
679 02-09-2017 06:00:00 12.15833 C 10.24 g/m*3 12.16 C 0 km/h
680 02-09-2017 07:00:00 12.43333 C 10.5 g/m*3 12.43 C 0 km/h
681 02-09-2017 08:00:00 12.75 C 10.72 g/m*3 12.75 C 0 km/h
682 02-09-2017 09:00:00 13.20833 C 11.03 g/m*3 13.21 C 0 km/h
683 02-09-2017 10:00:00 14.125 C 11.36 g/m*3 14.13 C 0 km/h
684 02-09-2017 11:00:00 15.525 C 11.46 g/m*3 15.53 C 0 km/h
685 02-09-2017 12:00:00 16.55833 C 11.25 g/m*3 16.56 C 2.13333 km/h
686 02-09-2017 13:00:00 17.33333 C 11.01 g/m*3 17.33 C 3.35833 km/h
687 02-09-2017 14:00:00 17.75833 C 11.18 g/m*3 17.76 C 7.66667 km/h
688 02-09-2017 15:00:00 17.61667 C 10.71 g/m*3 17.62 C 8.58333 km/h
689 02-09-2017 16:00:00 16.35833 C 11.45 g/m*3 16.36 C 3.35833 km/h
690 02-09-2017 17:00:00 15.16667 C 11.57 g/m*3 15.17 C 0.26667 km/h
691 02-09-2017 18:00:00 16.375 C 12.19 g/m*3 16.38 C 0 km/h
692 02-09-2017 19:00:00 15.7 C 11.9 g/m*3 15.7 C 0 km/h
693 02-09-2017 20:00:00 14.05 C 11.08 g/m*3 14.05 C 0 km/h
694 02-09-2017 21:00:00 13.44167 C 10.86 g/m*3 13.44 C 0 km/h
695 02-09-2017 22:00:00 12.96667 C 10.64 g/m*3 12.97 C 0 km/h
696 02-09-2017 23:00:00 12.33333 C 10.23 g/m*3 12.33 C 0 km/h
697 03-09-2017 00:00:00 11.50833 C 9.71 g/m*3 11.51 C 0 km/h
698 03-09-2017 01:00:00 10.88333 C 9.4 g/m*3 10.88 C 0 km/h
699 03-09-2017 02:00:00 10.49167 C 9.23 g/m*3 10.49 C 0 km/h
700 03-09-2017 03:00:00 9.91667 C 8.89 g/m*3 9.92 C 0 km/h
Sensor: Nr:Datum:Temp:Abs-Feuchte:Windchill:Wind:
Aussen-T/F 701 03-09-2017 04:00:00 9.99167 C 9.02 g/m*3 9.99 C 0 km/h
702 03-09-2017 05:00:00 10.31667 C 9.2 g/m*3 10.32 C 0 km/h
703 03-09-2017 06:00:00 9.99167 C 9.02 g/m*3 9.99 C 0 km/h
704 03-09-2017 07:00:00 9.925 C 8.98 g/m*3 9.93 C 0 km/h
705 03-09-2017 08:00:00 9.99167 C 9.02 g/m*3 9.99 C 0 km/h
706 03-09-2017 09:00:00 10.29167 C 9.19 g/m*3 10.29 C 0 km/h
707 03-09-2017 10:00:00 11.19167 C 9.68 g/m*3 11.19 C 0 km/h
708 03-09-2017 11:00:00 12.70833 C 10.36 g/m*3 12.71 C 0 km/h
709 03-09-2017 12:00:00 13.74167 C 10.72 g/m*3 13.74 C 0 km/h
710 03-09-2017 13:00:00 15.225 C 11.05 g/m*3 15.23 C 0 km/h
711 03-09-2017 14:00:00 16.91667 C 10.81 g/m*3 16.92 C 0 km/h
712 03-09-2017 15:00:00 17.61667 C 10.76 g/m*3 17.62 C 0 km/h
713 03-09-2017 16:00:00 19.89167 C 11.26 g/m*3 19.89 C 1.475 km/h
714 03-09-2017 17:00:00 21.40833 C 11.97 g/m*3 21.41 C 0.53333 km/h
715 03-09-2017 18:00:00 17.98333 C 11.84 g/m*3 17.98 C 0 km/h
716 03-09-2017 19:00:00 15.50833 C 11.02 g/m*3 15.51 C 0 km/h
717 03-09-2017 20:00:00 14.64167 C 10.62 g/m*3 14.64 C 0 km/h
718 03-09-2017 21:00:00 13.43333 C 10.11 g/m*3 13.43 C 0 km/h
719 03-09-2017 22:00:00 12.23333 C 9.58 g/m*3 12.23 C 0 km/h
720 03-09-2017 23:00:00 11.53333 C 9.43 g/m*3 11.53 C 0 km/h
721 04-09-2017 00:00:00 10.95 C 9.23 g/m*3 10.95 C 0 km/h
722 04-09-2017 01:00:00 10.375 C 8.99 g/m*3 10.38 C 0 km/h
723 04-09-2017 02:00:00 9.99167 C 8.87 g/m*3 9.99 C 0 km/h
724 04-09-2017 03:00:00 9.50833 C 8.65 g/m*3 9.51 C 0 km/h
725 04-09-2017 04:00:00 9.18333 C 8.5 g/m*3 9.18 C 0 km/h
Sensor: Nr:Datum:Temp:Abs-Feuchte:Windchill:Wind:
Aussen-T/F 726 04-09-2017 05:00:00 9.4 C 8.68 g/m*3 9.4 C 0 km/h
727 04-09-2017 06:00:00 9.65 C 8.82 g/m*3 9.65 C 0 km/h
728 04-09-2017 07:00:00 9.78333 C 8.9 g/m*3 9.78 C 0 km/h
729 04-09-2017 08:00:00 10.025 C 9.11 g/m*3 10.03 C 0 km/h
730 04-09-2017 09:00:00 10.55833 C 9.44 g/m*3 10.56 C 0 km/h
731 04-09-2017 10:00:00 11.50833 C 10 g/m*3 11.51 C 0 km/h
732 04-09-2017 11:00:00 13.44167 C 11.17 g/m*3 13.44 C 0 km/h
733 04-09-2017 12:00:00 16.19167 C 11.98 g/m*3 16.19 C 0 km/h
734 04-09-2017 13:00:00 18.41667 C 12.45 g/m*3 18.42 C 0 km/h
735 04-09-2017 14:00:00 19.00833 C 12.04 g/m*3 19.01 C 0 km/h
736 04-09-2017 15:00:00 18.94167 C 13.3 g/m*3 18.94 C 0 km/h
737 04-09-2017 16:00:00 19.26667 C 13.45 g/m*3 19.27 C 0 km/h
738 04-09-2017 17:00:00 18.44167 C 12.97 g/m*3 18.44 C 0 km/h
739 04-09-2017 18:00:00 17.21667 C 12.34 g/m*3 17.22 C 0 km/h
740 04-09-2017 19:00:00 16.05833 C 11.86 g/m*3 16.06 C 0 km/h
741 04-09-2017 20:00:00 15.825 C 11.96 g/m*3 15.83 C 0 km/h
742 04-09-2017 21:00:00 15.575 C 11.92 g/m*3 15.58 C 0 km/h
743 04-09-2017 22:00:00 15.38333 C 11.83 g/m*3 15.38 C 0 km/h
744 04-09-2017 23:00:00 15.35 C 11.92 g/m*3 15.35 C 0 km/h
745 05-09-2017 00:00:00 15.36667 C 12.01 g/m*3 15.37 C 0 km/h
746 05-09-2017 01:00:00 15.225 C 12.11 g/m*3 15.23 C 0 km/h
747 05-09-2017 02:00:00 15.1 C 12.16 g/m*3 15.1 C 0 km/h
748 05-09-2017 03:00:00 14.90833 C 12.11 g/m*3 14.91 C 0 km/h
749 05-09-2017 04:00:00 14.8 C 12.09 g/m*3 14.8 C 0 km/h
750 05-09-2017 05:00:00 14.425 C 11.84 g/m*3 14.43 C 0 km/h
Sensor: Nr:Datum:Temp:Abs-Feuchte:Windchill:Wind:
Aussen-T/F 751 05-09-2017 06:00:00 13.81667 C 11.39 g/m*3 13.82 C 0 km/h
752 05-09-2017 07:00:00 14.09167 C 11.64 g/m*3 14.09 C 0 km/h
753 05-09-2017 08:00:00 14.975 C 12.42 g/m*3 14.98 C 0 km/h
754 05-09-2017 09:00:00 15.48333 C 12.75 g/m*3 15.48 C 0 km/h
755 05-09-2017 10:00:00 16.25 C 13.38 g/m*3 16.25 C 0 km/h
756 05-09-2017 11:00:00 17.89167 C 14.6 g/m*3 17.89 C 0 km/h
757 05-09-2017 12:00:00 18.7 C 14.72 g/m*3 18.7 C 0 km/h
758 05-09-2017 13:00:00 20.425 C 15.86 g/m*3 20.43 C 0 km/h
759 05-09-2017 14:00:00 22.225 C 15.7 g/m*3 22.23 C 8.60833 km/h
760 05-09-2017 15:00:00 23.70833 C 15.39 g/m*3 23.71 C 9.81667 km/h
761 05-09-2017 16:00:00 23.9 C 16.41 g/m*3 23.9 C 3.075 km/h
762 05-09-2017 17:00:00 22.45833 C 16.07 g/m*3 22.46 C 1.2 km/h
763 05-09-2017 18:00:00 20.60833 C 15.27 g/m*3 20.61 C 0.13333 km/h
764 05-09-2017 19:00:00 19.90833 C 14.95 g/m*3 19.91 C 0 km/h
765 05-09-2017 20:00:00 19.28333 C 14.73 g/m*3 19.28 C 0 km/h
766 05-09-2017 21:00:00 18.7 C 14.5 g/m*3 18.7 C 0.13333 km/h
767 05-09-2017 22:00:00 18.4 C 14.39 g/m*3 18.4 C 0 km/h
768 05-09-2017 23:00:00 17.83333 C 14 g/m*3 17.83 C 0 km/h
769 06-09-2017 00:00:00 17.38333 C 13.86 g/m*3 17.38 C 0 km/h
770 06-09-2017 01:00:00 17.525 C 14.05 g/m*3 17.52 C 0 km/h
771 06-09-2017 02:00:00 17.65833 C 14.07 g/m*3 17.66 C 0 km/h
772 06-09-2017 03:00:00 17.725 C 13.93 g/m*3 17.73 C 0 km/h
773 06-09-2017 04:00:00 17.34167 C 13.59 g/m*3 17.34 C 0 km/h
774 06-09-2017 05:00:00 16.925 C 13.34 g/m*3 16.93 C 1.2 km/h
775 06-09-2017 06:00:00 17.475 C 13.44 g/m*3 17.48 C 7.51667 km/h
Sensor: Nr:Datum:Temp:Abs-Feuchte:Windchill:Wind:
Aussen-T/F 776 06-09-2017 07:00:00 17.46667 C 13.42 g/m*3 17.47 C 4.13333 km/h
777 06-09-2017 08:00:00 17.53333 C 13.32 g/m*3 17.53 C 4.41667 km/h
778 06-09-2017 09:00:00 18.45833 C 13.35 g/m*3 18.46 C 8.73333 km/h
779 06-09-2017 10:00:00 19.46667 C 13.16 g/m*3 19.47 C 13.3 km/h
780 06-09-2017 11:00:00 17.75833 C 12.44 g/m*3 17.76 C 9.675 km/h
781 06-09-2017 12:00:00 17.98333 C 11.19 g/m*3 17.98 C 13.825 km/h
782 06-09-2017 13:00:00 18.28333 C 10.34 g/m*3 18.28 C 11.96667 km/h
783 06-09-2017 14:00:00 18.09167 C 9.81 g/m*3 18.09 C 12.5 km/h
784 06-09-2017 15:00:00 18.68333 C 9.36 g/m*3 18.68 C 14.63333 km/h
785 06-09-2017 16:00:00 18.51667 C 9.45 g/m*3 18.52 C 11.00833 km/h
786 06-09-2017 17:00:00 18.74167 C 9.05 g/m*3 18.74 C 12.9 km/h
787 06-09-2017 18:00:00 17.94167 C 9.07 g/m*3 17.94 C 15.56667 km/h
788 06-09-2017 19:00:00 16.725 C 9.31 g/m*3 16.73 C 10.75 km/h
789 06-09-2017 20:00:00 15.65833 C 9.56 g/m*3 15.66 C 5.75 km/h
790 06-09-2017 21:00:00 14.725 C 9.77 g/m*3 14.73 C 2.00833 km/h
791 06-09-2017 22:00:00 14.575 C 9.95 g/m*3 14.58 C 1.6 km/h
792 06-09-2017 23:00:00 14.09167 C 10.02 g/m*3 14.09 C 0.13333 km/h
793 07-09-2017 00:00:00 12.975 C 9.68 g/m*3 12.98 C 0.4 km/h
794 07-09-2017 01:00:00 13.14167 C 9.86 g/m*3 13.14 C 3.86667 km/h
795 07-09-2017 02:00:00 13.35 C 10.01 g/m*3 13.35 C 2.40833 km/h
796 07-09-2017 03:00:00 13.09167 C 10.09 g/m*3 13.09 C 0.4 km/h
797 07-09-2017 04:00:00 13.11667 C 10.06 g/m*3 13.12 C 1.86667 km/h
798 07-09-2017 05:00:00 13.31667 C 10.13 g/m*3 13.32 C 2.4 km/h
799 07-09-2017 06:00:00 13.60833 C 10.25 g/m*3 13.61 C 3.2 km/h
800 07-09-2017 07:00:00 13.475 C 10.29 g/m*3 13.48 C 1.46667 km/h
Sensor: Nr:Datum:Temp:Abs-Feuchte:Windchill:Wind:
Aussen-T/F 801 07-09-2017 08:00:00 13.83333 C 10.36 g/m*3 13.83 C 4.94167 km/h
802 07-09-2017 09:00:00 14.65 C 10.62 g/m*3 14.65 C 8.86667 km/h
803 07-09-2017 10:00:00 15.575 C 10.89 g/m*3 15.58 C 7.25 km/h
804 07-09-2017 11:00:00 16.11667 C 11.02 g/m*3 16.12 C 6.7 km/h
805 07-09-2017 12:00:00 16.99167 C 11.15 g/m*3 16.99 C 7.65 km/h
806 07-09-2017 13:00:00 16.85833 C 11.25 g/m*3 16.86 C 2.69167 km/h
807 07-09-2017 14:00:00 17.28333 C 11.31 g/m*3 17.28 C 4.30833 km/h
808 07-09-2017 15:00:00 18.825 C 10.63 g/m*3 18.83 C 8.73333 km/h
809 07-09-2017 16:00:00 18.09167 C 10.73 g/m*3 18.09 C 8.06667 km/h
810 07-09-2017 17:00:00 18.10833 C 10.96 g/m*3 18.11 C 6.16667 km/h
811 07-09-2017 18:00:00 16.86667 C 10.87 g/m*3 16.87 C 3.61667 km/h
812 07-09-2017 19:00:00 16.4 C 10.85 g/m*3 16.4 C 2.4 km/h
813 07-09-2017 20:00:00 16.1 C 10.66 g/m*3 16.1 C 6.16667 km/h
814 07-09-2017 21:00:00 15.96667 C 10.47 g/m*3 15.97 C 6.84167 km/h
815 07-09-2017 22:00:00 15.79167 C 10.52 g/m*3 15.79 C 6.56667 km/h
816 07-09-2017 23:00:00 15.7 C 10.6 g/m*3 15.7 C 6.83333 km/h
817 08-09-2017 00:00:00 15.31667 C 10.66 g/m*3 15.32 C 2.13333 km/h
818 08-09-2017 01:00:00 14.33333 C 10.44 g/m*3 14.33 C 0.53333 km/h
819 08-09-2017 02:00:00 14.29167 C 10.39 g/m*3 14.29 C 2.8 km/h
820 08-09-2017 03:00:00 13.725 C 10.14 g/m*3 13.73 C 0 km/h
821 08-09-2017 04:00:00 13.55 C 10.17 g/m*3 13.55 C 2.80833 km/h
822 08-09-2017 05:00:00 13.68333 C 10.05 g/m*3 13.68 C 3.875 km/h
823 08-09-2017 06:00:00 13.74167 C 10.01 g/m*3 13.74 C 4.84167 km/h
824 08-09-2017 07:00:00 13.51667 C 9.97 g/m*3 13.52 C 1.60833 km/h
825 08-09-2017 08:00:00 14.1 C 10.15 g/m*3 14.1 C 4.14167 km/h
Sensor: Nr:Datum:Temp:Abs-Feuchte:Windchill:Wind:
Aussen-T/F 826 08-09-2017 09:00:00 15.35833 C 10.39 g/m*3 15.36 C 13.81667 km/h
827 08-09-2017 10:00:00 15.96667 C 10.57 g/m*3 15.97 C 14.9 km/h
828 08-09-2017 11:00:00 16.825 C 10.87 g/m*3 16.83 C 10.75 km/h
829 08-09-2017 12:00:00 17.49167 C 11.15 g/m*3 17.49 C 11.15833 km/h
830 08-09-2017 13:00:00 17.25833 C 11.22 g/m*3 17.26 C 9.13333 km/h
831 08-09-2017 14:00:00 17.99167 C 11.46 g/m*3 17.99 C 10.475 km/h
832 08-09-2017 15:00:00 18.325 C 11.59 g/m*3 18.33 C 12.9 km/h
833 08-09-2017 16:00:00 17.55 C 11.6 g/m*3 17.55 C 11.55833 km/h
834 08-09-2017 17:00:00 17.375 C 11.73 g/m*3 17.38 C 9.40833 km/h
835 08-09-2017 18:00:00 17.50833 C 11.85 g/m*3 17.51 C 6.73333 km/h
836 08-09-2017 19:00:00 17.05833 C 11.68 g/m*3 17.06 C 4.68333 km/h
837 08-09-2017 20:00:00 16.71667 C 11.56 g/m*3 16.72 C 5.35833 km/h
838 08-09-2017 21:00:00 16.63333 C 11.68 g/m*3 16.63 C 3.20833 km/h
839 08-09-2017 22:00:00 16.25833 C 11.58 g/m*3 16.26 C 2.53333 km/h
840 08-09-2017 23:00:00 16.775 C 11.55 g/m*3 16.77 C 4.81667 km/h
841 09-09-2017 00:00:00 16.58333 C 11.76 g/m*3 16.58 C 3.20833 km/h
842 09-09-2017 01:00:00 15.53333 C 11.91 g/m*3 15.53 C 0.13333 km/h
843 09-09-2017 02:00:00 14.85 C 11.85 g/m*3 14.85 C 0 km/h
844 09-09-2017 03:00:00 14.49167 C 11.72 g/m*3 14.49 C 0.13333 km/h
845 09-09-2017 04:00:00 14.30833 C 11.68 g/m*3 14.31 C 0 km/h
846 09-09-2017 05:00:00 14.28333 C 11.77 g/m*3 14.28 C 0.66667 km/h
847 09-09-2017 06:00:00 14.20833 C 11.73 g/m*3 14.21 C 0.26667 km/h
848 09-09-2017 07:00:00 14.2 C 11.72 g/m*3 14.2 C 1.6 km/h
849 09-09-2017 08:00:00 13.98333 C 11.57 g/m*3 13.98 C 8.31667 km/h
850 09-09-2017 09:00:00 13.95833 C 11.55 g/m*3 13.96 C 8.45833 km/h
Sensor: Nr:Datum:Temp:Abs-Feuchte:Windchill:Wind:
Aussen-T/F 851 09-09-2017 10:00:00 14.05833 C 11.6 g/m*3 14.06 C 6.44167 km/h
852 09-09-2017 11:00:00 14.46667 C 11.64 g/m*3 14.47 C 8.18333 km/h
853 09-09-2017 12:00:00 15.275 C 11.76 g/m*3 15.28 C 11.55 km/h
854 09-09-2017 13:00:00 16.34167 C 11.87 g/m*3 16.34 C 10.75 km/h
855 09-09-2017 14:00:00 16.35 C 11.9 g/m*3 16.35 C 11.43333 km/h
856 09-09-2017 15:00:00 16.33333 C 12.16 g/m*3 16.33 C 8.70833 km/h
857 09-09-2017 16:00:00 17.21667 C 12.17 g/m*3 17.22 C 8.33333 km/h
858 09-09-2017 17:00:00 17.54167 C 12.19 g/m*3 17.54 C 7.66667 km/h
859 09-09-2017 18:00:00 15.39167 C 11.28 g/m*3 15.39 C 4.55 km/h
860 09-09-2017 19:00:00 13.225 C 10.71 g/m*3 13.23 C 0.4 km/h
861 09-09-2017 20:00:00 12.90833 C 10.67 g/m*3 12.91 C 0.53333 km/h
862 09-09-2017 21:00:00 12.41667 C 10.39 g/m*3 12.42 C 0.26667 km/h
863 09-09-2017 22:00:00 11.35833 C 9.73 g/m*3 11.36 C 0 km/h
864 09-09-2017 23:00:00 10.93333 C 9.55 g/m*3 10.93 C 0 km/h
865 10-09-2017 00:00:00 10.44167 C 9.28 g/m*3 10.44 C 0 km/h
866 10-09-2017 01:00:00 10.45 C 9.3 g/m*3 10.45 C 0.13333 km/h
867 10-09-2017 02:00:00 11.36667 C 9.94 g/m*3 11.37 C 1.6 km/h
868 10-09-2017 03:00:00 11.06667 C 9.71 g/m*3 11.07 C 0 km/h
869 10-09-2017 04:00:00 10.85833 C 9.62 g/m*3 10.86 C 0.66667 km/h
870 10-09-2017 05:00:00 11.41667 C 9.97 g/m*3 11.42 C 0.13333 km/h
871 10-09-2017 06:00:00 11.125 C 9.79 g/m*3 11.13 C 1.06667 km/h
872 10-09-2017 07:00:00 10.66667 C 9.51 g/m*3 10.67 C 0.4 km/h
873 10-09-2017 08:00:00 10.86667 C 9.63 g/m*3 10.87 C 0.13333 km/h
874 10-09-2017 09:00:00 11.31667 C 9.9 g/m*3 11.32 C 2.94167 km/h
875 10-09-2017 10:00:00 12.1 C 10.4 g/m*3 12.1 C 3.60833 km/h
Sensor: Nr:Datum:Temp:Abs-Feuchte:Windchill:Wind:
Aussen-T/F 876 10-09-2017 11:00:00 13.54167 C 10.98 g/m*3 13.54 C 3.33333 km/h
877 10-09-2017 12:00:00 14.79167 C 10.81 g/m*3 14.79 C 7.50833 km/h
878 10-09-2017 13:00:00 14.91667 C 10.39 g/m*3 14.92 C 12.89167 km/h
879 10-09-2017 14:00:00 14.93333 C 10.14 g/m*3 14.93 C 15.7 km/h
880 10-09-2017 15:00:00 15.70833 C 10.04 g/m*3 15.71 C 15.7 km/h
881 10-09-2017 16:00:00 17.04167 C 10.5 g/m*3 17.04 C 9.00833 km/h
882 10-09-2017 17:00:00 18.9 C 11.35 g/m*3 18.9 C 6.175 km/h
883 10-09-2017 18:00:00 18.99167 C 11.82 g/m*3 18.99 C 1.06667 km/h
884 10-09-2017 19:00:00 16.40833 C 11.09 g/m*3 16.41 C 0.94167 km/h
885 10-09-2017 20:00:00 14.05833 C 10.62 g/m*3 14.06 C 0.8 km/h
886 10-09-2017 21:00:00 13.125 C 10.13 g/m*3 13.13 C 1.20833 km/h
887 10-09-2017 22:00:00 12.36667 C 9.66 g/m*3 12.37 C 0 km/h
888 10-09-2017 23:00:00 11.28333 C 9.37 g/m*3 11.28 C 0 km/h
889 11-09-2017 00:00:00 11.45 C 9.58 g/m*3 11.45 C 0.93333 km/h
890 11-09-2017 01:00:00 12.35833 C 9.86 g/m*3 12.36 C 2.13333 km/h
891 11-09-2017 02:00:00 13.43333 C 9.74 g/m*3 13.43 C 4.275 km/h
892 11-09-2017 03:00:00 14.11667 C 9.92 g/m*3 14.12 C 5.09167 km/h
893 11-09-2017 04:00:00 14.36667 C 10.14 g/m*3 14.37 C 5.36667 km/h
894 11-09-2017 05:00:00 14.05 C 10.29 g/m*3 14.05 C 3.34167 km/h
895 11-09-2017 06:00:00 13.63333 C 10.33 g/m*3 13.63 C 1.2 km/h
896 11-09-2017 07:00:00 13.475 C 10.5 g/m*3 13.48 C 0.93333 km/h
897 11-09-2017 08:00:00 14.06667 C 10.77 g/m*3 14.07 C 3.48333 km/h
898 11-09-2017 09:00:00 14.76667 C 11.2 g/m*3 14.77 C 5.9 km/h
899 11-09-2017 10:00:00 13.90833 C 11.08 g/m*3 13.91 C 4.025 km/h
900 11-09-2017 11:00:00 14.30833 C 11.49 g/m*3 14.31 C 4.00833 km/h
Sensor: Nr:Datum:Temp:Abs-Feuchte:Windchill:Wind:
Aussen-T/F 901 11-09-2017 12:00:00 14.30833 C 11.48 g/m*3 14.31 C 4.15833 km/h
902 11-09-2017 13:00:00 14.63333 C 11.37 g/m*3 14.63 C 9.925 km/h
903 11-09-2017 14:00:00 16.125 C 10.83 g/m*3 16.13 C 11.81667 km/h
904 11-09-2017 15:00:00 16.94167 C 10.27 g/m*3 16.94 C 13.03333 km/h
905 11-09-2017 16:00:00 16.95833 C 10.34 g/m*3 16.96 C 11.41667 km/h
906 11-09-2017 17:00:00 17.86667 C 10.87 g/m*3 17.87 C 10.9 km/h
907 11-09-2017 18:00:00 17.275 C 10.89 g/m*3 17.27 C 9.14167 km/h
908 11-09-2017 19:00:00 15.41667 C 10.72 g/m*3 15.42 C 4.29167 km/h
909 11-09-2017 20:00:00 13.31667 C 10.1 g/m*3 13.32 C 0.8 km/h
910 11-09-2017 21:00:00 12.75833 C 9.87 g/m*3 12.76 C 0.8 km/h
911 11-09-2017 22:00:00 13.125 C 10.07 g/m*3 13.13 C 3.21667 km/h
912 11-09-2017 23:00:00 13.34167 C 9.99 g/m*3 13.34 C 3.89167 km/h
913 12-09-2017 00:00:00 12.70833 C 9.85 g/m*3 12.71 C 2.14167 km/h
914 12-09-2017 01:00:00 13.425 C 9.96 g/m*3 13.43 C 4.28333 km/h
915 12-09-2017 02:00:00 13.45833 C 9.97 g/m*3 13.46 C 5.64167 km/h
916 12-09-2017 03:00:00 13.60833 C 9.93 g/m*3 13.61 C 4.69167 km/h
917 12-09-2017 04:00:00 13.64167 C 9.84 g/m*3 13.64 C 10.08333 km/h
918 12-09-2017 05:00:00 13.75833 C 9.81 g/m*3 13.76 C 9.15 km/h
919 12-09-2017 06:00:00 13.35833 C 9.83 g/m*3 13.36 C 9.93333 km/h
920 12-09-2017 07:00:00 13.525 C 9.95 g/m*3 13.53 C 8.6 km/h
921 12-09-2017 08:00:00 13.425 C 10.17 g/m*3 13.43 C 9.26667 km/h
922 12-09-2017 09:00:00 13.325 C 10.4 g/m*3 13.33 C 8.46667 km/h
923 12-09-2017 10:00:00 14.40833 C 10.61 g/m*3 14.41 C 9.25833 km/h
924 12-09-2017 11:00:00 15.39167 C 10.52 g/m*3 15.39 C 14.5 km/h
925 12-09-2017 12:00:00 16.05833 C 10.9 g/m*3 16.06 C 12.76667 km/h
Sensor: Nr:Datum:Temp:Abs-Feuchte:Windchill:Wind:
Aussen-T/F 926 12-09-2017 13:00:00 16.8 C 10.98 g/m*3 16.8 C 12.625 km/h
927 12-09-2017 14:00:00 16.93333 C 11.05 g/m*3 16.93 C 15.56667 km/h
928 12-09-2017 15:00:00 17.59167 C 11.19 g/m*3 17.59 C 10.475 km/h
929 12-09-2017 16:00:00 16.48333 C 11.47 g/m*3 16.48 C 9.275 km/h
930 12-09-2017 17:00:00 16.775 C 10.74 g/m*3 16.77 C 9.66667 km/h
931 12-09-2017 18:00:00 17.10833 C 10.84 g/m*3 17.11 C 2.80833 km/h
932 12-09-2017 19:00:00 14.04167 C 10.51 g/m*3 14.04 C 2.14167 km/h
933 12-09-2017 20:00:00 12.23333 C 10.02 g/m*3 12.23 C 0.13333 km/h
934 12-09-2017 21:00:00 11.66667 C 9.83 g/m*3 11.67 C 1.74167 km/h
935 12-09-2017 22:00:00 11.43333 C 9.77 g/m*3 11.43 C 3.20833 km/h
936 12-09-2017 23:00:00 11.48333 C 9.83 g/m*3 11.48 C 4.01667 km/h
937 13-09-2017 00:00:00 11.43333 C 9.81 g/m*3 11.43 C 1.74167 km/h
938 13-09-2017 01:00:00 11.425 C 9.82 g/m*3 11.43 C 0 km/h
939 13-09-2017 02:00:00 11.21667 C 9.72 g/m*3 11.22 C 1.06667 km/h
940 13-09-2017 03:00:00 11.65 C 9.84 g/m*3 11.65 C 4.40833 km/h
941 13-09-2017 04:00:00 12.46667 C 9.81 g/m*3 12.47 C 6.3 km/h
942 13-09-2017 05:00:00 13.5 C 9.77 g/m*3 13.5 C 17.16667 km/h
943 13-09-2017 06:00:00 12.94167 C 9.96 g/m*3 12.94 C 9.95 km/h
944 13-09-2017 07:00:00 12.78333 C 10.2 g/m*3 12.78 C 4.675 km/h
945 13-09-2017 08:00:00 13.35 C 10.74 g/m*3 13.35 C 7.39167 km/h
946 13-09-2017 09:00:00 14.41667 C 11.35 g/m*3 14.42 C 13.43333 km/h
947 13-09-2017 10:00:00 15.49167 C 11.99 g/m*3 15.49 C 11.55 km/h
948 13-09-2017 11:00:00 15.58333 C 12.52 g/m*3 15.58 C 6.03333 km/h
949 13-09-2017 12:00:00 16.25833 C 12.8 g/m*3 16.26 C 11.28333 km/h
950 13-09-2017 13:00:00 17.04167 C 11.63 g/m*3 17.04 C 16.1 km/h
Sensor: Nr:Datum:Temp:Abs-Feuchte:Windchill:Wind:
Aussen-T/F 951 13-09-2017 14:00:00 16.81667 C 11.08 g/m*3 16.82 C 17.96667 km/h
952 13-09-2017 15:00:00 18.2 C 11.57 g/m*3 18.2 C 13.425 km/h
953 13-09-2017 16:00:00 18.6 C 11.51 g/m*3 18.6 C 13.425 km/h
954 13-09-2017 17:00:00 17.99167 C 10.77 g/m*3 17.99 C 9.26667 km/h
955 13-09-2017 18:00:00 16.76667 C 10.57 g/m*3 16.77 C 12.48333 km/h
956 13-09-2017 19:00:00 15.35833 C 10.87 g/m*3 15.36 C 6.05 km/h
957 13-09-2017 20:00:00 14.075 C 11.03 g/m*3 14.08 C 1.86667 km/h
958 13-09-2017 21:00:00 13.44167 C 10.91 g/m*3 13.44 C 4.01667 km/h
959 13-09-2017 22:00:00 12.95833 C 10.74 g/m*3 12.96 C 4.00833 km/h
960 13-09-2017 23:00:00 12.79167 C 10.69 g/m*3 12.79 C 3.48333 km/h
961 14-09-2017 00:00:00 12.71667 C 10.7 g/m*3 12.72 C 4.83333 km/h
962 14-09-2017 01:00:00 12.61667 C 10.63 g/m*3 12.62 C 1.06667 km/h
963 14-09-2017 02:00:00 12.49167 C 10.55 g/m*3 12.49 C 0.53333 km/h
964 14-09-2017 03:00:00 12.125 C 10.31 g/m*3 12.13 C 2.66667 km/h
965 14-09-2017 04:00:00 11.86667 C 10.15 g/m*3 11.87 C 5.35 km/h
966 14-09-2017 05:00:00 11.65833 C 10.02 g/m*3 11.66 C 5.49167 km/h
967 14-09-2017 06:00:00 11.525 C 9.93 g/m*3 11.53 C 5.225 km/h
968 14-09-2017 07:00:00 11.48333 C 9.91 g/m*3 11.48 C 3.2 km/h
969 14-09-2017 08:00:00 11.56667 C 9.96 g/m*3 11.57 C 4.14167 km/h
970 14-09-2017 09:00:00 11.63333 C 9.97 g/m*3 11.63 C 9.675 km/h
971 14-09-2017 10:00:00 11.91667 C 10 g/m*3 11.92 C 7.65 km/h
972 14-09-2017 11:00:00 12.49167 C 9.88 g/m*3 12.49 C 10.20833 km/h
973 14-09-2017 12:00:00 13.34167 C 9.62 g/m*3 13.34 C 13.425 km/h
974 14-09-2017 13:00:00 13.89167 C 9.76 g/m*3 13.89 C 13.425 km/h
975 14-09-2017 14:00:00 13.075 C 9.81 g/m*3 13.08 C 12.20833 km/h
Sensor: Nr:Datum:Temp:Abs-Feuchte:Windchill:Wind:
Aussen-T/F 976 14-09-2017 15:00:00 11.75 C 9.68 g/m*3 11.75 C 14.36667 km/h
977 14-09-2017 16:00:00 13.05 C 9.73 g/m*3 13.05 C 14.49167 km/h
978 14-09-2017 17:00:00 12.91667 C 9.25 g/m*3 12.92 C 19.85 km/h
979 14-09-2017 18:00:00 11.09167 C 8.88 g/m*3 11.09 C 13.56667 km/h
980 14-09-2017 19:00:00 11.05833 C 9.09 g/m*3 11.06 C 7.39167 km/h
981 14-09-2017 20:00:00 10.61667 C 9.06 g/m*3 9.4 C 9.79167 km/h
982 14-09-2017 21:00:00 10.825 C 9.28 g/m*3 10.19 C 6.98333 km/h
983 14-09-2017 22:00:00 10.9 C 9.43 g/m*3 10.9 C 4.275 km/h
984 14-09-2017 23:00:00 10.95833 C 9.58 g/m*3 10.96 C 3.60833 km/h
985 15-09-2017 00:00:00 11.01667 C 9.62 g/m*3 11.02 C 4.94167 km/h
986 15-09-2017 01:00:00 10.625 C 9.3 g/m*3 10.63 C 2.40833 km/h
987 15-09-2017 02:00:00 10.41667 C 9.26 g/m*3 10.42 C 4.275 km/h
988 15-09-2017 03:00:00 10.70833 C 9.43 g/m*3 10.71 C 3.475 km/h
989 15-09-2017 04:00:00 10.70833 C 9.37 g/m*3 10.71 C 2.53333 km/h
990 15-09-2017 05:00:00 10.73333 C 9.42 g/m*3 10.73 C 1.73333 km/h
991 15-09-2017 06:00:00 10.025 C 8.94 g/m*3 10.03 C 0.66667 km/h
992 15-09-2017 07:00:00 9.79167 C 8.86 g/m*3 9.79 C 0 km/h
993 15-09-2017 08:00:00 10.56667 C 9.35 g/m*3 10.57 C 0 km/h
994 15-09-2017 09:00:00 11.41667 C 9.86 g/m*3 11.42 C 1.86667 km/h
995 15-09-2017 10:00:00 12.85833 C 10.25 g/m*3 12.86 C 6.85 km/h
996 15-09-2017 11:00:00 13.63333 C 10.21 g/m*3 13.63 C 10.35833 km/h
997 15-09-2017 12:00:00 14.85833 C 10.32 g/m*3 14.86 C 10.75 km/h
998 15-09-2017 13:00:00 15.13333 C 9.88 g/m*3 15.13 C 11.41667 km/h
999 15-09-2017 14:00:00 15.04167 C 9.88 g/m*3 15.04 C 10.76667 km/h
1000 15-09-2017 15:00:00 15.09167 C 9.92 g/m*3 15.09 C 10.9 km/h
Sensor: Nr:Datum:Temp:Abs-Feuchte:Windchill:Wind:
Aussen-T/F 1001 15-09-2017 16:00:00 15.74167 C 9.79 g/m*3 15.74 C 9.94167 km/h
1002 15-09-2017 17:00:00 15.375 C 9.81 g/m*3 15.38 C 7.91667 km/h
1003 15-09-2017 18:00:00 16.29167 C 10.18 g/m*3 16.29 C 2.94167 km/h
1004 15-09-2017 19:00:00 14.65833 C 10.05 g/m*3 14.66 C 0 km/h
1005 15-09-2017 20:00:00 11.66667 C 9.26 g/m*3 11.67 C 0 km/h
1006 15-09-2017 21:00:00 11.06667 C 9.26 g/m*3 11.07 C 0 km/h
1007 15-09-2017 22:00:00 10.35833 C 8.84 g/m*3 10.36 C 0 km/h
1008 15-09-2017 23:00:00 9.31667 C 8.38 g/m*3 9.32 C 0 km/h
1009 16-09-2017 00:00:00 8.91667 C 8.27 g/m*3 8.92 C 0 km/h
1010 16-09-2017 01:00:00 8.11667 C 7.86 g/m*3 8.12 C 0.13333 km/h
1011 16-09-2017 02:00:00 7.63333 C 7.67 g/m*3 7.63 C 0.13333 km/h
1012 16-09-2017 03:00:00 7.15833 C 7.45 g/m*3 7.16 C 0.26667 km/h
1013 16-09-2017 04:00:00 6.93333 C 7.39 g/m*3 6.93 C 0.4 km/h
1014 16-09-2017 05:00:00 6.575 C 7.23 g/m*3 6.58 C 0 km/h
1015 16-09-2017 06:00:00 6.41667 C 7.17 g/m*3 6.42 C 0.13333 km/h
1016 16-09-2017 07:00:00 6.675 C 7.28 g/m*3 6.68 C 0.26667 km/h
1017 16-09-2017 08:00:00 7.24167 C 7.61 g/m*3 7.24 C 1.2 km/h
1018 16-09-2017 09:00:00 8.03333 C 8.02 g/m*3 8.03 C 4.13333 km/h
1019 16-09-2017 10:00:00 8.95833 C 8.44 g/m*3 8.96 C 3.60833 km/h
1020 16-09-2017 11:00:00 10.03333 C 8.91 g/m*3 10.03 C 2.8 km/h
1021 16-09-2017 12:00:00 12.05833 C 9.48 g/m*3 12.06 C 4.80833 km/h
1022 16-09-2017 13:00:00 13.85 C 9.09 g/m*3 13.85 C 10.875 km/h
1023 16-09-2017 14:00:00 14.81667 C 8.94 g/m*3 14.82 C 9 km/h
1024 16-09-2017 15:00:00 15.31667 C 9.76 g/m*3 15.32 C 3.23333 km/h
1025 16-09-2017 16:00:00 15.775 C 9.32 g/m*3 15.78 C 7.525 km/h
Sensor: Nr:Datum:Temp:Abs-Feuchte:Windchill:Wind:
Aussen-T/F 1026 16-09-2017 17:00:00 16.19167 C 9.23 g/m*3 16.19 C 8.85833 km/h
1027 16-09-2017 18:00:00 14.325 C 9.96 g/m*3 14.33 C 0.26667 km/h
1028 16-09-2017 19:00:00 13.39167 C 9.72 g/m*3 13.39 C 0 km/h
1029 16-09-2017 20:00:00 11.53333 C 9.1 g/m*3 11.53 C 0 km/h
1030 16-09-2017 21:00:00 11.05833 C 9.06 g/m*3 11.06 C 0 km/h
1031 16-09-2017 22:00:00 10.04167 C 8.58 g/m*3 10.04 C 0 km/h
1032 16-09-2017 23:00:00 8.79167 C 8.05 g/m*3 8.79 C 0 km/h
1033 17-09-2017 00:00:00 8.45 C 7.99 g/m*3 8.45 C 0 km/h
1034 17-09-2017 01:00:00 8.1 C 7.82 g/m*3 8.1 C 0 km/h
1035 17-09-2017 02:00:00 7.45 C 7.53 g/m*3 7.45 C 0 km/h
1036 17-09-2017 03:00:00 7.325 C 7.54 g/m*3 7.33 C 0 km/h
1037 17-09-2017 04:00:00 7.75 C 7.79 g/m*3 7.75 C 0 km/h
1038 17-09-2017 05:00:00 8.18333 C 8.03 g/m*3 8.18 C 0 km/h
1039 17-09-2017 06:00:00 8.09167 C 7.98 g/m*3 8.09 C 0 km/h
1040 17-09-2017 07:00:00 7.925 C 7.9 g/m*3 7.93 C 0 km/h
1041 17-09-2017 08:00:00 8.425 C 8.17 g/m*3 8.43 C 0 km/h
1042 17-09-2017 09:00:00 9.05 C 8.57 g/m*3 9.05 C 0.26667 km/h
1043 17-09-2017 10:00:00 10.20833 C 9.24 g/m*3 10.21 C 0.13333 km/h
1044 17-09-2017 11:00:00 11.06667 C 9.75 g/m*3 11.07 C 0.13333 km/h
1045 17-09-2017 12:00:00 11.5 C 10.02 g/m*3 11.5 C 0 km/h
1046 17-09-2017 13:00:00 12.35833 C 10.57 g/m*3 12.36 C 0.53333 km/h
1047 17-09-2017 14:00:00 12.75833 C 10.71 g/m*3 12.76 C 0.53333 km/h
1048 17-09-2017 15:00:00 12.275 C 10.26 g/m*3 12.28 C 0.66667 km/h
1049 17-09-2017 16:00:00 13.20833 C 10.69 g/m*3 13.21 C 0 km/h
1050 17-09-2017 17:00:00 13.20833 C 10.48 g/m*3 13.21 C 0.13333 km/h
Sensor: Nr:Datum:Temp:Abs-Feuchte:Windchill:Wind:
Aussen-T/F 1051 17-09-2017 18:00:00 13.275 C 10.29 g/m*3 13.28 C 0 km/h
1052 17-09-2017 19:00:00 11.6 C 9.64 g/m*3 11.6 C 1.2 km/h
1053 17-09-2017 20:00:00 10.35833 C 9.05 g/m*3 10.36 C 0.53333 km/h
1054 17-09-2017 21:00:00 9.625 C 8.72 g/m*3 9.63 C 0 km/h
1055 17-09-2017 22:00:00 8.83333 C 8.33 g/m*3 8.83 C 0 km/h
1056 17-09-2017 23:00:00 8.28333 C 8.08 g/m*3 8.28 C 0 km/h
1057 18-09-2017 00:00:00 7.79167 C 7.83 g/m*3 7.79 C 0 km/h
1058 18-09-2017 01:00:00 7.31667 C 7.6 g/m*3 7.32 C 0.26667 km/h
1059 18-09-2017 02:00:00 7.05833 C 7.47 g/m*3 7.06 C 0 km/h
1060 18-09-2017 03:00:00 6.66667 C 7.3 g/m*3 6.67 C 0 km/h
1061 18-09-2017 04:00:00 6.40833 C 7.23 g/m*3 6.41 C 0 km/h
1062 18-09-2017 05:00:00 6.5 C 7.27 g/m*3 6.5 C 0 km/h
1063 18-09-2017 06:00:00 7.38333 C 7.71 g/m*3 7.38 C 2.53333 km/h
1064 18-09-2017 07:00:00 7.91667 C 7.98 g/m*3 7.92 C 0.26667 km/h
1065 18-09-2017 08:00:00 8.71667 C 8.44 g/m*3 8.72 C 3.08333 km/h
1066 18-09-2017 09:00:00 9.425 C 8.82 g/m*3 8.35 C 7.91667 km/h
1067 18-09-2017 10:00:00 10.19167 C 9.24 g/m*3 9.68 C 6.03333 km/h
1068 18-09-2017 11:00:00 11.15 C 9.6 g/m*3 11.15 C 10.21667 km/h
1069 18-09-2017 12:00:00 11.975 C 9.61 g/m*3 11.98 C 6.31667 km/h
1070 18-09-2017 13:00:00 12.66667 C 9.85 g/m*3 12.67 C 4.41667 km/h
1071 18-09-2017 14:00:00 13.93333 C 9.93 g/m*3 13.93 C 11.00833 km/h
1072 18-09-2017 15:00:00 14.875 C 9.9 g/m*3 14.88 C 15.7 km/h
1073 18-09-2017 16:00:00 15.325 C 9.79 g/m*3 15.33 C 12.49167 km/h
1074 18-09-2017 17:00:00 15.68333 C 10.08 g/m*3 15.68 C 10.49167 km/h
1075 18-09-2017 18:00:00 16.00833 C 10.3 g/m*3 16.01 C 3.75833 km/h
Sensor: Nr:Datum:Temp:Abs-Feuchte:Windchill:Wind:
Aussen-T/F 1076 18-09-2017 19:00:00 12.84167 C 9.63 g/m*3 12.84 C 0 km/h
1077 18-09-2017 20:00:00 11.20833 C 9.19 g/m*3 11.21 C 0 km/h
1078 18-09-2017 21:00:00 10.475 C 8.93 g/m*3 10.48 C 0 km/h
1079 18-09-2017 22:00:00 10.31667 C 8.98 g/m*3 10.32 C 0 km/h
1080 18-09-2017 23:00:00 10.35 C 9.03 g/m*3 10.35 C 0 km/h
1081 19-09-2017 00:00:00 10.45 C 9.11 g/m*3 10.45 C 1.6 km/h
1082 19-09-2017 01:00:00 10.64167 C 9.09 g/m*3 10.64 C 1.73333 km/h
1083 19-09-2017 02:00:00 10.85 C 9.05 g/m*3 10.85 C 1.33333 km/h
1084 19-09-2017 03:00:00 10.80833 C 9 g/m*3 10.81 C 0.26667 km/h
1085 19-09-2017 04:00:00 10.625 C 8.99 g/m*3 10.63 C 0.13333 km/h
1086 19-09-2017 05:00:00 10.425 C 8.94 g/m*3 10.43 C 2.94167 km/h
1087 19-09-2017 06:00:00 10.4 C 8.93 g/m*3 10.4 C 1.33333 km/h
1088 19-09-2017 07:00:00 10.48333 C 9.03 g/m*3 10.48 C 0 km/h
1089 19-09-2017 08:00:00 10.825 C 9.31 g/m*3 10.83 C 1.46667 km/h
1090 19-09-2017 09:00:00 11.65 C 9.67 g/m*3 11.65 C 3.73333 km/h
1091 19-09-2017 10:00:00 12.70833 C 10 g/m*3 12.71 C 6.025 km/h
1092 19-09-2017 11:00:00 13.41667 C 10.39 g/m*3 13.42 C 4.53333 km/h
1093 19-09-2017 12:00:00 14.10833 C 10.48 g/m*3 14.11 C 2 km/h
1094 19-09-2017 13:00:00 13.80833 C 11.04 g/m*3 13.81 C 0.8 km/h
1095 19-09-2017 14:00:00 14.05833 C 11.16 g/m*3 14.06 C 2.825 km/h
1096 19-09-2017 15:00:00 13.39167 C 10.82 g/m*3 13.39 C 0.26667 km/h
1097 19-09-2017 16:00:00 13.38333 C 10.88 g/m*3 13.38 C 0.53333 km/h
1098 19-09-2017 17:00:00 13.825 C 11.3 g/m*3 13.83 C 0 km/h
1099 19-09-2017 18:00:00 14.64167 C 11.67 g/m*3 14.64 C 0 km/h
1100 19-09-2017 19:00:00 13.125 C 10.63 g/m*3 13.13 C 0 km/h
Sensor: Nr:Datum:Temp:Abs-Feuchte:Windchill:Wind:
Aussen-T/F 1101 19-09-2017 20:00:00 12.15 C 10.13 g/m*3 12.15 C 0.26667 km/h
1102 19-09-2017 21:00:00 11.05 C 9.54 g/m*3 11.05 C 0 km/h
1103 19-09-2017 22:00:00 10.29167 C 9.15 g/m*3 10.29 C 0 km/h
1104 19-09-2017 23:00:00 9.9 C 8.96 g/m*3 9.9 C 0 km/h
1105 20-09-2017 00:00:00 9.34167 C 8.65 g/m*3 9.34 C 1.73333 km/h
1106 20-09-2017 01:00:00 8.825 C 8.38 g/m*3 8.82 C 3.48333 km/h
1107 20-09-2017 02:00:00 8.74167 C 8.4 g/m*3 8.74 C 3.21667 km/h
1108 20-09-2017 03:00:00 8.76667 C 8.42 g/m*3 7.83 C 6.85 km/h
1109 20-09-2017 04:00:00 8.73333 C 8.41 g/m*3 8.73 C 1.74167 km/h
1110 20-09-2017 05:00:00 8.075 C 8.04 g/m*3 8.07 C 0 km/h
1111 20-09-2017 06:00:00 7.60833 C 7.82 g/m*3 7.61 C 0 km/h
1112 20-09-2017 07:00:00 7.91667 C 7.98 g/m*3 7.92 C 0 km/h
1113 20-09-2017 08:00:00 8.89167 C 8.49 g/m*3 8.89 C 0.93333 km/h
1114 20-09-2017 09:00:00 9.975 C 9.1 g/m*3 9.98 C 1.46667 km/h
1115 20-09-2017 10:00:00 11 C 9.71 g/m*3 11 C 2.40833 km/h
1116 20-09-2017 11:00:00 12.30833 C 10.36 g/m*3 12.31 C 4.14167 km/h
1117 20-09-2017 12:00:00 13.66667 C 10.67 g/m*3 13.67 C 4.26667 km/h
1118 20-09-2017 13:00:00 14.59167 C 10.84 g/m*3 14.59 C 3.86667 km/h
1119 20-09-2017 14:00:00 15.05833 C 10.93 g/m*3 15.06 C 1.2 km/h
1120 20-09-2017 15:00:00 15.2 C 11.47 g/m*3 15.2 C 3.49167 km/h
1121 20-09-2017 16:00:00 16.45833 C 10.97 g/m*3 16.46 C 9.81667 km/h
1122 20-09-2017 17:00:00 15.475 C 11.22 g/m*3 15.48 C 0.8 km/h
1123 20-09-2017 18:00:00 13.975 C 10.8 g/m*3 13.98 C 0.53333 km/h
1124 20-09-2017 19:00:00 13.38333 C 10.46 g/m*3 13.38 C 0.4 km/h
1125 20-09-2017 20:00:00 12.675 C 9.97 g/m*3 12.68 C 0.53333 km/h
Sensor: Nr:Datum:Temp:Abs-Feuchte:Windchill:Wind:
Aussen-T/F 1126 20-09-2017 21:00:00 11.26667 C 9.32 g/m*3 11.27 C 0 km/h
1127 20-09-2017 22:00:00 10.31667 C 8.97 g/m*3 10.32 C 0 km/h
1128 20-09-2017 23:00:00 9.39167 C 8.52 g/m*3 9.39 C 0 km/h
1129 21-09-2017 00:00:00 8.80833 C 8.27 g/m*3 8.81 C 0 km/h
1130 21-09-2017 01:00:00 8.26667 C 8 g/m*3 8.27 C 0 km/h
1131 21-09-2017 02:00:00 7.83333 C 7.84 g/m*3 7.83 C 0 km/h
1132 21-09-2017 03:00:00 7.38333 C 7.63 g/m*3 7.38 C 0 km/h
1133 21-09-2017 04:00:00 7.19167 C 7.54 g/m*3 7.19 C 0 km/h
1134 21-09-2017 05:00:00 7.425 C 7.67 g/m*3 7.43 C 0 km/h
1135 21-09-2017 06:00:00 7.3 C 7.66 g/m*3 7.3 C 0 km/h
1136 21-09-2017 07:00:00 7.21667 C 7.62 g/m*3 7.22 C 0 km/h
1137 21-09-2017 08:00:00 7.2 C 7.61 g/m*3 7.2 C 0 km/h
1138 21-09-2017 09:00:00 7.625 C 7.83 g/m*3 7.63 C 0 km/h
1139 21-09-2017 10:00:00 8.55 C 8.31 g/m*3 8.55 C 0 km/h
1140 21-09-2017 11:00:00 9.61667 C 8.9 g/m*3 9.62 C 0 km/h
1141 21-09-2017 12:00:00 11.11667 C 9.87 g/m*3 11.12 C 0 km/h
1142 21-09-2017 13:00:00 12.63333 C 10.8 g/m*3 12.63 C 0 km/h
1143 21-09-2017 14:00:00 15.26667 C 11.26 g/m*3 15.27 C 0 km/h
1144 21-09-2017 15:00:00 17.38333 C 11.14 g/m*3 17.38 C 0 km/h
1145 21-09-2017 16:00:00 17.15 C 11.27 g/m*3 17.15 C 0 km/h
1146 21-09-2017 17:00:00 16.96667 C 11.49 g/m*3 16.97 C 0 km/h
1147 21-09-2017 18:00:00 15.7 C 11.28 g/m*3 15.7 C 0 km/h
1148 21-09-2017 19:00:00 13.5 C 10.38 g/m*3 13.5 C 0 km/h
1149 21-09-2017 20:00:00 12 C 9.69 g/m*3 12 C 0 km/h
1150 21-09-2017 21:00:00 11.20833 C 9.31 g/m*3 11.21 C 0 km/h
Sensor: Nr:Datum:Temp:Abs-Feuchte:Windchill:Wind:
Aussen-T/F 1151 21-09-2017 22:00:00 10.55833 C 9.08 g/m*3 10.56 C 0 km/h
1152 21-09-2017 23:00:00 10.24167 C 8.97 g/m*3 10.24 C 0 km/h
1153 22-09-2017 00:00:00 9.5 C 8.56 g/m*3 9.5 C 0 km/h
1154 22-09-2017 01:00:00 8.75 C 8.22 g/m*3 8.75 C 0 km/h
1155 22-09-2017 02:00:00 8.36667 C 8.06 g/m*3 8.37 C 0 km/h
1156 22-09-2017 03:00:00 8.6 C 8.25 g/m*3 8.6 C 0 km/h
1157 22-09-2017 04:00:00 8.025 C 7.95 g/m*3 8.03 C 0 km/h
1158 22-09-2017 05:00:00 7.68333 C 7.78 g/m*3 7.68 C 0 km/h
1159 22-09-2017 06:00:00 7.54167 C 7.72 g/m*3 7.54 C 0 km/h
1160 22-09-2017 07:00:00 7.79167 C 7.91 g/m*3 7.79 C 0.13333 km/h
1161 22-09-2017 08:00:00 7.85 C 7.94 g/m*3 7.85 C 0 km/h
1162 22-09-2017 09:00:00 8.34167 C 8.2 g/m*3 8.34 C 0 km/h
1163 22-09-2017 10:00:00 9.09167 C 8.6 g/m*3 9.09 C 0 km/h
1164 22-09-2017 11:00:00 10.425 C 9.37 g/m*3 10.43 C 0 km/h
1165 22-09-2017 12:00:00 12.25833 C 10.5 g/m*3 12.26 C 0 km/h
1166 22-09-2017 13:00:00 14.525 C 11.72 g/m*3 14.53 C 0 km/h
1167 22-09-2017 14:00:00 16.5 C 11.69 g/m*3 16.5 C 0 km/h
1168 22-09-2017 15:00:00 16.34167 C 12.16 g/m*3 16.34 C 0 km/h
1169 22-09-2017 16:00:00 17.05 C 12.54 g/m*3 17.05 C 0 km/h
1170 22-09-2017 17:00:00 16.4 C 12.05 g/m*3 16.4 C 0 km/h
1171 22-09-2017 18:00:00 16.35 C 11.8 g/m*3 16.35 C 0 km/h
1172 22-09-2017 19:00:00 14.50833 C 10.45 g/m*3 14.51 C 0 km/h
1173 22-09-2017 20:00:00 13.1 C 10.18 g/m*3 13.1 C 0 km/h
1174 22-09-2017 21:00:00 11.78333 C 9.66 g/m*3 11.78 C 0 km/h
1175 22-09-2017 22:00:00 11.4 C 9.61 g/m*3 11.4 C 0 km/h
Sensor: Nr:Datum:Temp:Abs-Feuchte:Windchill:Wind:
Aussen-T/F 1176 22-09-2017 23:00:00 11.35833 C 9.64 g/m*3 11.36 C 0 km/h
1177 23-09-2017 00:00:00 11.14167 C 9.53 g/m*3 11.14 C 0 km/h
1178 23-09-2017 01:00:00 10.40833 C 9.19 g/m*3 10.41 C 0 km/h
1179 23-09-2017 02:00:00 10.25 C 9.14 g/m*3 10.25 C 0 km/h
1180 23-09-2017 03:00:00 10.39167 C 9.25 g/m*3 10.39 C 0.13333 km/h
1181 23-09-2017 04:00:00 10.3 C 9.19 g/m*3 10.3 C 0 km/h
1182 23-09-2017 05:00:00 10.58333 C 9.46 g/m*3 10.58 C 0 km/h
1183 23-09-2017 06:00:00 10.73333 C 9.55 g/m*3 10.73 C 0.13333 km/h
1184 23-09-2017 07:00:00 10.94167 C 9.67 g/m*3 10.94 C 0 km/h
1185 23-09-2017 08:00:00 11.31667 C 9.9 g/m*3 11.32 C 0 km/h
1186 23-09-2017 09:00:00 11.825 C 10.23 g/m*3 11.83 C 0 km/h
1187 23-09-2017 10:00:00 12.60833 C 10.65 g/m*3 12.61 C 0 km/h
1188 23-09-2017 11:00:00 14.39167 C 11.55 g/m*3 14.39 C 0.4 km/h
1189 23-09-2017 12:00:00 15.575 C 11.59 g/m*3 15.58 C 0.26667 km/h
1190 23-09-2017 13:00:00 16.69167 C 11.83 g/m*3 16.69 C 0 km/h
1191 23-09-2017 14:00:00 17.65 C 11.76 g/m*3 17.65 C 0.4 km/h
1192 23-09-2017 15:00:00 17.69167 C 11.83 g/m*3 17.69 C 0 km/h
1193 23-09-2017 16:00:00 18.3 C 11.77 g/m*3 18.3 C 0.4 km/h
1194 23-09-2017 17:00:00 19.75833 C 11.61 g/m*3 19.76 C 3.48333 km/h
1195 23-09-2017 18:00:00 18.69167 C 11.79 g/m*3 18.69 C 4.55833 km/h
1196 23-09-2017 19:00:00 16.18333 C 11.54 g/m*3 16.18 C 0.93333 km/h
1197 23-09-2017 20:00:00 14.40833 C 10.98 g/m*3 14.41 C 0 km/h
1198 23-09-2017 21:00:00 13.4 C 10.63 g/m*3 13.4 C 0 km/h
1199 23-09-2017 22:00:00 12.5 C 10.26 g/m*3 12.5 C 0 km/h
1200 23-09-2017 23:00:00 11.56667 C 9.78 g/m*3 11.57 C 0 km/h
Sensor: Nr:Datum:Temp:Abs-Feuchte:Windchill:Wind:
Aussen-T/F 1201 24-09-2017 00:00:00 11 C 9.51 g/m*3 11 C 0 km/h
1202 24-09-2017 01:00:00 10.44167 C 9.22 g/m*3 10.44 C 0 km/h
1203 24-09-2017 02:00:00 9.85833 C 8.93 g/m*3 9.86 C 0 km/h
1204 24-09-2017 03:00:00 9.46667 C 8.72 g/m*3 9.47 C 0 km/h
1205 24-09-2017 04:00:00 9.96667 C 9.06 g/m*3 9.97 C 0 km/h
1206 24-09-2017 05:00:00 10.30833 C 9.29 g/m*3 10.31 C 0 km/h
1207 24-09-2017 06:00:00 10.4 C 9.35 g/m*3 10.4 C 0.13333 km/h
1208 24-09-2017 07:00:00 10.34167 C 9.31 g/m*3 10.34 C 0 km/h
1209 24-09-2017 08:00:00 10.45 C 9.38 g/m*3 10.45 C 0 km/h
1210 24-09-2017 09:00:00 10.60833 C 9.47 g/m*3 10.61 C 0 km/h
1211 24-09-2017 10:00:00 11.13333 C 9.79 g/m*3 11.13 C 0 km/h
1212 24-09-2017 11:00:00 11.975 C 10.32 g/m*3 11.98 C 0 km/h
1213 24-09-2017 12:00:00 12.88333 C 10.89 g/m*3 12.88 C 0 km/h
1214 24-09-2017 13:00:00 14.225 C 11.37 g/m*3 14.23 C 0 km/h
1215 24-09-2017 14:00:00 15.75 C 11.82 g/m*3 15.75 C 0 km/h
1216 24-09-2017 15:00:00 17.15833 C 12.45 g/m*3 17.16 C 0 km/h
1217 24-09-2017 16:00:00 18.00833 C 12.75 g/m*3 18.01 C 0.13333 km/h
1218 24-09-2017 17:00:00 16.93333 C 12.56 g/m*3 16.93 C 0.13333 km/h
1219 24-09-2017 18:00:00 16.03333 C 12.26 g/m*3 16.03 C 0.13333 km/h
1220 24-09-2017 19:00:00 15.15 C 11.79 g/m*3 15.15 C 0 km/h
1221 24-09-2017 20:00:00 13.78333 C 10.91 g/m*3 13.78 C 0 km/h
1222 24-09-2017 21:00:00 12.675 C 10.32 g/m*3 12.68 C 0 km/h
1223 24-09-2017 22:00:00 11.66667 C 9.8 g/m*3 11.67 C 0 km/h
1224 24-09-2017 23:00:00 10.94167 C 9.47 g/m*3 10.94 C 0 km/h
1225 25-09-2017 00:00:00 10.29167 C 9.12 g/m*3 10.29 C 0 km/h
Sensor: Nr:Datum:Temp:Abs-Feuchte:Windchill:Wind:
Aussen-T/F 1226 25-09-2017 01:00:00 9.75833 C 8.88 g/m*3 9.76 C 0 km/h
1227 25-09-2017 02:00:00 9.50833 C 8.77 g/m*3 9.51 C 0 km/h
1228 25-09-2017 03:00:00 9.86667 C 8.99 g/m*3 9.87 C 0 km/h
1229 25-09-2017 04:00:00 9.85833 C 9.03 g/m*3 9.86 C 0.13333 km/h
1230 25-09-2017 05:00:00 9.8 C 9 g/m*3 9.8 C 0 km/h
1231 25-09-2017 06:00:00 9.925 C 9.07 g/m*3 9.93 C 0 km/h
1232 25-09-2017 07:00:00 10.03333 C 9.13 g/m*3 10.03 C 0 km/h
1233 25-09-2017 08:00:00 10.41667 C 9.36 g/m*3 10.42 C 0 km/h
1234 25-09-2017 09:00:00 11.38333 C 9.99 g/m*3 11.38 C 0.13333 km/h
1235 25-09-2017 10:00:00 12.525 C 10.7 g/m*3 12.53 C 1.06667 km/h
1236 25-09-2017 11:00:00 13.075 C 10.85 g/m*3 13.08 C 0.53333 km/h
1237 25-09-2017 12:00:00 13.86667 C 11.22 g/m*3 13.87 C 0.53333 km/h
1238 25-09-2017 13:00:00 15.69167 C 11.46 g/m*3 15.69 C 1.33333 km/h
1239 25-09-2017 14:00:00 15.95 C 11.89 g/m*3 15.95 C 0.26667 km/h
1240 25-09-2017 15:00:00 16.275 C 11.96 g/m*3 16.27 C 0 km/h
1241 25-09-2017 16:00:00 17.25833 C 12.14 g/m*3 17.26 C 2.8 km/h
1242 25-09-2017 17:00:00 17.11667 C 12.4 g/m*3 17.12 C 0 km/h
1243 25-09-2017 18:00:00 15.725 C 11.96 g/m*3 15.73 C 0 km/h
1244 25-09-2017 19:00:00 14.85833 C 11.56 g/m*3 14.86 C 0 km/h
1245 25-09-2017 20:00:00 14.48333 C 11.43 g/m*3 14.48 C 0 km/h
1246 25-09-2017 21:00:00 14.21667 C 11.31 g/m*3 14.22 C 0.13333 km/h
1247 25-09-2017 22:00:00 13.575 C 10.88 g/m*3 13.58 C 0 km/h
1248 25-09-2017 23:00:00 13.11667 C 10.73 g/m*3 13.12 C 0 km/h
1249 26-09-2017 00:00:00 12.44167 C 10.3 g/m*3 12.44 C 0 km/h
1250 26-09-2017 01:00:00 11.88333 C 10.05 g/m*3 11.88 C 0 km/h
Sensor: Nr:Datum:Temp:Abs-Feuchte:Windchill:Wind:
Aussen-T/F 1251 26-09-2017 02:00:00 11.275 C 9.71 g/m*3 11.28 C 0 km/h
1252 26-09-2017 03:00:00 11.275 C 9.78 g/m*3 11.28 C 0 km/h
1253 26-09-2017 04:00:00 11.2 C 9.73 g/m*3 11.2 C 0 km/h
1254 26-09-2017 05:00:00 11.14167 C 9.7 g/m*3 11.14 C 0 km/h
1255 26-09-2017 06:00:00 10.68333 C 9.42 g/m*3 10.68 C 0 km/h
1256 26-09-2017 07:00:00 10.56667 C 9.42 g/m*3 10.57 C 0 km/h
1257 26-09-2017 08:00:00 11.26667 C 9.87 g/m*3 11.27 C 0 km/h
1258 26-09-2017 09:00:00 11.73333 C 10.17 g/m*3 11.73 C 0.26667 km/h
1259 26-09-2017 10:00:00 11.96667 C 10.25 g/m*3 11.97 C 0 km/h
1260 26-09-2017 11:00:00 12.50833 C 10.51 g/m*3 12.51 C 0.53333 km/h
1261 26-09-2017 12:00:00 13.66667 C 11.11 g/m*3 13.67 C 0 km/h
1262 26-09-2017 13:00:00 15.04167 C 11.74 g/m*3 15.04 C 0.13333 km/h
1263 26-09-2017 14:00:00 17.65 C 12.12 g/m*3 17.65 C 0.53333 km/h
1264 26-09-2017 15:00:00 18.01667 C 12.13 g/m*3 18.02 C 1.06667 km/h
1265 26-09-2017 16:00:00 17.98333 C 12.65 g/m*3 17.98 C 0.26667 km/h
1266 26-09-2017 17:00:00 17.71667 C 12.99 g/m*3 17.72 C 0 km/h
1267 26-09-2017 18:00:00 17.91667 C 12.9 g/m*3 17.92 C 0 km/h
1268 26-09-2017 19:00:00 15.78333 C 11.93 g/m*3 15.78 C 0.13333 km/h
1269 26-09-2017 20:00:00 14.50833 C 11.45 g/m*3 14.51 C 0 km/h
1270 26-09-2017 21:00:00 13.825 C 11.11 g/m*3 13.83 C 0 km/h
1271 26-09-2017 22:00:00 12.75833 C 10.5 g/m*3 12.76 C 0 km/h
1272 26-09-2017 23:00:00 12.175 C 10.23 g/m*3 12.18 C 0 km/h
1273 27-09-2017 00:00:00 11.625 C 9.92 g/m*3 11.63 C 0 km/h
1274 27-09-2017 01:00:00 11.15833 C 9.68 g/m*3 11.16 C 0 km/h
1275 27-09-2017 02:00:00 10.79167 C 9.48 g/m*3 10.79 C 0 km/h
Sensor: Nr:Datum:Temp:Abs-Feuchte:Windchill:Wind:
Aussen-T/F 1276 27-09-2017 03:00:00 10.25833 C 9.19 g/m*3 10.26 C 0 km/h
1277 27-09-2017 04:00:00 10.575 C 9.43 g/m*3 10.58 C 0 km/h
1278 27-09-2017 05:00:00 10.60833 C 9.47 g/m*3 10.61 C 0 km/h
1279 27-09-2017 06:00:00 10.56667 C 9.45 g/m*3 10.57 C 0 km/h
1280 27-09-2017 07:00:00 10.49167 C 9.4 g/m*3 10.49 C 0 km/h
1281 27-09-2017 08:00:00 10.675 C 9.51 g/m*3 10.68 C 0 km/h
1282 27-09-2017 09:00:00 11.44167 C 9.98 g/m*3 11.44 C 0 km/h
1283 27-09-2017 10:00:00 11.90833 C 10.28 g/m*3 11.91 C 0 km/h
1284 27-09-2017 11:00:00 12.75833 C 10.84 g/m*3 12.76 C 0 km/h
1285 27-09-2017 12:00:00 13.525 C 11.21 g/m*3 13.53 C 0 km/h
1286 27-09-2017 13:00:00 14.575 C 11.87 g/m*3 14.58 C 0 km/h
1287 27-09-2017 14:00:00 15.70833 C 12.61 g/m*3 15.71 C 0 km/h
1288 27-09-2017 15:00:00 17.25 C 13.08 g/m*3 17.25 C 0 km/h
1289 27-09-2017 16:00:00 17.475 C 13.32 g/m*3 17.48 C 0 km/h
1290 27-09-2017 17:00:00 17.89167 C 13.52 g/m*3 17.89 C 0 km/h
1291 27-09-2017 18:00:00 18.18333 C 13.19 g/m*3 18.18 C 0 km/h
1292 27-09-2017 19:00:00 15.875 C 11.98 g/m*3 15.88 C 0 km/h
1293 27-09-2017 20:00:00 14.30833 C 11.22 g/m*3 14.31 C 0 km/h
1294 27-09-2017 21:00:00 13.04167 C 10.63 g/m*3 13.04 C 0 km/h
1295 27-09-2017 22:00:00 12.56667 C 10.48 g/m*3 12.57 C 0 km/h
1296 27-09-2017 23:00:00 12.35833 C 10.43 g/m*3 12.36 C 0 km/h
1297 28-09-2017 00:00:00 12.25833 C 10.4 g/m*3 12.26 C 0.26667 km/h
1298 28-09-2017 01:00:00 11.85 C 10.14 g/m*3 11.85 C 0 km/h
1299 28-09-2017 02:00:00 11.525 C 9.94 g/m*3 11.53 C 0 km/h
1300 28-09-2017 03:00:00 11.125 C 9.7 g/m*3 11.13 C 0 km/h
Sensor: Nr:Datum:Temp:Abs-Feuchte:Windchill:Wind:
Aussen-T/F 1301 28-09-2017 04:00:00 11.05 C 9.71 g/m*3 11.05 C 0 km/h
1302 28-09-2017 05:00:00 11.25 C 9.86 g/m*3 11.25 C 0 km/h
1303 28-09-2017 06:00:00 11.23333 C 9.85 g/m*3 11.23 C 0 km/h
1304 28-09-2017 07:00:00 11.26667 C 9.87 g/m*3 11.27 C 0 km/h
1305 28-09-2017 08:00:00 11.4 C 9.96 g/m*3 11.4 C 0 km/h
1306 28-09-2017 09:00:00 12.01667 C 10.35 g/m*3 12.02 C 0 km/h
1307 28-09-2017 10:00:00 12.83333 C 10.93 g/m*3 12.83 C 0 km/h
1308 28-09-2017 11:00:00 13.96667 C 11.69 g/m*3 13.97 C 0 km/h
1309 28-09-2017 12:00:00 15.475 C 12.59 g/m*3 15.48 C 0 km/h
1310 28-09-2017 13:00:00 17.21667 C 13.5 g/m*3 17.22 C 0 km/h
1311 28-09-2017 14:00:00 18.73333 C 14.44 g/m*3 18.73 C 0 km/h
1312 28-09-2017 15:00:00 19.40833 C 14.91 g/m*3 19.41 C 0 km/h
1313 28-09-2017 16:00:00 19.825 C 15.18 g/m*3 19.83 C 0 km/h
1314 28-09-2017 17:00:00 19.69167 C 14.99 g/m*3 19.69 C 0 km/h
1315 28-09-2017 18:00:00 18.475 C 14.1 g/m*3 18.48 C 0 km/h
1316 28-09-2017 19:00:00 17.64167 C 13.53 g/m*3 17.64 C 0 km/h
1317 28-09-2017 20:00:00 17.45 C 13.43 g/m*3 17.45 C 0 km/h
1318 28-09-2017 21:00:00 16.84167 C 13.27 g/m*3 16.84 C 0 km/h
1319 28-09-2017 22:00:00 16.43333 C 13.03 g/m*3 16.43 C 0 km/h
1320 28-09-2017 23:00:00 16.2 C 12.96 g/m*3 16.2 C 0 km/h
1321 29-09-2017 00:00:00 15.83333 C 12.75 g/m*3 15.83 C 0 km/h
1322 29-09-2017 01:00:00 15.73333 C 12.77 g/m*3 15.73 C 0 km/h
1323 29-09-2017 02:00:00 15.70833 C 12.81 g/m*3 15.71 C 0 km/h
1324 29-09-2017 03:00:00 15.675 C 12.83 g/m*3 15.68 C 0 km/h
1325 29-09-2017 04:00:00 15.625 C 12.79 g/m*3 15.63 C 0 km/h
Sensor: Nr:Datum:Temp:Abs-Feuchte:Windchill:Wind:
Aussen-T/F 1326 29-09-2017 05:00:00 15.60833 C 12.77 g/m*3 15.61 C 0 km/h
1327 29-09-2017 06:00:00 15.275 C 12.52 g/m*3 15.28 C 0 km/h
1328 29-09-2017 07:00:00 15.05833 C 12.44 g/m*3 15.06 C 0 km/h
1329 29-09-2017 08:00:00 15.425 C 12.76 g/m*3 15.43 C 0 km/h
1330 29-09-2017 09:00:00 16.06667 C 13.27 g/m*3 16.07 C 0 km/h
1331 29-09-2017 10:00:00 16.70833 C 13.66 g/m*3 16.71 C 0 km/h
1332 29-09-2017 11:00:00 17.3 C 13.95 g/m*3 17.3 C 0 km/h
1333 29-09-2017 12:00:00 18.30833 C 14.47 g/m*3 18.31 C 0 km/h
1334 29-09-2017 13:00:00 20.4 C 15.17 g/m*3 20.4 C 0.93333 km/h
1335 29-09-2017 14:00:00 21.86667 C 15.39 g/m*3 21.87 C 0.8 km/h
1336 29-09-2017 15:00:00 21.98333 C 15.45 g/m*3 21.98 C 0.93333 km/h
1337 29-09-2017 16:00:00 22.2 C 15.97 g/m*3 22.2 C 0.26667 km/h
1338 29-09-2017 17:00:00 21.25833 C 15.91 g/m*3 21.26 C 0 km/h
1339 29-09-2017 18:00:00 20.25 C 15.21 g/m*3 20.25 C 0 km/h
1340 29-09-2017 19:00:00 18.675 C 14.24 g/m*3 18.68 C 0 km/h
1341 29-09-2017 20:00:00 17.45833 C 13.67 g/m*3 17.46 C 0 km/h
1342 29-09-2017 21:00:00 17.2 C 13.53 g/m*3 17.2 C 0 km/h
1343 29-09-2017 22:00:00 17.11667 C 13.44 g/m*3 17.12 C 0.13333 km/h
1344 29-09-2017 23:00:00 16.8 C 13.3 g/m*3 16.8 C 0 km/h
1345 30-09-2017 00:00:00 16.18333 C 12.87 g/m*3 16.18 C 0 km/h
1346 30-09-2017 01:00:00 15.85 C 12.76 g/m*3 15.85 C 0 km/h
1347 30-09-2017 02:00:00 15.60833 C 12.64 g/m*3 15.61 C 0 km/h
1348 30-09-2017 03:00:00 15.1 C 12.28 g/m*3 15.1 C 0 km/h
1349 30-09-2017 04:00:00 15.23333 C 12.49 g/m*3 15.23 C 0 km/h
1350 30-09-2017 05:00:00 15.36667 C 12.59 g/m*3 15.37 C 0 km/h
Sensor: Nr:Datum:Temp:Abs-Feuchte:Windchill:Wind:
Aussen-T/F 1351 30-09-2017 06:00:00 15.325 C 12.56 g/m*3 15.33 C 0 km/h
1352 30-09-2017 07:00:00 15.2 C 12.54 g/m*3 15.2 C 0 km/h
1353 30-09-2017 08:00:00 15.26667 C 12.61 g/m*3 15.27 C 1.475 km/h
1354 30-09-2017 09:00:00 15.81667 C 13.07 g/m*3 15.82 C 0.4 km/h
1355 30-09-2017 10:00:00 16.3 C 13.41 g/m*3 16.3 C 0 km/h
1356 30-09-2017 11:00:00 17.4 C 14 g/m*3 17.4 C 0 km/h
1357 30-09-2017 12:00:00 17.64167 C 13.98 g/m*3 17.64 C 0 km/h
1358 30-09-2017 13:00:00 17.63333 C 13.85 g/m*3 17.63 C 6.29167 km/h
1359 30-09-2017 14:00:00 14.55 C 11.56 g/m*3 14.55 C 5.35 km/h
1360 30-09-2017 15:00:00 13.68333 C 11.03 g/m*3 13.68 C 6.3 km/h
1361 30-09-2017 16:00:00 13.30833 C 10.93 g/m*3 13.31 C 2 km/h
1362 30-09-2017 17:00:00 13.23333 C 11.01 g/m*3 13.23 C 0.53333 km/h
1363 30-09-2017 18:00:00 12.825 C 10.76 g/m*3 12.83 C 2.275 km/h
1364 30-09-2017 19:00:00 12.50833 C 10.56 g/m*3 12.51 C 1.06667 km/h
1365 30-09-2017 20:00:00 12.00833 C 10.24 g/m*3 12.01 C 0 km/h
1366 30-09-2017 21:00:00 11.5 C 9.92 g/m*3 11.5 C 0 km/h
1367 30-09-2017 22:00:00 11.06667 C 9.65 g/m*3 11.07 C 0 km/h
1368 30-09-2017 23:00:00 10.975 C 9.67 g/m*3 10.98 C 0 km/h
1369 01-10-2017 00:00:00 10.45833 C 9.33 g/m*3 10.46 C 0 km/h
1370 01-10-2017 01:00:00 9.78333 C 8.97 g/m*3 9.78 C 0 km/h
1371 01-10-2017 02:00:00 9.85 C 9.03 g/m*3 9.85 C 0 km/h
1372 01-10-2017 03:00:00 10.10833 C 9.18 g/m*3 10.11 C 0 km/h
1373 01-10-2017 04:00:00 9.9 C 9.06 g/m*3 9.9 C 0 km/h
1374 01-10-2017 05:00:00 8.975 C 8.52 g/m*3 8.98 C 0 km/h
1375 01-10-2017 06:00:00 7.91667 C 7.96 g/m*3 7.92 C 0 km/h
Sensor: Nr:Datum:Temp:Abs-Feuchte:Windchill:Wind:
Aussen-T/F 1376 01-10-2017 07:00:00 8.69167 C 8.38 g/m*3 8.69 C 0.13333 km/h
1377 01-10-2017 08:00:00 9.06667 C 8.59 g/m*3 9.07 C 0 km/h
1378 01-10-2017 09:00:00 10.00833 C 9.21 g/m*3 10.01 C 0.13333 km/h
1379 01-10-2017 10:00:00 10.68333 C 9.55 g/m*3 10.68 C 0.26667 km/h
1380 01-10-2017 11:00:00 11.04167 C 9.7 g/m*3 11.04 C 0.66667 km/h
1381 01-10-2017 12:00:00 11.75 C 10.06 g/m*3 11.75 C 0.8 km/h
1382 01-10-2017 13:00:00 13.05833 C 10.93 g/m*3 13.06 C 0 km/h
1383 01-10-2017 14:00:00 14.64167 C 11.83 g/m*3 14.64 C 0.13333 km/h
1384 01-10-2017 15:00:00 15.65 C 11.81 g/m*3 15.65 C 0.26667 km/h
1385 01-10-2017 16:00:00 15.55833 C 11.49 g/m*3 15.56 C 0 km/h
1386 01-10-2017 17:00:00 14.65 C 11.41 g/m*3 14.65 C 0 km/h
1387 01-10-2017 18:00:00 13.88333 C 10.93 g/m*3 13.88 C 0 km/h
1388 01-10-2017 19:00:00 12.19167 C 10.02 g/m*3 12.19 C 0 km/h
1389 01-10-2017 20:00:00 11.725 C 9.9 g/m*3 11.73 C 0 km/h
1390 01-10-2017 21:00:00 11.675 C 9.92 g/m*3 11.68 C 0 km/h
1391 01-10-2017 22:00:00 11.85 C 10.1 g/m*3 11.85 C 0 km/h
1392 01-10-2017 23:00:00 11.90833 C 10.15 g/m*3 11.91 C 0.13333 km/h
1393 02-10-2017 00:00:00 11.74167 C 9.91 g/m*3 11.74 C 0.26667 km/h
1394 02-10-2017 01:00:00 11.7 C 9.82 g/m*3 11.7 C 0 km/h
1395 02-10-2017 02:00:00 11.99167 C 9.99 g/m*3 11.99 C 0.13333 km/h
1396 02-10-2017 03:00:00 11.975 C 9.8 g/m*3 11.98 C 0.4 km/h
1397 02-10-2017 04:00:00 12.35833 C 10.04 g/m*3 12.36 C 0.13333 km/h
1398 02-10-2017 05:00:00 12.575 C 10.26 g/m*3 12.58 C 0 km/h
1399 02-10-2017 06:00:00 12.65 C 10.47 g/m*3 12.65 C 0 km/h
1400 02-10-2017 07:00:00 12.70833 C 10.65 g/m*3 12.71 C 0 km/h
Sensor: Nr:Datum:Temp:Abs-Feuchte:Windchill:Wind:
Aussen-T/F 1401 02-10-2017 08:00:00 12.93333 C 10.87 g/m*3 12.93 C 0.13333 km/h
1402 02-10-2017 09:00:00 13.44167 C 11.3 g/m*3 13.44 C 0.13333 km/h
1403 02-10-2017 10:00:00 14.14167 C 11.8 g/m*3 14.14 C 0.26667 km/h
1404 02-10-2017 11:00:00 14.61667 C 12.15 g/m*3 14.62 C 0 km/h
1405 02-10-2017 12:00:00 15.20833 C 12.6 g/m*3 15.21 C 0.4 km/h
1406 02-10-2017 13:00:00 15.94167 C 13.14 g/m*3 15.94 C 1.2 km/h
1407 02-10-2017 14:00:00 16.44167 C 13.37 g/m*3 16.44 C 1.06667 km/h
1408 02-10-2017 15:00:00 17.625 C 13.77 g/m*3 17.63 C 6.30833 km/h
1409 02-10-2017 16:00:00 17.76667 C 13.28 g/m*3 17.77 C 5.24167 km/h
1410 02-10-2017 17:00:00 16.91667 C 12.77 g/m*3 16.92 C 2.14167 km/h
1411 02-10-2017 18:00:00 16.84167 C 12.4 g/m*3 16.84 C 4.15833 km/h
1412 02-10-2017 19:00:00 15.69167 C 11.76 g/m*3 15.69 C 3.49167 km/h
1413 02-10-2017 20:00:00 15.24167 C 11.72 g/m*3 15.24 C 2.40833 km/h
1414 02-10-2017 21:00:00 15.54167 C 11.69 g/m*3 15.54 C 4.28333 km/h
1415 02-10-2017 22:00:00 15.43333 C 11.83 g/m*3 15.43 C 1.075 km/h
1416 02-10-2017 23:00:00 14.825 C 11.85 g/m*3 14.83 C 2.53333 km/h
1417 03-10-2017 00:00:00 13.30833 C 10.83 g/m*3 13.31 C 3.075 km/h
1418 03-10-2017 01:00:00 12.43333 C 10.4 g/m*3 12.43 C 0 km/h
1419 03-10-2017 02:00:00 11.80833 C 10.05 g/m*3 11.81 C 0 km/h
1420 03-10-2017 03:00:00 11.51667 C 9.93 g/m*3 11.52 C 0 km/h
1421 03-10-2017 04:00:00 11.34167 C 9.88 g/m*3 11.34 C 0.26667 km/h
1422 03-10-2017 05:00:00 11.3 C 9.89 g/m*3 11.3 C 0 km/h
1423 03-10-2017 06:00:00 11.3 C 9.89 g/m*3 11.3 C 0 km/h
1424 03-10-2017 07:00:00 11.21667 C 9.84 g/m*3 11.22 C 0 km/h
1425 03-10-2017 08:00:00 11.03333 C 9.73 g/m*3 11.03 C 0 km/h
Sensor: Nr:Datum:Temp:Abs-Feuchte:Windchill:Wind:
Aussen-T/F 1426 03-10-2017 09:00:00 11.36667 C 9.94 g/m*3 11.37 C 0 km/h
1427 03-10-2017 10:00:00 11.775 C 10.2 g/m*3 11.78 C 0.4 km/h
1428 03-10-2017 11:00:00 12.54167 C 10.42 g/m*3 12.54 C 4.025 km/h
1429 03-10-2017 12:00:00 13.95 C 10.21 g/m*3 13.95 C 8.99167 km/h
1430 03-10-2017 13:00:00 14.55833 C 9.82 g/m*3 14.56 C 11.14167 km/h
1431 03-10-2017 14:00:00 15.34167 C 9.54 g/m*3 15.34 C 11.81667 km/h
1432 03-10-2017 15:00:00 15.61667 C 9.46 g/m*3 15.62 C 11.425 km/h
1433 03-10-2017 16:00:00 15.675 C 9.39 g/m*3 15.68 C 12.23333 km/h
1434 03-10-2017 17:00:00 15.91667 C 9.64 g/m*3 15.92 C 8.325 km/h
1435 03-10-2017 18:00:00 15.08333 C 9.62 g/m*3 15.08 C 4.15833 km/h
1436 03-10-2017 19:00:00 12.19167 C 9.37 g/m*3 12.19 C 0.26667 km/h
1437 03-10-2017 20:00:00 11.01667 C 9.13 g/m*3 11.02 C 0.13333 km/h
1438 03-10-2017 21:00:00 10.54167 C 8.95 g/m*3 10.54 C 0.26667 km/h
1439 03-10-2017 22:00:00 9.86667 C 8.7 g/m*3 9.87 C 0.13333 km/h
1440 03-10-2017 23:00:00 9.20833 C 8.41 g/m*3 9.21 C 0.26667 km/h
1441 04-10-2017 00:00:00 8.94167 C 8.35 g/m*3 8.94 C 2.00833 km/h
1442 04-10-2017 01:00:00 9.025 C 8.4 g/m*3 9.03 C 3.20833 km/h
1443 04-10-2017 02:00:00 8.58333 C 8.16 g/m*3 8.58 C 3.33333 km/h
1444 04-10-2017 03:00:00 8.38333 C 8.09 g/m*3 7.8 C 5.36667 km/h
1445 04-10-2017 04:00:00 8.63333 C 8.27 g/m*3 8.63 C 4.55833 km/h
1446 04-10-2017 05:00:00 8.725 C 8.27 g/m*3 8.73 C 4.55833 km/h
1447 04-10-2017 06:00:00 8.53333 C 8.2 g/m*3 8.53 C 1.06667 km/h
1448 04-10-2017 07:00:00 8.35833 C 8.12 g/m*3 8.36 C 2.54167 km/h
1449 04-10-2017 08:00:00 8.75 C 8.33 g/m*3 8.31 C 5.075 km/h
1450 04-10-2017 09:00:00 9.525 C 8.66 g/m*3 8.52 C 7.65833 km/h
Sensor: Nr:Datum:Temp:Abs-Feuchte:Windchill:Wind:
Aussen-T/F 1451 04-10-2017 10:00:00 10.66667 C 9.01 g/m*3 9.83 C 7.8 km/h
1452 04-10-2017 11:00:00 12.08333 C 9.42 g/m*3 12.08 C 8.86667 km/h
1453 04-10-2017 12:00:00 12.89167 C 9.48 g/m*3 12.89 C 8.48333 km/h
1454 04-10-2017 13:00:00 13.83333 C 9.65 g/m*3 13.83 C 11.15 km/h
1455 04-10-2017 14:00:00 14.44167 C 9.6 g/m*3 14.44 C 11.29167 km/h
1456 04-10-2017 15:00:00 14.85 C 9.68 g/m*3 14.85 C 9.94167 km/h
1457 04-10-2017 16:00:00 14.90833 C 9.91 g/m*3 14.91 C 8.475 km/h
1458 04-10-2017 17:00:00 14.33333 C 9.68 g/m*3 14.33 C 10.06667 km/h
1459 04-10-2017 18:00:00 13.50833 C 9.6 g/m*3 13.51 C 4.69167 km/h
1460 04-10-2017 19:00:00 12.95833 C 9.41 g/m*3 12.96 C 4.01667 km/h
1461 04-10-2017 20:00:00 12.88333 C 9.45 g/m*3 12.88 C 4.55833 km/h
1462 04-10-2017 21:00:00 12.66667 C 9.53 g/m*3 12.67 C 3.20833 km/h
1463 04-10-2017 22:00:00 12.8 C 9.53 g/m*3 12.8 C 5.35833 km/h
1464 04-10-2017 23:00:00 12.79167 C 9.46 g/m*3 12.79 C 5.65 km/h
1465 05-10-2017 00:00:00 12.73333 C 9.43 g/m*3 12.73 C 4.41667 km/h
1466 05-10-2017 01:00:00 12.51667 C 9.4 g/m*3 12.52 C 2.40833 km/h
1467 05-10-2017 02:00:00 12.33333 C 9.27 g/m*3 12.33 C 4.55833 km/h
1468 05-10-2017 03:00:00 12.29167 C 9.26 g/m*3 12.29 C 8.19167 km/h
1469 05-10-2017 04:00:00 12.15 C 9.21 g/m*3 12.15 C 14.9 km/h
1470 05-10-2017 05:00:00 12.04167 C 9.09 g/m*3 12.04 C 20.91667 km/h
1471 05-10-2017 06:00:00 11.9 C 8.96 g/m*3 11.9 C 17.16667 km/h
1472 05-10-2017 07:00:00 11.825 C 8.82 g/m*3 11.83 C 17.83333 km/h
1473 05-10-2017 08:00:00 12.04167 C 8.81 g/m*3 12.04 C 20.775 km/h
1474 05-10-2017 09:00:00 12.43333 C 9.03 g/m*3 12.43 C 19.3 km/h
1475 05-10-2017 10:00:00 13.35833 C 9.46 g/m*3 13.36 C 23.59167 km/h
Sensor: Nr:Datum:Temp:Abs-Feuchte:Windchill:Wind:
Aussen-T/F 1476 05-10-2017 11:00:00 14.025 C 9.88 g/m*3 14.03 C 27.61667 km/h
1477 05-10-2017 12:00:00 14.3 C 10.26 g/m*3 14.3 C 21.84167 km/h
1478 05-10-2017 13:00:00 14.84167 C 10.64 g/m*3 14.84 C 19.30833 km/h
1479 05-10-2017 14:00:00 13.59167 C 10.55 g/m*3 13.59 C 15.175 km/h
1480 05-10-2017 15:00:00 12.75833 C 10.26 g/m*3 12.76 C 13.28333 km/h
1481 05-10-2017 16:00:00 13.65 C 10.03 g/m*3 13.65 C 15.56667 km/h
1482 05-10-2017 17:00:00 14.03333 C 9.51 g/m*3 14.03 C 14.63333 km/h
1483 05-10-2017 18:00:00 13.125 C 9.26 g/m*3 13.13 C 8.19167 km/h
1484 05-10-2017 19:00:00 10.75 C 8.85 g/m*3 10.75 C 1.6 km/h
1485 05-10-2017 20:00:00 10.23333 C 8.88 g/m*3 10.23 C 0.26667 km/h
1486 05-10-2017 21:00:00 10.13333 C 8.81 g/m*3 10.13 C 0.13333 km/h
1487 05-10-2017 22:00:00 10.15833 C 8.67 g/m*3 10.16 C 0 km/h
1488 05-10-2017 23:00:00 9.38333 C 8.18 g/m*3 9.38 C 0 km/h
1489 06-10-2017 00:00:00 8.78333 C 7.96 g/m*3 8.78 C 0 km/h
1490 06-10-2017 01:00:00 8.75 C 7.94 g/m*3 8.75 C 0 km/h
1491 06-10-2017 02:00:00 8.44167 C 7.86 g/m*3 8.44 C 0 km/h
1492 06-10-2017 03:00:00 8.55 C 7.9 g/m*3 8.55 C 0.675 km/h
1493 06-10-2017 04:00:00 8.35833 C 7.71 g/m*3 8.36 C 0 km/h
1494 06-10-2017 05:00:00 8.06667 C 7.64 g/m*3 8.07 C 0 km/h
1495 06-10-2017 06:00:00 8.16667 C 7.69 g/m*3 8.17 C 0 km/h
1496 06-10-2017 07:00:00 8.225 C 7.64 g/m*3 8.23 C 2.15833 km/h
1497 06-10-2017 08:00:00 8.80833 C 7.98 g/m*3 8.81 C 1.20833 km/h
1498 06-10-2017 09:00:00 9.15833 C 8.39 g/m*3 9.16 C 2.95 km/h
1499 06-10-2017 10:00:00 9.925 C 8.75 g/m*3 9.2 C 6.73333 km/h
1500 06-10-2017 11:00:00 10.65 C 8.97 g/m*3 10.65 C 1.475 km/h
Sensor: Nr:Datum:Temp:Abs-Feuchte:Windchill:Wind:
Aussen-T/F 1501 06-10-2017 12:00:00 11.18333 C 9.2 g/m*3 11.18 C 3.35 km/h
1502 06-10-2017 13:00:00 10.81667 C 9.09 g/m*3 10.43 C 5.90833 km/h
1503 06-10-2017 14:00:00 10.94167 C 9.47 g/m*3 10.94 C 2.00833 km/h
1504 06-10-2017 15:00:00 11.325 C 9.34 g/m*3 11.33 C 8.58333 km/h
1505 06-10-2017 16:00:00 11.64167 C 9.31 g/m*3 11.64 C 10.46667 km/h
1506 06-10-2017 17:00:00 12.00833 C 9.23 g/m*3 12.01 C 9.83333 km/h
1507 06-10-2017 18:00:00 12.39167 C 9.27 g/m*3 12.39 C 6.70833 km/h
1508 06-10-2017 19:00:00 10.75 C 8.85 g/m*3 10.75 C 2.14167 km/h
1509 06-10-2017 20:00:00 9.79167 C 8.6 g/m*3 9.79 C 1.06667 km/h
1510 06-10-2017 21:00:00 9.63333 C 8.63 g/m*3 9.63 C 0.13333 km/h
1511 06-10-2017 22:00:00 9.60833 C 8.63 g/m*3 9.61 C 0 km/h
1512 06-10-2017 23:00:00 10.05 C 8.82 g/m*3 10.05 C 0 km/h
1513 07-10-2017 00:00:00 10.1 C 8.84 g/m*3 10.1 C 0 km/h
1514 07-10-2017 01:00:00 10.08333 C 8.88 g/m*3 10.08 C 0 km/h
1515 07-10-2017 02:00:00 9.99167 C 8.83 g/m*3 9.99 C 0 km/h
1516 07-10-2017 03:00:00 9.8 C 8.72 g/m*3 9.8 C 0 km/h
1517 07-10-2017 04:00:00 9.68333 C 8.57 g/m*3 9.68 C 0 km/h
1518 07-10-2017 05:00:00 9.76667 C 8.61 g/m*3 9.77 C 0 km/h
1519 07-10-2017 06:00:00 9.625 C 8.53 g/m*3 9.63 C 0 km/h
1520 07-10-2017 07:00:00 8.89167 C 8.22 g/m*3 8.89 C 0 km/h
1521 07-10-2017 08:00:00 8.71667 C 8.2 g/m*3 8.72 C 2.14167 km/h
1522 07-10-2017 09:00:00 9.48333 C 8.36 g/m*3 8.33 C 8.33333 km/h
1523 07-10-2017 10:00:00 10.225 C 8.37 g/m*3 8.82 C 10.46667 km/h
1524 07-10-2017 11:00:00 10.66667 C 8.29 g/m*3 8.95 C 13.3 km/h
1525 07-10-2017 12:00:00 11.2 C 8.3 g/m*3 11.2 C 12.63333 km/h
Sensor: Nr:Datum:Temp:Abs-Feuchte:Windchill:Wind:
Aussen-T/F 1526 07-10-2017 13:00:00 11.45833 C 8.46 g/m*3 11.46 C 13.29167 km/h
1527 07-10-2017 14:00:00 10.99167 C 8.58 g/m*3 10.11 C 8.33333 km/h
1528 07-10-2017 15:00:00 10.25 C 8.7 g/m*3 8.99 C 9.65833 km/h
1529 07-10-2017 16:00:00 9.83333 C 8.68 g/m*3 8.54 C 9.4 km/h
1530 07-10-2017 17:00:00 10.06667 C 8.67 g/m*3 8.35 C 12.34167 km/h
1531 07-10-2017 18:00:00 10.8 C 8.5 g/m*3 8.75 C 16.36667 km/h
1532 07-10-2017 19:00:00 11.03333 C 8.4 g/m*3 11.03 C 18.5 km/h
1533 07-10-2017 20:00:00 10.925 C 8.39 g/m*3 8.53 C 20.1 km/h
1534 07-10-2017 21:00:00 10.775 C 8.66 g/m*3 8.5 C 18.5 km/h
1535 07-10-2017 22:00:00 10.725 C 8.76 g/m*3 8.28 C 20.11667 km/h
1536 07-10-2017 23:00:00 10.825 C 8.88 g/m*3 8.69 C 17.16667 km/h
1537 08-10-2017 00:00:00 11.00833 C 9.08 g/m*3 11.01 C 15.3 km/h
1538 08-10-2017 01:00:00 10.79167 C 9.25 g/m*3 9.85 C 8.45833 km/h
1539 08-10-2017 02:00:00 10.71667 C 9.32 g/m*3 10.32 C 5.9 km/h
1540 08-10-2017 03:00:00 10.70833 C 9.34 g/m*3 10.46 C 5.35 km/h
1541 08-10-2017 04:00:00 10.81667 C 9.48 g/m*3 10.82 C 4.95 km/h
1542 08-10-2017 05:00:00 10.94167 C 9.57 g/m*3 10.94 C 4.01667 km/h
1543 08-10-2017 06:00:00 10.96667 C 9.59 g/m*3 10.97 C 2.66667 km/h
1544 08-10-2017 07:00:00 10.95833 C 9.58 g/m*3 10.96 C 1.06667 km/h
1545 08-10-2017 08:00:00 11.04167 C 9.69 g/m*3 11.04 C 1.46667 km/h
1546 08-10-2017 09:00:00 11.7 C 10.15 g/m*3 11.7 C 4.68333 km/h
1547 08-10-2017 10:00:00 12.74167 C 10.83 g/m*3 12.74 C 2.14167 km/h
1548 08-10-2017 11:00:00 13.41667 C 11.11 g/m*3 13.42 C 4.95833 km/h
1549 08-10-2017 12:00:00 13.775 C 11.05 g/m*3 13.78 C 5.09167 km/h
1550 08-10-2017 13:00:00 14.6 C 10.69 g/m*3 14.6 C 10.875 km/h
Sensor: Nr:Datum:Temp:Abs-Feuchte:Windchill:Wind:
Aussen-T/F 1551 08-10-2017 14:00:00 13.50833 C 10.5 g/m*3 13.51 C 6.44167 km/h
1552 08-10-2017 15:00:00 14.10833 C 10.72 g/m*3 14.11 C 4.7 km/h
1553 08-10-2017 16:00:00 14.2 C 10.47 g/m*3 14.2 C 8.99167 km/h
1554 08-10-2017 17:00:00 12.825 C 10.23 g/m*3 12.83 C 6.04167 km/h
1555 08-10-2017 18:00:00 12.19167 C 10.14 g/m*3 12.19 C 0.26667 km/h
1556 08-10-2017 19:00:00 11.925 C 10.07 g/m*3 11.93 C 0.13333 km/h
1557 08-10-2017 20:00:00 11.55 C 9.84 g/m*3 11.55 C 0.66667 km/h
1558 08-10-2017 21:00:00 11.05 C 9.54 g/m*3 11.05 C 0.13333 km/h
1559 08-10-2017 22:00:00 10.68333 C 9.32 g/m*3 10.68 C 0 km/h
1560 08-10-2017 23:00:00 10.33333 C 9.17 g/m*3 10.33 C 0 km/h
1561 09-10-2017 00:00:00 9.60833 C 8.71 g/m*3 9.61 C 0 km/h
1562 09-10-2017 01:00:00 8.80833 C 8.31 g/m*3 8.81 C 0 km/h
1563 09-10-2017 02:00:00 8.01667 C 7.95 g/m*3 8.02 C 0 km/h
1564 09-10-2017 03:00:00 7.95833 C 7.96 g/m*3 7.96 C 0 km/h
1565 09-10-2017 04:00:00 8.66667 C 8.37 g/m*3 8.67 C 0 km/h
1566 09-10-2017 05:00:00 9.10833 C 8.61 g/m*3 9.11 C 0 km/h
1567 09-10-2017 06:00:00 9.24167 C 8.68 g/m*3 9.24 C 0 km/h
1568 09-10-2017 07:00:00 9.425 C 8.79 g/m*3 9.43 C 0 km/h
1569 09-10-2017 08:00:00 9.625 C 8.9 g/m*3 9.63 C 0 km/h
1570 09-10-2017 09:00:00 10.16667 C 9.21 g/m*3 10.17 C 0 km/h
1571 09-10-2017 10:00:00 10.99167 C 9.7 g/m*3 10.99 C 0 km/h
1572 09-10-2017 11:00:00 12 C 10.17 g/m*3 12 C 0 km/h
1573 09-10-2017 12:00:00 12.9 C 10.43 g/m*3 12.9 C 0 km/h
1574 09-10-2017 13:00:00 13.83333 C 10.6 g/m*3 13.83 C 0 km/h
1575 09-10-2017 14:00:00 14.725 C 10.94 g/m*3 14.73 C 0 km/h
Sensor: Nr:Datum:Temp:Abs-Feuchte:Windchill:Wind:
Aussen-T/F 1576 09-10-2017 15:00:00 15.225 C 11.07 g/m*3 15.23 C 0 km/h
1577 09-10-2017 16:00:00 14.875 C 11 g/m*3 14.88 C 0 km/h
1578 09-10-2017 17:00:00 14.05833 C 11 g/m*3 14.06 C 0 km/h
1579 09-10-2017 18:00:00 13.2 C 10.49 g/m*3 13.2 C 0 km/h
1580 09-10-2017 19:00:00 12.825 C 10.27 g/m*3 12.83 C 0 km/h
1581 09-10-2017 20:00:00 12.36667 C 10.09 g/m*3 12.37 C 0 km/h
1582 09-10-2017 21:00:00 12.2 C 10.13 g/m*3 12.2 C 0 km/h
1583 09-10-2017 22:00:00 12.2 C 10.25 g/m*3 12.2 C 0 km/h
1584 09-10-2017 23:00:00 12.10833 C 10.19 g/m*3 12.11 C 0 km/h
1585 10-10-2017 00:00:00 11.8 C 10 g/m*3 11.8 C 0 km/h
1586 10-10-2017 01:00:00 11.525 C 9.79 g/m*3 11.53 C 0.13333 km/h
1587 10-10-2017 02:00:00 11.34167 C 9.51 g/m*3 11.34 C 0.4 km/h
1588 10-10-2017 03:00:00 11.39167 C 9.61 g/m*3 11.39 C 0.66667 km/h
1589 10-10-2017 04:00:00 11.45833 C 9.68 g/m*3 11.46 C 0 km/h
1590 10-10-2017 05:00:00 11.46667 C 9.69 g/m*3 11.47 C 0.53333 km/h
1591 10-10-2017 06:00:00 11.775 C 9.84 g/m*3 11.78 C 1.46667 km/h
1592 10-10-2017 07:00:00 11.79167 C 9.95 g/m*3 11.79 C 1.2 km/h
1593 10-10-2017 08:00:00 11.70833 C 10.04 g/m*3 11.71 C 2.26667 km/h
1594 10-10-2017 09:00:00 12.1 C 10.29 g/m*3 12.1 C 5.525 km/h
1595 10-10-2017 10:00:00 12.71667 C 10.65 g/m*3 12.72 C 3.09167 km/h
1596 10-10-2017 11:00:00 13.23333 C 10.92 g/m*3 13.23 C 6.99167 km/h
1597 10-10-2017 12:00:00 14.01667 C 11.29 g/m*3 14.02 C 4.00833 km/h
1598 10-10-2017 13:00:00 14.71667 C 11.5 g/m*3 14.72 C 1.06667 km/h
1599 10-10-2017 14:00:00 15.14167 C 11.73 g/m*3 15.14 C 0.93333 km/h
1600 10-10-2017 15:00:00 15.94167 C 11.98 g/m*3 15.94 C 4.16667 km/h
Sensor: Nr:Datum:Temp:Abs-Feuchte:Windchill:Wind:
Aussen-T/F 1601 10-10-2017 16:00:00 16.19167 C 12.05 g/m*3 16.19 C 3.225 km/h
1602 10-10-2017 17:00:00 15.3 C 11.7 g/m*3 15.3 C 2.95 km/h
1603 10-10-2017 18:00:00 14.525 C 11.47 g/m*3 14.53 C 0.4 km/h
1604 10-10-2017 19:00:00 14.1 C 11.29 g/m*3 14.1 C 0.13333 km/h
1605 10-10-2017 20:00:00 13.84167 C 11.22 g/m*3 13.84 C 0 km/h
1606 10-10-2017 21:00:00 13.88333 C 11.2 g/m*3 13.88 C 0 km/h
1607 10-10-2017 22:00:00 13.66667 C 11.03 g/m*3 13.67 C 0.13333 km/h
1608 10-10-2017 23:00:00 12.94167 C 10.61 g/m*3 12.94 C 0 km/h
1609 11-10-2017 00:00:00 12.225 C 10.23 g/m*3 12.23 C 0 km/h
1610 11-10-2017 01:00:00 12.40833 C 10.49 g/m*3 12.41 C 0 km/h
1611 11-10-2017 02:00:00 12.36667 C 10.47 g/m*3 12.37 C 0.4 km/h
1612 11-10-2017 03:00:00 12.94167 C 10.72 g/m*3 12.94 C 1.20833 km/h
1613 11-10-2017 04:00:00 13.10833 C 10.65 g/m*3 13.11 C 0 km/h
1614 11-10-2017 05:00:00 12.95833 C 10.61 g/m*3 12.96 C 0 km/h
1615 11-10-2017 06:00:00 13.15 C 10.67 g/m*3 13.15 C 0 km/h
1616 11-10-2017 07:00:00 13.15833 C 10.63 g/m*3 13.16 C 4.03333 km/h
1617 11-10-2017 08:00:00 13.40833 C 10.7 g/m*3 13.41 C 0.93333 km/h
1618 11-10-2017 09:00:00 13.61667 C 10.69 g/m*3 13.62 C 4.03333 km/h
1619 11-10-2017 10:00:00 14.08333 C 10.63 g/m*3 14.08 C 9.275 km/h
1620 11-10-2017 11:00:00 14.74167 C 10.58 g/m*3 14.74 C 10.08333 km/h
1621 11-10-2017 12:00:00 14.53333 C 10.46 g/m*3 14.53 C 2.675 km/h
1622 11-10-2017 13:00:00 14.75833 C 10.49 g/m*3 14.76 C 4.575 km/h
1623 11-10-2017 14:00:00 14.75 C 10.64 g/m*3 14.75 C 1.20833 km/h
1624 11-10-2017 15:00:00 14.89167 C 10.81 g/m*3 14.89 C 2.15 km/h
1625 11-10-2017 16:00:00 15.25 C 11.16 g/m*3 15.25 C 0 km/h
Sensor: Nr:Datum:Temp:Abs-Feuchte:Windchill:Wind:
Aussen-T/F 1626 11-10-2017 17:00:00 14.80833 C 11.35 g/m*3 14.81 C 0.13333 km/h
1627 11-10-2017 18:00:00 14.5 C 11.25 g/m*3 14.5 C 0 km/h
1628 11-10-2017 19:00:00 13.8 C 10.9 g/m*3 13.8 C 0.13333 km/h
1629 11-10-2017 20:00:00 13.14167 C 10.5 g/m*3 13.14 C 0 km/h
1630 11-10-2017 21:00:00 12.84167 C 10.43 g/m*3 12.84 C 0 km/h
1631 11-10-2017 22:00:00 12.75 C 10.47 g/m*3 12.75 C 0 km/h
1632 11-10-2017 23:00:00 12.14167 C 10.12 g/m*3 12.14 C 0 km/h
1633 12-10-2017 00:00:00 11.8 C 10.02 g/m*3 11.8 C 0 km/h
1634 12-10-2017 01:00:00 11.775 C 10.09 g/m*3 11.78 C 0 km/h
1635 12-10-2017 02:00:00 11.75 C 10.07 g/m*3 11.75 C 0 km/h
1636 12-10-2017 03:00:00 11.26667 C 9.8 g/m*3 11.27 C 0 km/h
1637 12-10-2017 04:00:00 11.79167 C 10.19 g/m*3 11.79 C 0 km/h
1638 12-10-2017 05:00:00 12.56667 C 10.7 g/m*3 12.57 C 3.5 km/h
1639 12-10-2017 06:00:00 13.075 C 10.88 g/m*3 13.08 C 5.225 km/h
1640 12-10-2017 07:00:00 13.35833 C 10.92 g/m*3 13.36 C 2.14167 km/h
1641 12-10-2017 08:00:00 13.09167 C 10.74 g/m*3 13.09 C 0.675 km/h
1642 12-10-2017 09:00:00 13.275 C 10.97 g/m*3 13.28 C 0 km/h
1643 12-10-2017 10:00:00 13.75 C 10.56 g/m*3 13.75 C 3.48333 km/h
1644 12-10-2017 11:00:00 14.975 C 9.59 g/m*3 14.98 C 10.48333 km/h
1645 12-10-2017 12:00:00 15.78333 C 9.22 g/m*3 15.78 C 12.9 km/h
1646 12-10-2017 13:00:00 16.825 C 9.32 g/m*3 16.83 C 13.95833 km/h
1647 12-10-2017 14:00:00 17.44167 C 9.37 g/m*3 17.44 C 14.63333 km/h
1648 12-10-2017 15:00:00 17.8 C 9.35 g/m*3 17.8 C 12.1 km/h
1649 12-10-2017 16:00:00 17.45 C 10.07 g/m*3 17.45 C 7.525 km/h
1650 12-10-2017 17:00:00 16.96667 C 10.28 g/m*3 16.97 C 5.9 km/h
Sensor: Nr:Datum:Temp:Abs-Feuchte:Windchill:Wind:
Aussen-T/F 1651 12-10-2017 18:00:00 15.75833 C 10.19 g/m*3 15.76 C 2.15 km/h
1652 12-10-2017 19:00:00 13.61667 C 9.77 g/m*3 13.62 C 0.13333 km/h
1653 12-10-2017 20:00:00 12.58333 C 9.63 g/m*3 12.58 C 0 km/h
1654 12-10-2017 21:00:00 11.8 C 9.45 g/m*3 11.8 C 0 km/h
1655 12-10-2017 22:00:00 11.26667 C 9.39 g/m*3 11.27 C 0 km/h
1656 12-10-2017 23:00:00 10.675 C 9.19 g/m*3 10.68 C 0 km/h
1657 13-10-2017 00:00:00 10.4 C 9.08 g/m*3 10.4 C 0 km/h
1658 13-10-2017 01:00:00 10.225 C 9.06 g/m*3 10.23 C 0 km/h
1659 13-10-2017 02:00:00 10.41667 C 9.25 g/m*3 10.42 C 0 km/h
1660 13-10-2017 03:00:00 10.36667 C 9.23 g/m*3 10.37 C 0 km/h
1661 13-10-2017 04:00:00 10.3 C 9.19 g/m*3 10.3 C 0 km/h
1662 13-10-2017 05:00:00 10.00833 C 9.03 g/m*3 10.01 C 0 km/h
1663 13-10-2017 06:00:00 9.525 C 8.78 g/m*3 9.53 C 0 km/h
1664 13-10-2017 07:00:00 10.59167 C 9.49 g/m*3 10.59 C 2.14167 km/h
1665 13-10-2017 08:00:00 12.95 C 11.01 g/m*3 12.95 C 4.95833 km/h
1666 13-10-2017 09:00:00 13.975 C 11.58 g/m*3 13.98 C 9.14167 km/h
1667 13-10-2017 10:00:00 15.18333 C 12.03 g/m*3 15.18 C 9.28333 km/h
1668 13-10-2017 11:00:00 16.14167 C 12.28 g/m*3 16.14 C 10.21667 km/h
1669 13-10-2017 12:00:00 17.275 C 12.69 g/m*3 17.27 C 10.63333 km/h
1670 13-10-2017 13:00:00 18.26667 C 12.98 g/m*3 18.27 C 11.29167 km/h
1671 13-10-2017 14:00:00 18.425 C 12.98 g/m*3 18.43 C 7.79167 km/h
1672 13-10-2017 15:00:00 18.26667 C 13.2 g/m*3 18.27 C 1.2 km/h
1673 13-10-2017 16:00:00 18.29167 C 13.49 g/m*3 18.29 C 0 km/h
1674 13-10-2017 17:00:00 18.34167 C 13.48 g/m*3 18.34 C 0.675 km/h
1675 13-10-2017 18:00:00 17.45 C 12.88 g/m*3 17.45 C 0 km/h
Sensor: Nr:Datum:Temp:Abs-Feuchte:Windchill:Wind:
Aussen-T/F 1676 13-10-2017 19:00:00 15.38333 C 12 g/m*3 15.38 C 0 km/h
1677 13-10-2017 20:00:00 15.25833 C 12.23 g/m*3 15.26 C 0 km/h
1678 13-10-2017 21:00:00 15.18333 C 12.09 g/m*3 15.18 C 0 km/h
1679 13-10-2017 22:00:00 14.05833 C 11.34 g/m*3 14.06 C 0 km/h
1680 13-10-2017 23:00:00 13.45 C 11.05 g/m*3 13.45 C 0 km/h
1681 14-10-2017 00:00:00 12.5 C 10.44 g/m*3 12.5 C 0 km/h
1682 14-10-2017 01:00:00 11.725 C 10.03 g/m*3 11.73 C 0 km/h
1683 14-10-2017 02:00:00 11.50833 C 9.92 g/m*3 11.51 C 0 km/h
1684 14-10-2017 03:00:00 11.30833 C 9.81 g/m*3 11.31 C 0 km/h
1685 14-10-2017 04:00:00 10.53333 C 9.33 g/m*3 10.53 C 0 km/h
1686 14-10-2017 05:00:00 10.34167 C 9.27 g/m*3 10.34 C 0 km/h
1687 14-10-2017 06:00:00 9.93333 C 9.05 g/m*3 9.93 C 0 km/h
1688 14-10-2017 07:00:00 9.91667 C 9.05 g/m*3 9.92 C 0 km/h
1689 14-10-2017 08:00:00 9.93333 C 9.08 g/m*3 9.93 C 0 km/h
1690 14-10-2017 09:00:00 10.26667 C 9.27 g/m*3 10.27 C 0 km/h
1691 14-10-2017 10:00:00 11.05833 C 9.76 g/m*3 11.06 C 0 km/h
1692 14-10-2017 11:00:00 11.93333 C 10.37 g/m*3 11.93 C 0 km/h
1693 14-10-2017 12:00:00 13.70833 C 11.61 g/m*3 13.71 C 0 km/h
1694 14-10-2017 13:00:00 15.225 C 12.74 g/m*3 15.23 C 0 km/h
1695 14-10-2017 14:00:00 16.16667 C 13.4 g/m*3 16.17 C 0 km/h
1696 14-10-2017 15:00:00 17.03333 C 13.83 g/m*3 17.03 C 0 km/h
1697 14-10-2017 16:00:00 17.56667 C 13.92 g/m*3 17.57 C 0 km/h
1698 14-10-2017 17:00:00 17.525 C 13.72 g/m*3 17.52 C 0 km/h
1699 14-10-2017 18:00:00 17.625 C 13.44 g/m*3 17.63 C 0 km/h
1700 14-10-2017 19:00:00 16.275 C 12.51 g/m*3 16.27 C 0 km/h
Sensor: Nr:Datum:Temp:Abs-Feuchte:Windchill:Wind:
Aussen-T/F 1701 14-10-2017 20:00:00 14.94167 C 11.82 g/m*3 14.94 C 0 km/h
1702 14-10-2017 21:00:00 13.475 C 10.98 g/m*3 13.48 C 0 km/h
1703 14-10-2017 22:00:00 12.76667 C 10.67 g/m*3 12.77 C 0 km/h
1704 14-10-2017 23:00:00 12 C 10.2 g/m*3 12 C 0 km/h
1705 15-10-2017 00:00:00 11.45 C 9.88 g/m*3 11.45 C 0 km/h
1706 15-10-2017 01:00:00 11 C 9.63 g/m*3 11 C 0 km/h
1707 15-10-2017 02:00:00 10.54167 C 9.41 g/m*3 10.54 C 0 km/h
1708 15-10-2017 03:00:00 10.44167 C 9.37 g/m*3 10.44 C 0 km/h
1709 15-10-2017 04:00:00 10.275 C 9.27 g/m*3 10.28 C 0 km/h
1710 15-10-2017 05:00:00 9.89167 C 9.05 g/m*3 9.89 C 0 km/h
1711 15-10-2017 06:00:00 9.825 C 9.01 g/m*3 9.82 C 0 km/h
1712 15-10-2017 07:00:00 9.43333 C 8.79 g/m*3 9.43 C 0 km/h
1713 15-10-2017 08:00:00 9.2 C 8.66 g/m*3 9.2 C 0 km/h
1714 15-10-2017 09:00:00 9.36667 C 8.77 g/m*3 9.37 C 0 km/h
1715 15-10-2017 10:00:00 9.85833 C 9.09 g/m*3 9.86 C 0 km/h
1716 15-10-2017 11:00:00 10.58333 C 9.55 g/m*3 10.58 C 0 km/h
1717 15-10-2017 12:00:00 11.84167 C 10.34 g/m*3 11.84 C 0 km/h
1718 15-10-2017 13:00:00 14.16667 C 11.94 g/m*3 14.17 C 0 km/h
1719 15-10-2017 14:00:00 16.175 C 13.49 g/m*3 16.18 C 0 km/h
1720 15-10-2017 15:00:00 16.8 C 14.01 g/m*3 16.8 C 0 km/h
1721 15-10-2017 16:00:00 16.99167 C 13.96 g/m*3 16.99 C 0 km/h
1722 15-10-2017 17:00:00 17.24167 C 13.68 g/m*3 17.24 C 0 km/h
1723 15-10-2017 18:00:00 17.39167 C 13.13 g/m*3 17.39 C 0 km/h
1724 15-10-2017 19:00:00 15.89167 C 12.17 g/m*3 15.89 C 0 km/h
1725 15-10-2017 20:00:00 14.375 C 11.52 g/m*3 14.38 C 0 km/h
Sensor: Nr:Datum:Temp:Abs-Feuchte:Windchill:Wind:
Aussen-T/F 1726 15-10-2017 21:00:00 13.43333 C 11 g/m*3 13.43 C 0 km/h
1727 15-10-2017 22:00:00 12.75 C 10.63 g/m*3 12.75 C 0 km/h
1728 15-10-2017 23:00:00 11.8 C 10.07 g/m*3 11.8 C 0 km/h
1729 16-10-2017 00:00:00 11.29167 C 9.79 g/m*3 11.29 C 0 km/h
1730 16-10-2017 01:00:00 10.73333 C 9.46 g/m*3 10.73 C 0 km/h
1731 16-10-2017 02:00:00 10.36667 C 9.3 g/m*3 10.37 C 0 km/h
1732 16-10-2017 03:00:00 10.21667 C 9.24 g/m*3 10.22 C 0 km/h
1733 16-10-2017 04:00:00 9.96667 C 9.1 g/m*3 9.97 C 0 km/h
1734 16-10-2017 05:00:00 9.88333 C 9.05 g/m*3 9.88 C 0 km/h
1735 16-10-2017 06:00:00 9.925 C 9.07 g/m*3 9.93 C 0 km/h
1736 16-10-2017 07:00:00 9.425 C 8.79 g/m*3 9.43 C 0 km/h
1737 16-10-2017 08:00:00 9.39167 C 8.79 g/m*3 9.39 C 0 km/h
1738 16-10-2017 09:00:00 10.38333 C 9.43 g/m*3 10.38 C 0 km/h
1739 16-10-2017 10:00:00 11.55833 C 10.16 g/m*3 11.56 C 0 km/h
1740 16-10-2017 11:00:00 13.18333 C 11.24 g/m*3 13.18 C 0 km/h
1741 16-10-2017 12:00:00 14.96667 C 12.54 g/m*3 14.97 C 0 km/h
1742 16-10-2017 13:00:00 16.36667 C 13.65 g/m*3 16.37 C 0 km/h
1743 16-10-2017 14:00:00 18.10833 C 15.12 g/m*3 18.11 C 0 km/h
1744 16-10-2017 15:00:00 18.95833 C 15.4 g/m*3 18.96 C 0 km/h
1745 16-10-2017 16:00:00 19.26667 C 15.01 g/m*3 19.27 C 0 km/h
1746 16-10-2017 17:00:00 18.95 C 14.69 g/m*3 18.95 C 0 km/h
1747 16-10-2017 18:00:00 17.825 C 13.68 g/m*3 17.83 C 0 km/h
1748 16-10-2017 19:00:00 16.25833 C 12.75 g/m*3 16.26 C 0 km/h
1749 16-10-2017 20:00:00 15.25833 C 12.19 g/m*3 15.26 C 0 km/h
1750 16-10-2017 21:00:00 14.575 C 11.8 g/m*3 14.58 C 0 km/h
Sensor: Nr:Datum:Temp:Abs-Feuchte:Windchill:Wind:
Aussen-T/F 1751 16-10-2017 22:00:00 13.53333 C 11.11 g/m*3 13.53 C 0 km/h
1752 16-10-2017 23:00:00 12.49167 C 10.48 g/m*3 12.49 C 0 km/h
1753 17-10-2017 00:00:00 11.65 C 9.99 g/m*3 11.65 C 0 km/h
1754 17-10-2017 01:00:00 11.48333 C 9.91 g/m*3 11.48 C 0 km/h
1755 17-10-2017 02:00:00 11.08333 C 9.74 g/m*3 11.08 C 0 km/h
1756 17-10-2017 03:00:00 10.86667 C 9.63 g/m*3 10.87 C 0 km/h
1757 17-10-2017 04:00:00 10.8 C 9.58 g/m*3 10.8 C 0 km/h
1758 17-10-2017 05:00:00 9.9 C 9.06 g/m*3 9.9 C 0 km/h
1759 17-10-2017 06:00:00 9.96667 C 9.1 g/m*3 9.97 C 0 km/h
1760 17-10-2017 07:00:00 9.70833 C 8.95 g/m*3 9.71 C 0 km/h
1761 17-10-2017 08:00:00 9.73333 C 8.96 g/m*3 9.73 C 0 km/h
1762 17-10-2017 09:00:00 10.24167 C 9.3 g/m*3 10.24 C 0 km/h
1763 17-10-2017 10:00:00 11.325 C 10.01 g/m*3 11.33 C 0 km/h
1764 17-10-2017 11:00:00 12.75 C 10.94 g/m*3 12.75 C 0 km/h
1765 17-10-2017 12:00:00 13.98333 C 11.81 g/m*3 13.98 C 0 km/h
1766 17-10-2017 13:00:00 14.98333 C 12.55 g/m*3 14.98 C 0 km/h
1767 17-10-2017 14:00:00 16.1 C 13.25 g/m*3 16.1 C 0 km/h
1768 17-10-2017 15:00:00 17.06667 C 13.64 g/m*3 17.07 C 0 km/h
1769 17-10-2017 16:00:00 17.68333 C 13.82 g/m*3 17.68 C 0 km/h
1770 17-10-2017 17:00:00 17.79167 C 13.8 g/m*3 17.79 C 0 km/h
1771 17-10-2017 18:00:00 17.175 C 13.45 g/m*3 17.18 C 0 km/h
1772 17-10-2017 19:00:00 15.84167 C 12.58 g/m*3 15.84 C 0 km/h
1773 17-10-2017 20:00:00 14.70833 C 11.9 g/m*3 14.71 C 0 km/h
1774 17-10-2017 21:00:00 13.69167 C 11.24 g/m*3 13.69 C 0 km/h
1775 17-10-2017 22:00:00 13.15 C 10.98 g/m*3 13.15 C 0 km/h
Sensor: Nr:Datum:Temp:Abs-Feuchte:Windchill:Wind:
Aussen-T/F 1776 17-10-2017 23:00:00 12.525 C 10.57 g/m*3 12.53 C 0 km/h
1777 18-10-2017 00:00:00 11.79167 C 10.13 g/m*3 11.79 C 0 km/h
1778 18-10-2017 01:00:00 11.25 C 9.83 g/m*3 11.25 C 0 km/h
1779 18-10-2017 02:00:00 11.54167 C 10.05 g/m*3 11.54 C 0 km/h
1780 18-10-2017 03:00:00 11.38333 C 9.95 g/m*3 11.38 C 0 km/h
1781 18-10-2017 04:00:00 11.25833 C 9.87 g/m*3 11.26 C 0 km/h
1782 18-10-2017 05:00:00 10.84167 C 9.61 g/m*3 10.84 C 0 km/h
1783 18-10-2017 06:00:00 10.54167 C 9.43 g/m*3 10.54 C 0 km/h
1784 18-10-2017 07:00:00 10.16667 C 9.21 g/m*3 10.17 C 0 km/h
1785 18-10-2017 08:00:00 9.625 C 8.92 g/m*3 9.63 C 0 km/h
1786 18-10-2017 09:00:00 9.40833 C 8.79 g/m*3 9.41 C 0 km/h
1787 18-10-2017 10:00:00 9.44167 C 8.87 g/m*3 9.44 C 0 km/h
1788 18-10-2017 11:00:00 10.18333 C 9.32 g/m*3 10.18 C 0 km/h
1789 18-10-2017 12:00:00 12.13333 C 10.53 g/m*3 12.13 C 0 km/h
1790 18-10-2017 13:00:00 13.85 C 11.71 g/m*3 13.85 C 0 km/h
1791 18-10-2017 14:00:00 14.65833 C 12.31 g/m*3 14.66 C 0 km/h
1792 18-10-2017 15:00:00 15.525 C 12.89 g/m*3 15.53 C 0 km/h
1793 18-10-2017 16:00:00 16.4 C 13.14 g/m*3 16.4 C 0 km/h
1794 18-10-2017 17:00:00 16.65 C 12.81 g/m*3 16.65 C 0 km/h
1795 18-10-2017 18:00:00 16.03333 C 12.1 g/m*3 16.03 C 0 km/h
1796 18-10-2017 19:00:00 14.31667 C 11.19 g/m*3 14.32 C 0 km/h
1797 18-10-2017 20:00:00 12.81667 C 10.46 g/m*3 12.82 C 0 km/h
1798 18-10-2017 21:00:00 11.60833 C 9.81 g/m*3 11.61 C 0 km/h
1799 18-10-2017 22:00:00 11.00833 C 9.57 g/m*3 11.01 C 0 km/h
1800 18-10-2017 23:00:00 10.44167 C 9.28 g/m*3 10.44 C 0 km/h
Sensor: Nr:Datum:Temp:Abs-Feuchte:Windchill:Wind:
Aussen-T/F 1801 19-10-2017 00:00:00 9.85 C 8.94 g/m*3 9.85 C 0 km/h
1802 19-10-2017 01:00:00 9.30833 C 8.63 g/m*3 9.31 C 0 km/h
1803 19-10-2017 02:00:00 8.85 C 8.43 g/m*3 8.85 C 0 km/h
1804 19-10-2017 03:00:00 8.475 C 8.26 g/m*3 8.48 C 0 km/h
1805 19-10-2017 04:00:00 8.25833 C 8.15 g/m*3 8.26 C 0 km/h
1806 19-10-2017 05:00:00 8.01667 C 8.03 g/m*3 8.02 C 0 km/h
1807 19-10-2017 06:00:00 8.275 C 8.16 g/m*3 8.28 C 0 km/h
1808 19-10-2017 07:00:00 8.28333 C 8.17 g/m*3 8.28 C 0 km/h
1809 19-10-2017 08:00:00 8.2 C 8.17 g/m*3 8.2 C 0 km/h
1810 19-10-2017 09:00:00 8.29167 C 8.26 g/m*3 8.29 C 0 km/h
1811 19-10-2017 10:00:00 8.45 C 8.34 g/m*3 8.45 C 0.26667 km/h
1812 19-10-2017 11:00:00 9.35 C 8.84 g/m*3 9.35 C 0 km/h
1813 19-10-2017 12:00:00 10.56667 C 9.54 g/m*3 10.57 C 0 km/h
1814 19-10-2017 13:00:00 12.54167 C 10.8 g/m*3 12.54 C 0 km/h
1815 19-10-2017 14:00:00 14.61667 C 12.32 g/m*3 14.62 C 0 km/h
1816 19-10-2017 15:00:00 15.49167 C 12.98 g/m*3 15.49 C 0 km/h
1817 19-10-2017 16:00:00 15.75833 C 13.06 g/m*3 15.76 C 0 km/h
1818 19-10-2017 17:00:00 16.08333 C 12.85 g/m*3 16.08 C 0 km/h
1819 19-10-2017 18:00:00 15.925 C 12.38 g/m*3 15.93 C 0 km/h
1820 19-10-2017 19:00:00 15.13333 C 12 g/m*3 15.13 C 0 km/h
1821 19-10-2017 20:00:00 15.075 C 11.88 g/m*3 15.08 C 0 km/h
1822 19-10-2017 21:00:00 14.79167 C 11.65 g/m*3 14.79 C 0 km/h
1823 19-10-2017 22:00:00 13.99167 C 11 g/m*3 13.99 C 0 km/h
1824 19-10-2017 23:00:00 12.55833 C 10.16 g/m*3 12.56 C 0 km/h
1825 20-10-2017 00:00:00 11.59 C 9.73 g/m*3 11.59 C 0 km/h
Sensor: Nr:Datum:Temp:Abs-Feuchte:Windchill:Wind:
Aussen-T/F 1826 20-10-2017 18:00:00 13.64167 C 9.38 g/m*3 13.64 C 1.875 km/h
1827 20-10-2017 19:00:00 12.05 C 8.91 g/m*3 12.05 C 1.06667 km/h
1828 20-10-2017 20:00:00 10.5 C 8.53 g/m*3 10.5 C 0 km/h
1829 20-10-2017 21:00:00 9.28333 C 8.11 g/m*3 9.28 C 0 km/h
1830 20-10-2017 22:00:00 8.5 C 7.89 g/m*3 8.5 C 0.13333 km/h
1831 20-10-2017 23:00:00 8.2 C 7.84 g/m*3 8.2 C 0 km/h
1832 21-10-2017 00:00:00 7.78333 C 7.68 g/m*3 7.78 C 0 km/h
1833 21-10-2017 01:00:00 7.975 C 7.84 g/m*3 7.98 C 0 km/h
1834 21-10-2017 02:00:00 8.35 C 8.09 g/m*3 8.35 C 0 km/h
1835 21-10-2017 03:00:00 8.31667 C 8.02 g/m*3 8.32 C 0 km/h
1836 21-10-2017 04:00:00 8.03333 C 7.91 g/m*3 8.03 C 0 km/h
1837 21-10-2017 05:00:00 8.55833 C 8.23 g/m*3 8.56 C 0 km/h
1838 21-10-2017 06:00:00 9.03333 C 8.48 g/m*3 9.03 C 0 km/h
1839 21-10-2017 07:00:00 8.675 C 8.27 g/m*3 8.68 C 0 km/h
1840 21-10-2017 08:00:00 8.43333 C 8.17 g/m*3 8.43 C 0 km/h
1841 21-10-2017 09:00:00 9.65 C 8.91 g/m*3 9.65 C 0 km/h
1842 21-10-2017 10:00:00 11.06667 C 9.66 g/m*3 11.07 C 0 km/h
1843 21-10-2017 11:00:00 12.55833 C 10.47 g/m*3 12.56 C 0 km/h
1844 21-10-2017 12:00:00 15.50833 C 12.01 g/m*3 15.51 C 11.15 km/h
1845 21-10-2017 13:00:00 16.99167 C 12.29 g/m*3 16.99 C 14.76667 km/h
1846 21-10-2017 14:00:00 17.11667 C 12.17 g/m*3 17.12 C 13.7 km/h
1847 21-10-2017 15:00:00 17.2 C 11.78 g/m*3 17.2 C 12.63333 km/h
1848 21-10-2017 16:00:00 16.7 C 11.37 g/m*3 16.7 C 11.825 km/h
1849 21-10-2017 17:00:00 16.04167 C 11.05 g/m*3 16.04 C 11.275 km/h
1850 21-10-2017 18:00:00 14.525 C 10.94 g/m*3 14.53 C 3.225 km/h
Sensor: Nr:Datum:Temp:Abs-Feuchte:Windchill:Wind:
Aussen-T/F 1851 21-10-2017 19:00:00 12.875 C 10.34 g/m*3 12.88 C 0.53333 km/h
1852 21-10-2017 20:00:00 11.525 C 9.59 g/m*3 11.53 C 1.73333 km/h
1853 21-10-2017 21:00:00 11.38333 C 9.41 g/m*3 11.38 C 1.33333 km/h
1854 21-10-2017 22:00:00 11.79167 C 9.67 g/m*3 11.79 C 1.20833 km/h
1855 21-10-2017 23:00:00 12.16667 C 9.75 g/m*3 12.17 C 1.86667 km/h
1856 22-10-2017 00:00:00 12.2 C 9.22 g/m*3 12.2 C 7.11667 km/h
1857 22-10-2017 01:00:00 12.33333 C 8.92 g/m*3 12.33 C 7.93333 km/h
1858 22-10-2017 02:00:00 12.175 C 8.72 g/m*3 12.18 C 12.75833 km/h
1859 22-10-2017 03:00:00 12.025 C 8.54 g/m*3 12.03 C 13.43333 km/h
1860 22-10-2017 04:00:00 11.75833 C 8.27 g/m*3 11.76 C 11.55 km/h
1861 22-10-2017 05:00:00 11.45 C 7.98 g/m*3 11.45 C 18.9 km/h
1862 22-10-2017 06:00:00 11 C 7.87 g/m*3 9.08 C 15.56667 km/h
1863 22-10-2017 07:00:00 11.04167 C 7.85 g/m*3 11.04 C 15.7 km/h
1864 22-10-2017 08:00:00 10.98333 C 7.97 g/m*3 9.19 C 14.5 km/h
1865 22-10-2017 09:00:00 10.83333 C 8.13 g/m*3 9 C 14.5 km/h
1866 22-10-2017 10:00:00 10.80833 C 8.13 g/m*3 8.76 C 16.375 km/h
1867 22-10-2017 11:00:00 10.825 C 8.17 g/m*3 8.48 C 19.30833 km/h
1868 22-10-2017 12:00:00 10.1 C 8.45 g/m*3 8.74 C 10.09167 km/h
1869 22-10-2017 13:00:00 9.775 C 8.52 g/m*3 8.3 C 10.35 km/h
1870 22-10-2017 14:00:00 9.91667 C 8.64 g/m*3 8.79 C 8.6 km/h
1871 22-10-2017 15:00:00 10.40833 C 8.91 g/m*3 9.51 C 7.9 km/h
1872 22-10-2017 16:00:00 10.88333 C 8.97 g/m*3 10.41 C 6.3 km/h
1873 22-10-2017 17:00:00 11.11667 C 8.85 g/m*3 11.12 C 6.575 km/h
1874 22-10-2017 18:00:00 10.61667 C 8.7 g/m*3 10.24 C 5.76667 km/h
1875 22-10-2017 19:00:00 10.25 C 8.66 g/m*3 10.25 C 4.28333 km/h
Sensor: Nr:Datum:Temp:Abs-Feuchte:Windchill:Wind:
Aussen-T/F 1876 22-10-2017 20:00:00 9.925 C 8.46 g/m*3 9.93 C 2 km/h
1877 22-10-2017 21:00:00 9.65833 C 8.22 g/m*3 9.66 C 4.275 km/h
1878 22-10-2017 22:00:00 9.58333 C 8.14 g/m*3 9.58 C 3.33333 km/h
1879 22-10-2017 23:00:00 9.175 C 8.02 g/m*3 9.18 C 1.2 km/h
1880 23-10-2017 00:00:00 8.88333 C 8.04 g/m*3 8.88 C 2.26667 km/h
1881 23-10-2017 01:00:00 8.85833 C 7.92 g/m*3 8.86 C 4.01667 km/h
1882 23-10-2017 02:00:00 9.30833 C 7.92 g/m*3 8.02 C 8.85833 km/h
1883 23-10-2017 03:00:00 9.26667 C 7.89 g/m*3 7.65 C 10.625 km/h
1884 23-10-2017 04:00:00 9.20833 C 7.87 g/m*3 7.92 C 8.73333 km/h
1885 23-10-2017 05:00:00 9.39167 C 7.91 g/m*3 7.78 C 10.75 km/h
1886 23-10-2017 06:00:00 9.40833 C 7.96 g/m*3 7.91 C 10.08333 km/h
1887 23-10-2017 07:00:00 9.50833 C 8.04 g/m*3 8.28 C 8.73333 km/h
1888 23-10-2017 08:00:00 9.56667 C 8.13 g/m*3 8.76 C 6.83333 km/h
1889 23-10-2017 09:00:00 9.9 C 8.22 g/m*3 8.43 C 10.48333 km/h
1890 23-10-2017 10:00:00 10.54167 C 8.44 g/m*3 9.04 C 11.55 km/h
1891 23-10-2017 11:00:00 11.25 C 8.65 g/m*3 11.25 C 13.56667 km/h
1892 23-10-2017 12:00:00 11.61667 C 9.31 g/m*3 11.62 C 5.35 km/h
1893 23-10-2017 13:00:00 11.95 C 9.29 g/m*3 11.95 C 11.14167 km/h
1894 23-10-2017 14:00:00 12.61667 C 9.13 g/m*3 12.62 C 10.89167 km/h
1895 23-10-2017 15:00:00 12.71667 C 9.13 g/m*3 12.72 C 9.55 km/h
1896 23-10-2017 16:00:00 13.18333 C 9.32 g/m*3 13.18 C 7.51667 km/h
1897 23-10-2017 17:00:00 12.93333 C 9.32 g/m*3 12.93 C 4.81667 km/h
1898 23-10-2017 18:00:00 12.45833 C 9.2 g/m*3 12.46 C 4.40833 km/h
1899 23-10-2017 19:00:00 11.95 C 9.23 g/m*3 11.95 C 3.2 km/h
1900 23-10-2017 20:00:00 11.58333 C 9.22 g/m*3 11.58 C 2.54167 km/h
Sensor: Nr:Datum:Temp:Abs-Feuchte:Windchill:Wind:
Aussen-T/F 1901 23-10-2017 21:00:00 11.46667 C 9.27 g/m*3 11.47 C 0 km/h
1902 23-10-2017 22:00:00 10.725 C 9.03 g/m*3 10.73 C 0 km/h
1903 23-10-2017 23:00:00 10.825 C 9.3 g/m*3 10.83 C 0 km/h
1904 24-10-2017 00:00:00 11.225 C 9.45 g/m*3 11.23 C 2.55 km/h
1905 24-10-2017 01:00:00 11.54167 C 9.63 g/m*3 11.54 C 0.4 km/h
1906 24-10-2017 02:00:00 11.89167 C 9.78 g/m*3 11.89 C 0 km/h
1907 24-10-2017 03:00:00 12.125 C 9.88 g/m*3 12.13 C 0 km/h
1908 24-10-2017 04:00:00 12.2 C 9.93 g/m*3 12.2 C 0 km/h
1909 24-10-2017 05:00:00 12.19167 C 10.04 g/m*3 12.19 C 0 km/h
1910 24-10-2017 06:00:00 11.98333 C 10.04 g/m*3 11.98 C 0 km/h
1911 24-10-2017 07:00:00 11.825 C 10.01 g/m*3 11.83 C 0 km/h
1912 24-10-2017 08:00:00 11.98333 C 10.22 g/m*3 11.98 C 0 km/h
1913 24-10-2017 09:00:00 12.54167 C 10.55 g/m*3 12.54 C 0 km/h
1914 24-10-2017 10:00:00 13.36667 C 10.84 g/m*3 13.37 C 4.00833 km/h
1915 24-10-2017 11:00:00 14.43333 C 11.16 g/m*3 14.43 C 5.65 km/h
1916 24-10-2017 12:00:00 15.05833 C 11.23 g/m*3 15.06 C 12.63333 km/h
1917 24-10-2017 13:00:00 15.44167 C 11.29 g/m*3 15.44 C 10.225 km/h
1918 24-10-2017 14:00:00 15.5 C 11.41 g/m*3 15.5 C 8.875 km/h
1919 24-10-2017 15:00:00 15.5 C 11.49 g/m*3 15.5 C 8.59167 km/h
1920 24-10-2017 16:00:00 15.35833 C 11.53 g/m*3 15.36 C 6.84167 km/h
1921 24-10-2017 17:00:00 14.875 C 11.51 g/m*3 14.88 C 5.24167 km/h
1922 24-10-2017 18:00:00 14.83333 C 11.42 g/m*3 14.83 C 6.84167 km/h
1923 24-10-2017 19:00:00 14.8 C 11.53 g/m*3 14.8 C 10.21667 km/h
1924 24-10-2017 20:00:00 14.86667 C 11.57 g/m*3 14.87 C 9.66667 km/h
1925 24-10-2017 21:00:00 15 C 11.67 g/m*3 15 C 7.65 km/h
Sensor: Nr:Datum:Temp:Abs-Feuchte:Windchill:Wind:
Aussen-T/F 1926 24-10-2017 22:00:00 15.06667 C 11.72 g/m*3 15.07 C 7.24167 km/h
1927 24-10-2017 23:00:00 15.15 C 11.8 g/m*3 15.15 C 7.125 km/h
1928 25-10-2017 00:00:00 15.19167 C 11.91 g/m*3 15.19 C 2.8 km/h
1929 25-10-2017 01:00:00 15.075 C 11.85 g/m*3 15.08 C 0 km/h
1930 25-10-2017 02:00:00 14.91667 C 11.86 g/m*3 14.92 C 0 km/h
1931 25-10-2017 03:00:00 14.89167 C 11.85 g/m*3 14.89 C 0 km/h
1932 25-10-2017 04:00:00 14.8 C 11.8 g/m*3 14.8 C 0 km/h
1933 25-10-2017 05:00:00 14.84167 C 11.73 g/m*3 14.84 C 1.61667 km/h
1934 25-10-2017 06:00:00 14.8 C 11.75 g/m*3 14.8 C 0 km/h
1935 25-10-2017 07:00:00 14.56667 C 11.52 g/m*3 14.57 C 0 km/h
1936 25-10-2017 08:00:00 14.28333 C 11.43 g/m*3 14.28 C 0 km/h
1937 25-10-2017 09:00:00 14.50833 C 11.7 g/m*3 14.51 C 0 km/h
1938 25-10-2017 10:00:00 15.16667 C 11.96 g/m*3 15.17 C 1.20833 km/h
1939 25-10-2017 11:00:00 16.1 C 11.88 g/m*3 16.1 C 9.25833 km/h
1940 25-10-2017 12:00:00 16.95 C 11.71 g/m*3 16.95 C 14.36667 km/h
1941 25-10-2017 13:00:00 17.58333 C 11.85 g/m*3 17.58 C 13.025 km/h
1942 25-10-2017 14:00:00 18.125 C 11.44 g/m*3 18.13 C 12.23333 km/h
1943 25-10-2017 15:00:00 18.36667 C 11.42 g/m*3 18.37 C 11.03333 km/h
1944 25-10-2017 16:00:00 18.08333 C 11.5 g/m*3 18.08 C 5.625 km/h
1945 25-10-2017 17:00:00 16.84167 C 11.41 g/m*3 16.84 C 0 km/h
1946 25-10-2017 18:00:00 14.95 C 10.91 g/m*3 14.95 C 0 km/h
1947 25-10-2017 19:00:00 14.2 C 10.96 g/m*3 14.2 C 0 km/h
1948 25-10-2017 20:00:00 14.66667 C 11.12 g/m*3 14.67 C 1.73333 km/h
1949 25-10-2017 21:00:00 14.74167 C 11.12 g/m*3 14.74 C 0 km/h
1950 25-10-2017 22:00:00 14.61667 C 11.14 g/m*3 14.62 C 0 km/h
Sensor: Nr:Datum:Temp:Abs-Feuchte:Windchill:Wind:
Aussen-T/F 1951 25-10-2017 23:00:00 14 C 10.88 g/m*3 14 C 0 km/h
1952 26-10-2017 00:00:00 13.38333 C 10.71 g/m*3 13.38 C 0 km/h
1953 26-10-2017 01:00:00 13.375 C 10.79 g/m*3 13.38 C 0 km/h
1954 26-10-2017 02:00:00 13.40833 C 10.82 g/m*3 13.41 C 0 km/h
1955 26-10-2017 03:00:00 12.875 C 10.5 g/m*3 12.88 C 0.4 km/h
1956 26-10-2017 04:00:00 11.86667 C 9.85 g/m*3 11.87 C 0.53333 km/h
1957 26-10-2017 05:00:00 11.54167 C 9.81 g/m*3 11.54 C 0.66667 km/h
1958 26-10-2017 06:00:00 12 C 10.14 g/m*3 12 C 3.625 km/h
1959 26-10-2017 07:00:00 12.05833 C 10.16 g/m*3 12.06 C 0.8 km/h
1960 26-10-2017 08:00:00 12.05 C 10.16 g/m*3 12.05 C 0.66667 km/h
1961 26-10-2017 09:00:00 12.125 C 10.19 g/m*3 12.13 C 4.425 km/h
1962 26-10-2017 10:00:00 12.4 C 10.22 g/m*3 12.4 C 5.75 km/h
1963 26-10-2017 11:00:00 13.06667 C 10.45 g/m*3 13.07 C 5.88333 km/h
1964 26-10-2017 12:00:00 13.825 C 10.74 g/m*3 13.83 C 9.83333 km/h
1965 26-10-2017 13:00:00 14.59167 C 10.99 g/m*3 14.59 C 9.3 km/h
1966 26-10-2017 14:00:00 15.31667 C 11.2 g/m*3 15.32 C 10.49167 km/h
1967 26-10-2017 15:00:00 15.13333 C 11.1 g/m*3 15.13 C 8.75 km/h
1968 26-10-2017 16:00:00 14.86667 C 10.99 g/m*3 14.87 C 8.88333 km/h
1969 26-10-2017 17:00:00 14.45 C 10.84 g/m*3 14.45 C 4.80833 km/h
1970 26-10-2017 18:00:00 14.1 C 10.71 g/m*3 14.1 C 3.75 km/h
1971 26-10-2017 19:00:00 13.74167 C 10.53 g/m*3 13.74 C 8.06667 km/h
1972 26-10-2017 20:00:00 13.49167 C 10.41 g/m*3 13.49 C 8.2 km/h
1973 26-10-2017 21:00:00 13.14167 C 10.32 g/m*3 13.14 C 6.05 km/h
1974 26-10-2017 22:00:00 12.85833 C 10.26 g/m*3 12.86 C 0.675 km/h
1975 26-10-2017 23:00:00 12.75 C 10.27 g/m*3 12.75 C 3.23333 km/h
Sensor: Nr:Datum:Temp:Abs-Feuchte:Windchill:Wind:
Aussen-T/F 1976 27-10-2017 00:00:00 12.89167 C 10.26 g/m*3 12.89 C 6.15833 km/h
1977 27-10-2017 01:00:00 13.13333 C 10.41 g/m*3 13.13 C 5.61667 km/h
1978 27-10-2017 02:00:00 13.15 C 10.5 g/m*3 13.15 C 1.46667 km/h
1979 27-10-2017 03:00:00 12.69167 C 10.49 g/m*3 12.69 C 1.34167 km/h
1980 27-10-2017 04:00:00 11.775 C 9.81 g/m*3 11.78 C 2.55 km/h
1981 27-10-2017 05:00:00 11.24167 C 9.54 g/m*3 11.24 C 0 km/h
1982 27-10-2017 06:00:00 11.28333 C 9.66 g/m*3 11.28 C 7.13333 km/h
1983 27-10-2017 07:00:00 11.00833 C 9.46 g/m*3 11.01 C 3.61667 km/h
1984 27-10-2017 08:00:00 10.63333 C 9.32 g/m*3 10.63 C 4.54167 km/h
1985 27-10-2017 09:00:00 11.25 C 9.52 g/m*3 11.25 C 7.38333 km/h
1986 27-10-2017 10:00:00 11.44167 C 9.41 g/m*3 11.44 C 9 km/h
1987 27-10-2017 11:00:00 10.7 C 9.13 g/m*3 10.7 C 3.06667 km/h
1988 27-10-2017 12:00:00 11.49167 C 9.4 g/m*3 11.49 C 9.28333 km/h
1989 27-10-2017 13:00:00 12.05833 C 9.21 g/m*3 12.06 C 11.4 km/h
1990 27-10-2017 14:00:00 12.725 C 8.91 g/m*3 12.73 C 15.43333 km/h
1991 27-10-2017 15:00:00 12.84167 C 8.85 g/m*3 12.84 C 10.61667 km/h
1992 27-10-2017 16:00:00 12.625 C 8.79 g/m*3 12.63 C 11.15 km/h
1993 27-10-2017 17:00:00 11.425 C 8.64 g/m*3 11.43 C 4.95833 km/h
1994 27-10-2017 18:00:00 10.15 C 8.52 g/m*3 10.15 C 0.93333 km/h
1995 27-10-2017 19:00:00 9.95 C 8.5 g/m*3 9.95 C 1.33333 km/h
1996 27-10-2017 20:00:00 10.60833 C 8.73 g/m*3 10.61 C 1.6 km/h
1997 27-10-2017 21:00:00 10.65833 C 8.59 g/m*3 10.66 C 2.8 km/h
1998 27-10-2017 22:00:00 10.23333 C 8.28 g/m*3 9.99 C 5.09167 km/h
1999 27-10-2017 23:00:00 9.825 C 8.17 g/m*3 9.82 C 0.8 km/h
2000 28-10-2017 00:00:00 9.69167 C 8.22 g/m*3 9.69 C 0.66667 km/h
Sensor: Nr:Datum:Temp:Abs-Feuchte:Windchill:Wind:
Aussen-T/F 2001 28-10-2017 01:00:00 9.14167 C 8.04 g/m*3 9.14 C 0.4 km/h
2002 28-10-2017 02:00:00 8.56667 C 7.85 g/m*3 8.57 C 0.26667 km/h
2003 28-10-2017 03:00:00 8.74167 C 7.98 g/m*3 8.74 C 4.53333 km/h
2004 28-10-2017 04:00:00 9.10833 C 8.01 g/m*3 8.63 C 5.35833 km/h
2005 28-10-2017 05:00:00 9.11667 C 7.99 g/m*3 8.49 C 5.88333 km/h
2006 28-10-2017 06:00:00 9.15 C 7.95 g/m*3 8.27 C 6.85 km/h
2007 28-10-2017 07:00:00 9.04167 C 7.87 g/m*3 9.04 C 4.94167 km/h
2008 28-10-2017 08:00:00 8.54167 C 7.77 g/m*3 7.9 C 5.625 km/h
2009 28-10-2017 09:00:00 8.89167 C 7.86 g/m*3 8.89 C 4.96667 km/h
2010 28-10-2017 10:00:00 9.66667 C 7.82 g/m*3 8.63 C 7.925 km/h
2011 28-10-2017 11:00:00 10.425 C 7.8 g/m*3 9.08 C 10.35 km/h
2012 28-10-2017 12:00:00 11.13333 C 7.6 g/m*3 11.13 C 15.03333 km/h
2013 28-10-2017 13:00:00 11.425 C 7.45 g/m*3 11.43 C 16.23333 km/h
2014 28-10-2017 14:00:00 11.61667 C 7.38 g/m*3 11.62 C 13.83333 km/h
2015 28-10-2017 15:00:00 11.925 C 7.43 g/m*3 11.93 C 14.23333 km/h
2016 28-10-2017 16:00:00 12.04167 C 7.53 g/m*3 12.04 C 13.43333 km/h
2017 28-10-2017 17:00:00 11.46667 C 7.76 g/m*3 11.47 C 9.68333 km/h
2018 28-10-2017 18:00:00 11.18333 C 7.81 g/m*3 11.18 C 11.3 km/h
2019 28-10-2017 19:00:00 11.24167 C 7.84 g/m*3 11.24 C 9.66667 km/h
2020 28-10-2017 20:00:00 11.16667 C 8.25 g/m*3 11.17 C 6.43333 km/h
2021 28-10-2017 21:00:00 11.3 C 8.81 g/m*3 11.3 C 10.475 km/h
2022 28-10-2017 22:00:00 11.94167 C 9.05 g/m*3 11.94 C 15.16667 km/h
2023 28-10-2017 23:00:00 12.13333 C 9.31 g/m*3 12.13 C 17.16667 km/h
2024 29-10-2017 00:00:00 12.06667 C 9.54 g/m*3 12.07 C 16.10833 km/h
2025 29-10-2017 01:00:00 12.325 C 9.72 g/m*3 12.33 C 15.43333 km/h
Sensor: Nr:Datum:Temp:Abs-Feuchte:Windchill:Wind:
Aussen-T/F 2026 29-10-2017 02:00:00 12.36667 C 9.89 g/m*3 12.37 C 11.29167 km/h
2027 29-10-2017 04:00:00 14.51739 C 10.54 g/m*3 14.52 C 19.15652 km/h
2028 29-10-2017 05:00:00 14.21538 C 10.63 g/m*3 14.22 C 16.34615 km/h
2029 29-10-2017 06:00:00 12.96667 C 10.41 g/m*3 12.97 C 16.63333 km/h
2030 29-10-2017 07:00:00 11.69167 C 9.46 g/m*3 11.69 C 20.11667 km/h
2031 29-10-2017 08:00:00 11.05 C 8.89 g/m*3 11.05 C 16.76667 km/h
2032 29-10-2017 09:00:00 11.30833 C 8.23 g/m*3 11.31 C 23.45833 km/h
2033 29-10-2017 10:00:00 11.19167 C 7.19 g/m*3 11.19 C 21.98333 km/h
2034 29-10-2017 11:00:00 11.525 C 6.89 g/m*3 11.53 C 20.5 km/h
2035 29-10-2017 12:00:00 11.65 C 6.63 g/m*3 11.65 C 21.44167 km/h
2036 29-10-2017 13:00:00 11.125 C 7.19 g/m*3 11.13 C 16.36667 km/h
2037 29-10-2017 14:00:00 10.36667 C 7.29 g/m*3 8.39 C 14.76667 km/h
2038 29-10-2017 15:00:00 10.3 C 7.41 g/m*3 8.45 C 13.68333 km/h
2039 29-10-2017 16:00:00 10.23333 C 7.29 g/m*3 8.85 C 10.34167 km/h
2040 29-10-2017 17:00:00 8.80833 C 7.05 g/m*3 8.25 C 5.5 km/h
2041 29-10-2017 18:00:00 8.1 C 6.84 g/m*3 7.57 C 5.08333 km/h
2042 29-10-2017 19:00:00 7.84167 C 6.77 g/m*3 6.94 C 6.18333 km/h
2043 29-10-2017 20:00:00 8.10833 C 6.97 g/m*3 7.44 C 5.50833 km/h
2044 29-10-2017 21:00:00 7.16667 C 6.92 g/m*3 7.17 C 1.06667 km/h
2045 29-10-2017 22:00:00 6.39167 C 6.78 g/m*3 6.39 C 0 km/h
2046 29-10-2017 23:00:00 5.95833 C 6.67 g/m*3 5.96 C 0 km/h
2047 30-10-2017 00:00:00 6.275 C 6.84 g/m*3 6.28 C 0 km/h
2048 30-10-2017 01:00:00 6.18333 C 6.67 g/m*3 6.18 C 0 km/h
2049 30-10-2017 02:00:00 6.4 C 6.82 g/m*3 6.4 C 0.13333 km/h
2050 30-10-2017 03:00:00 6.31667 C 6.64 g/m*3 6.32 C 0 km/h
Sensor: Nr:Datum:Temp:Abs-Feuchte:Windchill:Wind:
Aussen-T/F 2051 30-10-2017 04:00:00 6.1 C 6.65 g/m*3 6.1 C 0.53333 km/h
2052 30-10-2017 05:00:00 5.9 C 6.54 g/m*3 5.9 C 0.4 km/h
2053 30-10-2017 06:00:00 5.30833 C 6.36 g/m*3 5.31 C 0.4 km/h
2054 30-10-2017 07:00:00 5.80833 C 6.62 g/m*3 5.81 C 0 km/h
2055 30-10-2017 08:00:00 6.33333 C 6.74 g/m*3 6.33 C 0.66667 km/h
2056 30-10-2017 09:00:00 7.08333 C 6.88 g/m*3 7.08 C 4.29167 km/h
2057 30-10-2017 10:00:00 8.00833 C 7 g/m*3 6.09 C 10.88333 km/h
2058 30-10-2017 11:00:00 8.65833 C 7.03 g/m*3 7.09 C 9.68333 km/h
2059 30-10-2017 12:00:00 9.49167 C 7.04 g/m*3 8.18 C 9.14167 km/h
2060 30-10-2017 13:00:00 9.89167 C 6.92 g/m*3 8.86 C 8.075 km/h
2061 30-10-2017 14:00:00 10.00833 C 6.9 g/m*3 9.09 C 7.65833 km/h
2062 30-10-2017 15:00:00 10.11667 C 6.94 g/m*3 9.25 C 7.51667 km/h
2063 30-10-2017 16:00:00 9.84167 C 6.96 g/m*3 9.84 C 4.69167 km/h
2064 30-10-2017 17:00:00 8.95 C 6.95 g/m*3 8.95 C 3.6 km/h
2065 30-10-2017 18:00:00 8.41667 C 6.79 g/m*3 8.42 C 2.8 km/h
2066 30-10-2017 19:00:00 7.16667 C 6.54 g/m*3 7.17 C 1.2 km/h
2067 30-10-2017 20:00:00 6.46667 C 6.47 g/m*3 6.47 C 0.26667 km/h
2068 30-10-2017 21:00:00 5.00833 C 6.08 g/m*3 5.01 C 0.13333 km/h
2069 30-10-2017 22:00:00 4.55833 C 6.09 g/m*3 4.56 C 0.4 km/h
2070 30-10-2017 23:00:00 3.86667 C 5.85 g/m*3 3.87 C 1.06667 km/h
2071 31-10-2017 00:00:00 3.15 C 5.63 g/m*3 3.15 C 0.13333 km/h
2072 31-10-2017 01:00:00 3.20833 C 5.71 g/m*3 3.21 C 3.20833 km/h
2073 31-10-2017 02:00:00 3.45833 C 5.82 g/m*3 2.3 C 5.075 km/h
2074 31-10-2017 03:00:00 3.7 C 5.87 g/m*3 3.7 C 3.06667 km/h
2075 31-10-2017 04:00:00 3.925 C 5.93 g/m*3 3.93 C 2.13333 km/h
Sensor: Nr:Datum:Temp:Abs-Feuchte:Windchill:Wind:
Aussen-T/F 2076 31-10-2017 05:00:00 4.16667 C 5.98 g/m*3 4.17 C 1.2 km/h
2077 31-10-2017 06:00:00 4.34167 C 6.05 g/m*3 4.34 C 1.2 km/h
2078 31-10-2017 07:00:00 4.6 C 6.15 g/m*3 4.6 C 0.66667 km/h
2079 31-10-2017 08:00:00 4.93333 C 6.29 g/m*3 4.93 C 0.13333 km/h
2080 31-10-2017 09:00:00 5.925 C 6.63 g/m*3 5.93 C 4.54167 km/h
2081 31-10-2017 10:00:00 7 C 6.84 g/m*3 7 C 2.53333 km/h
2082 31-10-2017 11:00:00 7.9 C 7.05 g/m*3 7.9 C 4.41667 km/h
2083 31-10-2017 12:00:00 9.69167 C 7.15 g/m*3 9.33 C 5.23333 km/h
2084 31-10-2017 13:00:00 10.99167 C 7.11 g/m*3 10.3 C 7.38333 km/h
2085 31-10-2017 14:00:00 11.375 C 7.2 g/m*3 11.38 C 6.15833 km/h
2086 31-10-2017 15:00:00 11.44167 C 7.23 g/m*3 11.44 C 5.225 km/h
2087 31-10-2017 16:00:00 11.14167 C 7.52 g/m*3 11.14 C 0.8 km/h
2088 31-10-2017 17:00:00 9.55 C 7.52 g/m*3 9.55 C 0.26667 km/h
2089 31-10-2017 18:00:00 8.9 C 7.46 g/m*3 8.9 C 0.4 km/h
2090 31-10-2017 19:00:00 8.8 C 7.45 g/m*3 8.8 C 0 km/h
2091 31-10-2017 20:00:00 8.80833 C 7.42 g/m*3 8.81 C 0.13333 km/h
2092 31-10-2017 21:00:00 8.93333 C 7.33 g/m*3 8.93 C 1.06667 km/h
2093 31-10-2017 22:00:00 9.06667 C 7.27 g/m*3 9.07 C 3.08333 km/h
2094 31-10-2017 23:00:00 9.425 C 7.24 g/m*3 8.59 C 6.84167 km/h
2095 01-11-2017 00:00:00 9.50833 C 7.31 g/m*3 8.69 C 6.84167 km/h
2096 01-11-2017 01:00:00 9.33333 C 7.29 g/m*3 8.1 C 8.59167 km/h
2097 01-11-2017 02:00:00 9.01667 C 7.19 g/m*3 8.37 C 5.89167 km/h
2098 01-11-2017 03:00:00 9 C 7.22 g/m*3 7.82 C 8.075 km/h
2099 01-11-2017 04:00:00 8.46667 C 7.22 g/m*3 7.74 C 5.9 km/h
2100 01-11-2017 05:00:00 7.51667 C 6.98 g/m*3 7.52 C 3.475 km/h
Sensor: Nr:Datum:Temp:Abs-Feuchte:Windchill:Wind:
Aussen-T/F 2101 01-11-2017 06:00:00 7.24167 C 6.9 g/m*3 7.24 C 4.95833 km/h
2102 01-11-2017 07:00:00 6.85833 C 6.76 g/m*3 6.86 C 4.13333 km/h
2103 01-11-2017 08:00:00 6.725 C 6.86 g/m*3 5.78 C 5.775 km/h
2104 01-11-2017 09:00:00 7.66667 C 7.05 g/m*3 6.1 C 8.73333 km/h
2105 01-11-2017 10:00:00 8.60833 C 7.3 g/m*3 7.27 C 8.475 km/h
2106 01-11-2017 11:00:00 9.44167 C 7.59 g/m*3 9.44 C 4.14167 km/h
2107 01-11-2017 12:00:00 9.90833 C 7.98 g/m*3 9.91 C 0.13333 km/h
2108 01-11-2017 13:00:00 10.63333 C 8.31 g/m*3 10.63 C 1.46667 km/h
2109 01-11-2017 14:00:00 11.30833 C 8.5 g/m*3 11.31 C 2.26667 km/h
2110 01-11-2017 15:00:00 11.575 C 8.61 g/m*3 11.58 C 1.2 km/h
2111 01-11-2017 16:00:00 11.11667 C 8.44 g/m*3 11.12 C 4.93333 km/h
2112 01-11-2017 17:00:00 10.05833 C 8.03 g/m*3 10.06 C 3.06667 km/h
2113 01-11-2017 18:00:00 8.84167 C 7.54 g/m*3 8.84 C 0.13333 km/h
2114 01-11-2017 19:00:00 7.98333 C 7.19 g/m*3 7.98 C 0 km/h
2115 01-11-2017 20:00:00 7.58333 C 6.96 g/m*3 7.58 C 0 km/h
2116 01-11-2017 21:00:00 7.15833 C 6.95 g/m*3 7.16 C 0 km/h
2117 01-11-2017 22:00:00 7.175 C 7.05 g/m*3 7.18 C 0 km/h
2118 01-11-2017 23:00:00 6.8 C 6.9 g/m*3 6.8 C 0 km/h
2119 02-11-2017 00:00:00 6.68333 C 6.98 g/m*3 6.68 C 0 km/h
2120 02-11-2017 01:00:00 6.96667 C 7.17 g/m*3 6.97 C 0 km/h
2121 02-11-2017 02:00:00 7.09167 C 7.17 g/m*3 7.09 C 0 km/h
2122 02-11-2017 03:00:00 6.375 C 6.85 g/m*3 6.38 C 0.4 km/h
2123 02-11-2017 04:00:00 6.18333 C 6.84 g/m*3 6.18 C 1.6 km/h
2124 02-11-2017 05:00:00 5.88333 C 6.73 g/m*3 5.88 C 0.26667 km/h
2125 02-11-2017 06:00:00 5.875 C 6.77 g/m*3 5.88 C 0.53333 km/h
Sensor: Nr:Datum:Temp:Abs-Feuchte:Windchill:Wind:
Aussen-T/F 2126 02-11-2017 07:00:00 6.23333 C 6.87 g/m*3 6.23 C 0.53333 km/h
2127 02-11-2017 08:00:00 6.66667 C 7.09 g/m*3 6.67 C 3.20833 km/h
2128 02-11-2017 09:00:00 8.25833 C 7.45 g/m*3 7.58 C 5.63333 km/h
2129 02-11-2017 10:00:00 9.55833 C 7.77 g/m*3 7.78 C 11.96667 km/h
2130 02-11-2017 11:00:00 10.58333 C 8.08 g/m*3 9.91 C 6.98333 km/h
2131 02-11-2017 12:00:00 11.38333 C 8.52 g/m*3 11.38 C 5.76667 km/h
2132 02-11-2017 13:00:00 12.68333 C 9.03 g/m*3 12.68 C 4.55 km/h
2133 02-11-2017 14:00:00 13.675 C 8.91 g/m*3 13.68 C 9.79167 km/h
2134 02-11-2017 15:00:00 13.45833 C 8.69 g/m*3 13.46 C 5.49167 km/h
2135 02-11-2017 16:00:00 12.48333 C 8.48 g/m*3 12.48 C 6.01667 km/h
2136 02-11-2017 17:00:00 11.4 C 8.39 g/m*3 11.4 C 0.4 km/h
2137 02-11-2017 18:00:00 10.45 C 8.19 g/m*3 10.45 C 0 km/h
2138 02-11-2017 19:00:00 8.925 C 7.55 g/m*3 8.93 C 2.53333 km/h
2139 02-11-2017 20:00:00 7.175 C 7.07 g/m*3 7.18 C 0.13333 km/h
2140 02-11-2017 21:00:00 6.56667 C 7.02 g/m*3 6.57 C 0 km/h
2141 02-11-2017 22:00:00 6.95833 C 7.26 g/m*3 6.96 C 0.13333 km/h
2142 02-11-2017 23:00:00 6.41667 C 7.02 g/m*3 6.42 C 0.13333 km/h
2143 03-11-2017 00:00:00 6.66667 C 7.2 g/m*3 6.67 C 0.8 km/h
2144 03-11-2017 01:00:00 6.41667 C 7.09 g/m*3 6.42 C 0.53333 km/h
2145 03-11-2017 02:00:00 5.7 C 6.76 g/m*3 5.7 C 0 km/h
2146 03-11-2017 03:00:00 5.70833 C 6.82 g/m*3 5.71 C 0.53333 km/h
2147 03-11-2017 04:00:00 5.44167 C 6.69 g/m*3 5.44 C 1.73333 km/h
2148 03-11-2017 05:00:00 5.35833 C 6.68 g/m*3 5.36 C 1.86667 km/h
2149 03-11-2017 06:00:00 5.85833 C 6.9 g/m*3 5.86 C 1.6 km/h
2150 03-11-2017 07:00:00 6.325 C 7.14 g/m*3 6.33 C 0 km/h
Sensor: Nr:Datum:Temp:Abs-Feuchte:Windchill:Wind:
Aussen-T/F 2151 03-11-2017 08:00:00 6.84167 C 7.39 g/m*3 6.84 C 0.13333 km/h
2152 03-11-2017 09:00:00 7.325 C 7.6 g/m*3 7.33 C 1.33333 km/h
2153 03-11-2017 10:00:00 7.85833 C 7.79 g/m*3 7.86 C 1.2 km/h
2154 03-11-2017 11:00:00 8.36667 C 7.92 g/m*3 8.37 C 2.93333 km/h
2155 03-11-2017 12:00:00 8.81667 C 8.05 g/m*3 8.82 C 1.6 km/h
2156 03-11-2017 13:00:00 9.29167 C 8.29 g/m*3 9.29 C 0 km/h
2157 03-11-2017 14:00:00 10.74167 C 8.62 g/m*3 10.74 C 0.26667 km/h
2158 03-11-2017 15:00:00 11.19167 C 8.73 g/m*3 11.19 C 0 km/h
2159 03-11-2017 16:00:00 11.20833 C 8.96 g/m*3 11.21 C 0 km/h
2160 03-11-2017 17:00:00 9.3 C 8 g/m*3 9.3 C 0.66667 km/h
2161 03-11-2017 18:00:00 7.6 C 7.39 g/m*3 7.6 C 0 km/h
2162 03-11-2017 19:00:00 6.65833 C 7.12 g/m*3 6.66 C 0 km/h
2163 03-11-2017 20:00:00 6.03333 C 6.87 g/m*3 6.03 C 0.13333 km/h
2164 03-11-2017 21:00:00 4.98333 C 6.43 g/m*3 4.98 C 0 km/h
2165 03-11-2017 22:00:00 4.35833 C 6.19 g/m*3 4.36 C 0 km/h
2166 03-11-2017 23:00:00 4.03333 C 6.1 g/m*3 4.03 C 0 km/h
2167 04-11-2017 00:00:00 3.84167 C 6.04 g/m*3 3.84 C 0 km/h
2168 04-11-2017 01:00:00 4.1 C 6.14 g/m*3 4.1 C 0 km/h
2169 04-11-2017 02:00:00 3.98333 C 6.1 g/m*3 3.98 C 0 km/h
2170 04-11-2017 03:00:00 3.61667 C 5.95 g/m*3 3.62 C 0 km/h
2171 04-11-2017 04:00:00 3.95833 C 6.15 g/m*3 3.96 C 0 km/h
2172 04-11-2017 05:00:00 4.475 C 6.37 g/m*3 4.47 C 0 km/h
2173 04-11-2017 06:00:00 4.76667 C 6.49 g/m*3 4.77 C 0 km/h
2174 04-11-2017 07:00:00 5.06667 C 6.62 g/m*3 5.07 C 0 km/h
2175 04-11-2017 08:00:00 5.175 C 6.67 g/m*3 5.18 C 0 km/h
Sensor: Nr:Datum:Temp:Abs-Feuchte:Windchill:Wind:
Aussen-T/F 2176 04-11-2017 09:00:00 5.725 C 6.91 g/m*3 5.73 C 0 km/h
2177 04-11-2017 10:00:00 6.60833 C 7.33 g/m*3 6.61 C 0 km/h
2178 04-11-2017 11:00:00 7.99167 C 8.01 g/m*3 7.99 C 0 km/h
2179 04-11-2017 12:00:00 9.875 C 8.86 g/m*3 9.88 C 0 km/h
2180 04-11-2017 13:00:00 11.125 C 9.22 g/m*3 11.13 C 2.4 km/h
2181 04-11-2017 14:00:00 13.49167 C 10.18 g/m*3 13.49 C 7.125 km/h
2182 04-11-2017 15:00:00 13.91667 C 10.23 g/m*3 13.92 C 2.825 km/h
2183 04-11-2017 16:00:00 12.25833 C 9.75 g/m*3 12.26 C 1.6 km/h
2184 04-11-2017 17:00:00 11.075 C 9.29 g/m*3 11.08 C 1.73333 km/h
2185 04-11-2017 18:00:00 11.06667 C 9.45 g/m*3 11.07 C 1.2 km/h
2186 04-11-2017 19:00:00 11.85 C 10.02 g/m*3 11.85 C 1.86667 km/h
2187 04-11-2017 20:00:00 11.70833 C 9.99 g/m*3 11.71 C 0.8 km/h
2188 04-11-2017 21:00:00 11.84167 C 10.13 g/m*3 11.84 C 2 km/h
2189 04-11-2017 22:00:00 11.73333 C 10.06 g/m*3 11.73 C 2 km/h
2190 04-11-2017 23:00:00 10.94167 C 9.57 g/m*3 10.94 C 1.73333 km/h
2191 05-11-2017 00:00:00 10.66667 C 9.42 g/m*3 10.67 C 0 km/h
2192 05-11-2017 01:00:00 10.70833 C 9.5 g/m*3 10.71 C 0.13333 km/h
2193 05-11-2017 02:00:00 11.025 C 9.72 g/m*3 11.03 C 0 km/h
2194 05-11-2017 03:00:00 11.075 C 9.76 g/m*3 11.08 C 0 km/h
2195 05-11-2017 04:00:00 11.15833 C 9.81 g/m*3 11.16 C 0.26667 km/h
2196 05-11-2017 05:00:00 11.29167 C 9.89 g/m*3 11.29 C 0.13333 km/h
2197 05-11-2017 06:00:00 11.125 C 9.79 g/m*3 11.13 C 0 km/h
2198 05-11-2017 07:00:00 10.55 C 9.42 g/m*3 10.55 C 4.575 km/h
2199 05-11-2017 08:00:00 9.4 C 8.68 g/m*3 8.1 C 9.01667 km/h
2200 05-11-2017 09:00:00 8.875 C 8.33 g/m*3 8.37 C 5.35833 km/h
Sensor: Nr:Datum:Temp:Abs-Feuchte:Windchill:Wind:
Aussen-T/F 2201 05-11-2017 10:00:00 8.49167 C 8.12 g/m*3 8.49 C 4.15 km/h
2202 05-11-2017 11:00:00 8.30833 C 8.05 g/m*3 8.31 C 2.675 km/h
2203 05-11-2017 12:00:00 8.49167 C 7.99 g/m*3 7.65 C 6.3 km/h
2204 05-11-2017 13:00:00 9.20833 C 7.91 g/m*3 7.9 C 8.85833 km/h
2205 05-11-2017 14:00:00 9.65833 C 7.49 g/m*3 8.83 C 6.975 km/h
2206 05-11-2017 15:00:00 9.71667 C 7.38 g/m*3 8.72 C 7.78333 km/h
2207 05-11-2017 16:00:00 9.29167 C 7.49 g/m*3 9.29 C 3.34167 km/h
2208 05-11-2017 17:00:00 8.48333 C 7.06 g/m*3 7.72 C 6.04167 km/h
2209 05-11-2017 18:00:00 7.39167 C 6.95 g/m*3 7.39 C 0.93333 km/h
2210 05-11-2017 19:00:00 6.5 C 6.76 g/m*3 6.5 C 0.8 km/h
2211 05-11-2017 20:00:00 6.35 C 6.72 g/m*3 6.35 C 0.93333 km/h
2212 05-11-2017 21:00:00 5.65 C 6.52 g/m*3 5.65 C 0.66667 km/h
2213 05-11-2017 22:00:00 5.29167 C 6.45 g/m*3 5.29 C 0.13333 km/h
2214 05-11-2017 23:00:00 4.88333 C 6.32 g/m*3 4.88 C 0.8 km/h
2215 06-11-2017 00:00:00 4.175 C 6.04 g/m*3 4.18 C 1.33333 km/h
2216 06-11-2017 01:00:00 3.61667 C 5.87 g/m*3 3.62 C 1.46667 km/h
2217 06-11-2017 02:00:00 3.40833 C 5.82 g/m*3 3.41 C 0.66667 km/h
2218 06-11-2017 03:00:00 3.725 C 5.98 g/m*3 3.73 C 3.46667 km/h
2219 06-11-2017 04:00:00 3.86667 C 5.99 g/m*3 3.87 C 3.2 km/h
2220 06-11-2017 05:00:00 4.15 C 6.1 g/m*3 4.15 C 3.6 km/h
2221 06-11-2017 06:00:00 4.375 C 6.19 g/m*3 3.24 C 5.35 km/h
2222 06-11-2017 07:00:00 4.59167 C 6.28 g/m*3 4.59 C 4.94167 km/h
2223 06-11-2017 08:00:00 4.725 C 6.3 g/m*3 4.72 C 3.06667 km/h
2224 06-11-2017 09:00:00 5.18333 C 6.48 g/m*3 5.18 C 2.4 km/h
2225 06-11-2017 10:00:00 5.73333 C 6.67 g/m*3 5.73 C 1.2 km/h
Sensor: Nr:Datum:Temp:Abs-Feuchte:Windchill:Wind:
Aussen-T/F 2226 06-11-2017 11:00:00 6.49167 C 6.9 g/m*3 6.49 C 0.93333 km/h
2227 06-11-2017 12:00:00 7.33333 C 6.97 g/m*3 7.33 C 1.46667 km/h
2228 06-11-2017 13:00:00 7.61667 C 7.04 g/m*3 7.62 C 0.8 km/h
2229 06-11-2017 14:00:00 7.725 C 7.07 g/m*3 7.73 C 0 km/h
2230 06-11-2017 15:00:00 7.69167 C 7.06 g/m*3 7.69 C 0.66667 km/h
2231 06-11-2017 16:00:00 7.6 C 7.23 g/m*3 7.6 C 0 km/h
2232 06-11-2017 17:00:00 6.85833 C 7.01 g/m*3 6.86 C 0.26667 km/h
2233 06-11-2017 18:00:00 6.46667 C 6.94 g/m*3 6.47 C 0.13333 km/h
2234 06-11-2017 19:00:00 5.99167 C 6.76 g/m*3 5.99 C 1.06667 km/h
2235 06-11-2017 20:00:00 5.575 C 6.63 g/m*3 5.58 C 0 km/h
2236 06-11-2017 21:00:00 5.275 C 6.54 g/m*3 5.28 C 0 km/h
2237 06-11-2017 22:00:00 5.40833 C 6.63 g/m*3 5.41 C 0 km/h
2238 06-11-2017 23:00:00 4.75833 C 6.33 g/m*3 4.76 C 0.13333 km/h
2239 07-11-2017 00:00:00 3.46667 C 5.83 g/m*3 3.47 C 0 km/h
2240 07-11-2017 01:00:00 2.73333 C 5.55 g/m*3 2.73 C 0 km/h
2241 07-11-2017 02:00:00 2.44167 C 5.49 g/m*3 2.44 C 0 km/h
2242 07-11-2017 03:00:00 3.25 C 5.82 g/m*3 3.25 C 0.26667 km/h
2243 07-11-2017 04:00:00 3.1 C 5.75 g/m*3 3.1 C 0.13333 km/h
2244 07-11-2017 05:00:00 3.1 C 5.78 g/m*3 3.1 C 0.13333 km/h
2245 07-11-2017 06:00:00 3.2 C 5.85 g/m*3 3.2 C 0 km/h
2246 07-11-2017 07:00:00 3.3 C 5.88 g/m*3 3.3 C 1.6 km/h
2247 07-11-2017 08:00:00 3.225 C 5.86 g/m*3 3.23 C 4.4 km/h
2248 07-11-2017 09:00:00 2.71667 C 5.66 g/m*3 2.72 C 2.4 km/h
2249 07-11-2017 10:00:00 3.25833 C 5.87 g/m*3 3.26 C 2.8 km/h
2250 07-11-2017 11:00:00 4.00833 C 6.17 g/m*3 4.01 C 1.2 km/h
Sensor: Nr:Datum:Temp:Abs-Feuchte:Windchill:Wind:
Aussen-T/F 2251 07-11-2017 12:00:00 4.64167 C 6.37 g/m*3 4.64 C 2.13333 km/h
2252 07-11-2017 13:00:00 5.51667 C 6.59 g/m*3 5.52 C 1.46667 km/h
2253 07-11-2017 14:00:00 6.01667 C 6.67 g/m*3 6.02 C 0 km/h
2254 07-11-2017 15:00:00 6.24167 C 6.72 g/m*3 6.24 C 0 km/h
2255 07-11-2017 16:00:00 6.2 C 6.73 g/m*3 6.2 C 0 km/h
2256 07-11-2017 17:00:00 5.94167 C 6.73 g/m*3 5.94 C 0 km/h
2257 07-11-2017 18:00:00 5.9 C 6.78 g/m*3 5.9 C 0 km/h
2258 07-11-2017 19:00:00 5.86667 C 6.76 g/m*3 5.87 C 0 km/h
2259 07-11-2017 20:00:00 5.80833 C 6.81 g/m*3 5.81 C 0 km/h
2260 07-11-2017 21:00:00 5.775 C 6.79 g/m*3 5.78 C 0 km/h
2261 07-11-2017 22:00:00 5.64167 C 6.73 g/m*3 5.64 C 0 km/h
2262 07-11-2017 23:00:00 5.65833 C 6.74 g/m*3 5.66 C 0 km/h
2263 08-11-2017 00:00:00 5.70833 C 6.76 g/m*3 5.71 C 0 km/h
2264 08-11-2017 01:00:00 5.8 C 6.81 g/m*3 5.8 C 0 km/h
2265 08-11-2017 02:00:00 5.83333 C 6.84 g/m*3 5.83 C 0 km/h
2266 08-11-2017 03:00:00 5.9 C 6.9 g/m*3 5.9 C 0 km/h
2267 08-11-2017 04:00:00 6.01667 C 6.98 g/m*3 6.02 C 0 km/h
2268 08-11-2017 05:00:00 6.125 C 7.03 g/m*3 6.13 C 0 km/h
2269 08-11-2017 06:00:00 6.1 C 7.01 g/m*3 6.1 C 0 km/h
2270 08-11-2017 07:00:00 6.15 C 7.04 g/m*3 6.15 C 0 km/h
2271 08-11-2017 08:00:00 6.25833 C 7.09 g/m*3 6.26 C 0 km/h
2272 08-11-2017 09:00:00 6.43333 C 7.24 g/m*3 6.43 C 0 km/h
2273 08-11-2017 10:00:00 6.6 C 7.32 g/m*3 6.6 C 0 km/h
2274 08-11-2017 11:00:00 6.78333 C 7.41 g/m*3 6.78 C 0 km/h
2275 08-11-2017 12:00:00 6.875 C 7.46 g/m*3 6.88 C 0 km/h
Sensor: Nr:Datum:Temp:Abs-Feuchte:Windchill:Wind:
Aussen-T/F 2276 08-11-2017 13:00:00 7.10833 C 7.57 g/m*3 7.11 C 0.13333 km/h
2277 08-11-2017 14:00:00 7.20833 C 7.62 g/m*3 7.21 C 0 km/h
2278 08-11-2017 15:00:00 7.28333 C 7.66 g/m*3 7.28 C 0.53333 km/h
2279 08-11-2017 16:00:00 7.20833 C 7.62 g/m*3 7.21 C 1.33333 km/h
2280 08-11-2017 17:00:00 7.2 C 7.61 g/m*3 7.2 C 0.4 km/h
2281 08-11-2017 18:00:00 7.125 C 7.58 g/m*3 7.13 C 0.53333 km/h
2282 08-11-2017 19:00:00 7.1 C 7.57 g/m*3 7.1 C 1.6 km/h
2283 08-11-2017 20:00:00 7.1 C 7.57 g/m*3 7.1 C 0.53333 km/h
2284 08-11-2017 21:00:00 7.1 C 7.57 g/m*3 7.1 C 0.26667 km/h
2285 08-11-2017 22:00:00 7.10833 C 7.57 g/m*3 7.11 C 0.26667 km/h
2286 08-11-2017 23:00:00 7.2 C 7.61 g/m*3 7.2 C 0 km/h
2287 09-11-2017 00:00:00 7.2 C 7.61 g/m*3 7.2 C 0 km/h
2288 09-11-2017 01:00:00 7.26667 C 7.65 g/m*3 7.27 C 1.06667 km/h
2289 09-11-2017 02:00:00 7.3 C 7.66 g/m*3 7.3 C 0.4 km/h
2290 09-11-2017 03:00:00 7.34167 C 7.68 g/m*3 7.34 C 0.26667 km/h
2291 09-11-2017 04:00:00 7.4 C 7.71 g/m*3 7.4 C 1.06667 km/h
2292 09-11-2017 05:00:00 7.4 C 7.71 g/m*3 7.4 C 1.86667 km/h
2293 09-11-2017 06:00:00 7.49167 C 7.76 g/m*3 7.49 C 3.20833 km/h
2294 09-11-2017 07:00:00 7.48333 C 7.76 g/m*3 7.48 C 0.93333 km/h
2295 09-11-2017 08:00:00 7.43333 C 7.73 g/m*3 7.43 C 0 km/h
2296 09-11-2017 09:00:00 7.66667 C 7.92 g/m*3 7.67 C 0 km/h
2297 09-11-2017 10:00:00 8.01667 C 8.09 g/m*3 8.02 C 0 km/h
2298 09-11-2017 11:00:00 8.35833 C 8.26 g/m*3 8.36 C 1.2 km/h
2299 09-11-2017 12:00:00 8.65 C 8.35 g/m*3 8.65 C 1.33333 km/h
2300 09-11-2017 13:00:00 9.06667 C 8.43 g/m*3 9.07 C 0.26667 km/h
Sensor: Nr:Datum:Temp:Abs-Feuchte:Windchill:Wind:
Aussen-T/F 2301 09-11-2017 14:00:00 9.15833 C 8.38 g/m*3 9.16 C 1.2 km/h
2302 09-11-2017 15:00:00 9.21667 C 8.42 g/m*3 9.22 C 0.53333 km/h
2303 09-11-2017 16:00:00 8.35833 C 7.74 g/m*3 8.36 C 4.41667 km/h
2304 09-11-2017 17:00:00 7.66667 C 7.53 g/m*3 7.67 C 3.2 km/h
2305 09-11-2017 18:00:00 6.80833 C 7.23 g/m*3 6.81 C 3.06667 km/h
2306 09-11-2017 19:00:00 6.075 C 6.94 g/m*3 6.08 C 1.33333 km/h
2307 09-11-2017 20:00:00 6.175 C 7.05 g/m*3 6.18 C 2.53333 km/h
2308 09-11-2017 21:00:00 6.38333 C 7.13 g/m*3 6.38 C 4.41667 km/h
2309 09-11-2017 22:00:00 6.46667 C 7.01 g/m*3 4.81 C 8.19167 km/h
2310 09-11-2017 23:00:00 6.58333 C 6.94 g/m*3 4.48 C 10.34167 km/h
2311 10-11-2017 00:00:00 6.51667 C 6.88 g/m*3 4.05 C 12.23333 km/h
2312 10-11-2017 01:00:00 6.65833 C 6.93 g/m*3 4.68 C 9.825 km/h
2313 10-11-2017 02:00:00 6.56667 C 7.06 g/m*3 4.69 C 9.25 km/h
2314 10-11-2017 03:00:00 6.59167 C 7.1 g/m*3 5.06 C 7.79167 km/h
2315 10-11-2017 04:00:00 6.83333 C 7.08 g/m*3 4.35 C 12.75 km/h
2316 10-11-2017 05:00:00 6.9 C 7.13 g/m*3 3.89 C 16.5 km/h
2317 10-11-2017 06:00:00 7.16667 C 7.19 g/m*3 4.38 C 15.3 km/h
2318 10-11-2017 07:00:00 7.275 C 7.22 g/m*3 5.09 C 11.55833 km/h
2319 10-11-2017 08:00:00 7.45833 C 7.27 g/m*3 4.91 C 14.1 km/h
2320 10-11-2017 09:00:00 7.475 C 7.44 g/m*3 4.78 C 15.16667 km/h
2321 10-11-2017 10:00:00 7.46667 C 7.55 g/m*3 5.04 C 13.3 km/h
2322 10-11-2017 11:00:00 7.725 C 7.65 g/m*3 5.25 C 13.96667 km/h
2323 10-11-2017 12:00:00 7.80833 C 7.59 g/m*3 6.19 C 9.13333 km/h
2324 10-11-2017 13:00:00 8.13333 C 7.75 g/m*3 5.77 C 13.83333 km/h
2325 10-11-2017 14:00:00 8.675 C 7.96 g/m*3 6.33 C 14.63333 km/h
Sensor: Nr:Datum:Temp:Abs-Feuchte:Windchill:Wind:
Aussen-T/F 2326 10-11-2017 15:00:00 9.16667 C 8.2 g/m*3 7.1 C 13.43333 km/h
2327 10-11-2017 16:00:00 9.30833 C 8.27 g/m*3 8.02 C 8.85833 km/h
2328 10-11-2017 17:00:00 9.11667 C 8.28 g/m*3 7.93 C 8.2 km/h
2329 10-11-2017 18:00:00 9.125 C 7.53 g/m*3 7.39 C 11.15833 km/h
2330 10-11-2017 19:00:00 7.95833 C 6.72 g/m*3 7.07 C 6.175 km/h
2331 10-11-2017 20:00:00 7.04167 C 6.5 g/m*3 5.86 C 6.70833 km/h
2332 10-11-2017 21:00:00 6.69167 C 6.4 g/m*3 5.35 C 7.11667 km/h
2333 10-11-2017 22:00:00 6.21667 C 6.4 g/m*3 6.22 C 3.875 km/h
2334 10-11-2017 23:00:00 5.3 C 6.2 g/m*3 5.3 C 4.55 km/h
2335 11-11-2017 00:00:00 4.98333 C 6.18 g/m*3 3.69 C 6.03333 km/h
2336 11-11-2017 01:00:00 4.85 C 6.18 g/m*3 3.87 C 5.1 km/h
2337 11-11-2017 02:00:00 5.05 C 6.3 g/m*3 3.96 C 5.48333 km/h
2338 11-11-2017 03:00:00 4.99167 C 6.26 g/m*3 3.41 C 6.98333 km/h
2339 11-11-2017 04:00:00 4.85833 C 6.23 g/m*3 3.37 C 6.575 km/h
2340 11-11-2017 05:00:00 5.14167 C 6.34 g/m*3 3.83 C 6.16667 km/h
2341 11-11-2017 06:00:00 5.50833 C 6.45 g/m*3 3.97 C 7.1 km/h
2342 11-11-2017 07:00:00 5.8 C 6.46 g/m*3 3.84 C 8.99167 km/h
2343 11-11-2017 08:00:00 6.425 C 6.57 g/m*3 3.41 C 15.7 km/h
2344 11-11-2017 09:00:00 6.675 C 6.85 g/m*3 4.51 C 10.74167 km/h
2345 11-11-2017 10:00:00 6.675 C 7.07 g/m*3 4.18 C 12.625 km/h
2346 11-11-2017 11:00:00 6.8 C 7.23 g/m*3 6.8 C 2.41667 km/h
2347 11-11-2017 12:00:00 7.18333 C 7.45 g/m*3 7.18 C 1.33333 km/h
2348 11-11-2017 13:00:00 7.63333 C 7.71 g/m*3 6.95 C 5.35 km/h
2349 11-11-2017 14:00:00 8.2 C 8.03 g/m*3 8.2 C 3.61667 km/h
2350 11-11-2017 15:00:00 8.56667 C 8.23 g/m*3 8.57 C 2.53333 km/h
Sensor: Nr:Datum:Temp:Abs-Feuchte:Windchill:Wind:
Aussen-T/F 2351 11-11-2017 16:00:00 8.325 C 8.1 g/m*3 7.82 C 5.1 km/h
2352 11-11-2017 17:00:00 7.68333 C 7.78 g/m*3 7.68 C 4.29167 km/h
2353 11-11-2017 18:00:00 7.34167 C 7.61 g/m*3 7.34 C 1.86667 km/h
2354 11-11-2017 19:00:00 7.25 C 7.56 g/m*3 7.25 C 1.86667 km/h
2355 11-11-2017 20:00:00 6.775 C 7.33 g/m*3 6.78 C 0.8 km/h
2356 11-11-2017 21:00:00 6.25833 C 7.09 g/m*3 6.26 C 0.66667 km/h
2357 11-11-2017 22:00:00 6.275 C 7.13 g/m*3 6.28 C 0.93333 km/h
2358 11-11-2017 23:00:00 5.69167 C 6.83 g/m*3 5.69 C 0.53333 km/h
2359 12-11-2017 00:00:00 5.24167 C 6.63 g/m*3 5.24 C 0.13333 km/h
2360 12-11-2017 01:00:00 4.725 C 6.41 g/m*3 4.72 C 0 km/h
2361 12-11-2017 02:00:00 4.44167 C 6.32 g/m*3 4.44 C 1.6 km/h
2362 12-11-2017 03:00:00 4.425 C 6.32 g/m*3 4.43 C 1.46667 km/h
2363 12-11-2017 04:00:00 3.9 C 6.11 g/m*3 3.9 C 0.66667 km/h
2364 12-11-2017 05:00:00 3.84167 C 6.1 g/m*3 3.84 C 1.2 km/h
2365 12-11-2017 06:00:00 3.9 C 6.13 g/m*3 3.9 C 2 km/h
2366 12-11-2017 07:00:00 4.125 C 6.22 g/m*3 4.13 C 1.33333 km/h
2367 12-11-2017 08:00:00 4.34167 C 6.31 g/m*3 4.34 C 0.13333 km/h
2368 12-11-2017 09:00:00 4.84167 C 6.52 g/m*3 4.84 C 0.13333 km/h
2369 12-11-2017 10:00:00 5.08333 C 6.63 g/m*3 5.08 C 0.26667 km/h
2370 12-11-2017 11:00:00 5.175 C 6.67 g/m*3 5.18 C 0.8 km/h
2371 12-11-2017 12:00:00 4.95 C 6.57 g/m*3 4.95 C 0.13333 km/h
2372 12-11-2017 13:00:00 4.975 C 6.58 g/m*3 4.97 C 1.46667 km/h
2373 12-11-2017 14:00:00 5.25 C 6.7 g/m*3 5.25 C 1.2 km/h
2374 12-11-2017 15:00:00 5.34167 C 6.74 g/m*3 5.34 C 0.53333 km/h
2375 12-11-2017 16:00:00 4.95 C 6.48 g/m*3 2.9 C 8.70833 km/h
Sensor: Nr:Datum:Temp:Abs-Feuchte:Windchill:Wind:
Aussen-T/F 2376 12-11-2017 17:00:00 4.40833 C 6.16 g/m*3 4.41 C 3.35 km/h
2377 12-11-2017 18:00:00 4.31667 C 6.17 g/m*3 4.32 C 2 km/h
2378 12-11-2017 19:00:00 4.5 C 6.3 g/m*3 4.5 C 1.875 km/h
2379 12-11-2017 20:00:00 4.7 C 6.35 g/m*3 4.7 C 2.66667 km/h
2380 12-11-2017 21:00:00 4.84167 C 6.37 g/m*3 3.77 C 5.35833 km/h
2381 12-11-2017 22:00:00 5.01667 C 6.39 g/m*3 3.82 C 5.775 km/h
2382 12-11-2017 23:00:00 5.05 C 6.41 g/m*3 5.05 C 4.01667 km/h
2383 13-11-2017 00:00:00 5.06667 C 6.48 g/m*3 3.45 C 7.13333 km/h
2384 13-11-2017 01:00:00 5.24167 C 6.54 g/m*3 3.24 C 8.725 km/h
2385 13-11-2017 02:00:00 5.36667 C 6.54 g/m*3 4.05 C 6.3 km/h
2386 13-11-2017 03:00:00 5.4 C 6.55 g/m*3 3.39 C 8.88333 km/h
2387 13-11-2017 04:00:00 5.48333 C 6.52 g/m*3 3.68 C 8.06667 km/h
2388 13-11-2017 05:00:00 5.475 C 6.52 g/m*3 3.54 C 8.60833 km/h
2389 13-11-2017 06:00:00 5.53333 C 6.55 g/m*3 4.46 C 5.63333 km/h
2390 13-11-2017 07:00:00 5.6 C 6.57 g/m*3 4.28 C 6.425 km/h
2391 13-11-2017 08:00:00 5.69167 C 6.61 g/m*3 4.47 C 6.15833 km/h
2392 13-11-2017 09:00:00 5.94167 C 6.72 g/m*3 4.98 C 5.475 km/h
2393 13-11-2017 10:00:00 6.475 C 6.92 g/m*3 5.33 C 6.3 km/h
2394 13-11-2017 11:00:00 7.03333 C 7.05 g/m*3 5.78 C 6.975 km/h
2395 13-11-2017 12:00:00 7.61667 C 7.11 g/m*3 5.82 C 9.825 km/h
2396 13-11-2017 13:00:00 8.125 C 7.11 g/m*3 6.51 C 9.40833 km/h
2397 13-11-2017 14:00:00 8.175 C 7.01 g/m*3 7.07 C 7.11667 km/h
2398 13-11-2017 15:00:00 7.18333 C 6.84 g/m*3 6.03 C 6.7 km/h
2399 13-11-2017 16:00:00 5.38333 C 6.49 g/m*3 5.38 C 2.4 km/h
2400 13-11-2017 17:00:00 4.78333 C 6.34 g/m*3 4.78 C 1.73333 km/h
Sensor: Nr:Datum:Temp:Abs-Feuchte:Windchill:Wind:
Aussen-T/F 2401 13-11-2017 18:00:00 5.04167 C 6.54 g/m*3 5.04 C 0.4 km/h
2402 13-11-2017 19:00:00 4.89167 C 6.47 g/m*3 4.89 C 0.13333 km/h
2403 13-11-2017 20:00:00 4.19167 C 6.17 g/m*3 4.19 C 2.8 km/h
2404 13-11-2017 21:00:00 4.05833 C 6.13 g/m*3 4.06 C 1.33333 km/h
2405 13-11-2017 22:00:00 3.25 C 5.8 g/m*3 3.25 C 0.26667 km/h
2406 13-11-2017 23:00:00 3.65833 C 6.02 g/m*3 3.66 C 0.26667 km/h
2407 14-11-2017 00:00:00 4.16667 C 6.24 g/m*3 4.17 C 0.26667 km/h
2408 14-11-2017 01:00:00 4.54167 C 6.39 g/m*3 4.54 C 0.66667 km/h
2409 14-11-2017 02:00:00 4.81667 C 6.51 g/m*3 4.82 C 0.8 km/h
2410 14-11-2017 03:00:00 5.05 C 6.61 g/m*3 5.05 C 0.8 km/h
2411 14-11-2017 04:00:00 5.19167 C 6.68 g/m*3 5.19 C 0 km/h
2412 14-11-2017 05:00:00 5.04167 C 6.58 g/m*3 5.04 C 1.06667 km/h
2413 14-11-2017 06:00:00 4.39167 C 6.27 g/m*3 4.39 C 0.53333 km/h
2414 14-11-2017 07:00:00 3.61667 C 5.95 g/m*3 3.62 C 2.53333 km/h
2415 14-11-2017 08:00:00 2.975 C 5.72 g/m*3 1.75 C 5.08333 km/h
2416 14-11-2017 09:00:00 3.6 C 5.97 g/m*3 0.87 C 10.5 km/h
2417 14-11-2017 10:00:00 3.99167 C 6.07 g/m*3 1.46 C 9.95833 km/h
2418 14-11-2017 11:00:00 4.55 C 6.23 g/m*3 2.48 C 8.475 km/h
2419 14-11-2017 12:00:00 4.65 C 6.18 g/m*3 1.6 C 13.3 km/h
2420 14-11-2017 13:00:00 5.34167 C 6.32 g/m*3 2.75 C 11.56667 km/h
2421 14-11-2017 14:00:00 5.83333 C 6.44 g/m*3 3.84 C 9.14167 km/h
2422 14-11-2017 15:00:00 5.84167 C 6.43 g/m*3 4.32 C 7.26667 km/h
2423 14-11-2017 16:00:00 5.05833 C 6.21 g/m*3 5.06 C 3.88333 km/h
2424 14-11-2017 17:00:00 3.81667 C 5.84 g/m*3 3.82 C 0.8 km/h
2425 14-11-2017 18:00:00 3.84167 C 5.96 g/m*3 3.84 C 0.93333 km/h
Sensor: Nr:Datum:Temp:Abs-Feuchte:Windchill:Wind:
Aussen-T/F 2426 14-11-2017 19:00:00 4.35 C 6.16 g/m*3 2.32 C 8.20833 km/h
2427 14-11-2017 20:00:00 5.175 C 6.39 g/m*3 3.43 C 7.65833 km/h
2428 14-11-2017 21:00:00 5.35833 C 6.47 g/m*3 5.36 C 0.93333 km/h
2429 14-11-2017 22:00:00 5.54167 C 6.55 g/m*3 5.54 C 2.00833 km/h
2430 14-11-2017 23:00:00 5.56667 C 6.55 g/m*3 5.57 C 4.55 km/h
2431 15-11-2017 00:00:00 5.475 C 6.45 g/m*3 4.44 C 5.49167 km/h
2432 15-11-2017 01:00:00 5.4 C 6.42 g/m*3 4.31 C 5.625 km/h
2433 15-11-2017 02:00:00 5.4 C 6.42 g/m*3 4.51 C 5.075 km/h
2434 15-11-2017 03:00:00 5.38333 C 6.41 g/m*3 5.38 C 4.13333 km/h
2435 15-11-2017 04:00:00 5.29167 C 6.43 g/m*3 5.29 C 3.33333 km/h
2436 15-11-2017 05:00:00 5.01667 C 6.31 g/m*3 5.02 C 2.675 km/h
2437 15-11-2017 06:00:00 4.65833 C 6.23 g/m*3 4.66 C 0 km/h
2438 15-11-2017 07:00:00 4.75 C 6.33 g/m*3 4.75 C 0 km/h
2439 15-11-2017 08:00:00 5.075 C 6.49 g/m*3 5.08 C 1.2 km/h
2440 15-11-2017 09:00:00 5.74167 C 6.68 g/m*3 5.74 C 0.13333 km/h
2441 15-11-2017 10:00:00 6.44167 C 6.84 g/m*3 6.44 C 0 km/h
2442 15-11-2017 11:00:00 7.38333 C 7.11 g/m*3 7.38 C 0 km/h
2443 15-11-2017 12:00:00 8.225 C 7.34 g/m*3 8.23 C 2.26667 km/h
2444 15-11-2017 13:00:00 8.65833 C 7.49 g/m*3 8.66 C 1.6 km/h
2445 15-11-2017 14:00:00 9.13333 C 7.68 g/m*3 9.13 C 0.26667 km/h
2446 15-11-2017 15:00:00 9.41667 C 7.8 g/m*3 9.42 C 0 km/h
2447 15-11-2017 16:00:00 9.2 C 7.96 g/m*3 9.2 C 0 km/h
2448 15-11-2017 17:00:00 8.61667 C 7.9 g/m*3 8.62 C 0 km/h
2449 15-11-2017 18:00:00 8.3 C 7.84 g/m*3 8.3 C 0.26667 km/h
2450 15-11-2017 19:00:00 8.125 C 7.81 g/m*3 8.13 C 0.8 km/h
Sensor: Nr:Datum:Temp:Abs-Feuchte:Windchill:Wind:
Aussen-T/F 2451 15-11-2017 20:00:00 8.225 C 7.46 g/m*3 8.23 C 3.86667 km/h
2452 15-11-2017 21:00:00 8.00833 C 6.86 g/m*3 6.95 C 6.825 km/h
2453 15-11-2017 22:00:00 7.45 C 6.46 g/m*3 7.45 C 4.28333 km/h
2454 15-11-2017 23:00:00 6.55833 C 6.22 g/m*3 6.56 C 2.40833 km/h
2455 16-11-2017 00:00:00 4.55 C 5.87 g/m*3 4.55 C 2.13333 km/h
2456 16-11-2017 01:00:00 3.48333 C 5.67 g/m*3 3.48 C 1.2 km/h
2457 16-11-2017 02:00:00 2.76667 C 5.49 g/m*3 2.77 C 0 km/h
2458 16-11-2017 03:00:00 2.21667 C 5.34 g/m*3 2.22 C 0 km/h
2459 16-11-2017 04:00:00 1.825 C 5.22 g/m*3 1.83 C 0 km/h
2460 16-11-2017 05:00:00 2.34167 C 5.46 g/m*3 2.34 C 0 km/h
2461 16-11-2017 06:00:00 3.18333 C 5.78 g/m*3 3.18 C 0 km/h
2462 16-11-2017 07:00:00 3.65833 C 5.97 g/m*3 3.66 C 0 km/h
2463 16-11-2017 08:00:00 4 C 6.1 g/m*3 4 C 0.13333 km/h
2464 16-11-2017 09:00:00 4.65 C 6.38 g/m*3 4.65 C 1.06667 km/h
2465 16-11-2017 10:00:00 5.24167 C 6.51 g/m*3 5.24 C 1.06667 km/h
2466 16-11-2017 11:00:00 5.68333 C 6.55 g/m*3 5.68 C 2.93333 km/h
2467 16-11-2017 12:00:00 6.16667 C 6.64 g/m*3 6.17 C 3.35 km/h
2468 16-11-2017 13:00:00 6.4 C 6.67 g/m*3 6.4 C 2.80833 km/h
2469 16-11-2017 14:00:00 6.76667 C 6.74 g/m*3 6.77 C 2.93333 km/h
2470 16-11-2017 15:00:00 6.63333 C 6.72 g/m*3 6.63 C 1.6 km/h
2471 16-11-2017 16:00:00 6.54167 C 6.76 g/m*3 6.54 C 1.06667 km/h
2472 16-11-2017 17:00:00 5.90833 C 6.56 g/m*3 5.91 C 0 km/h
2473 16-11-2017 18:00:00 5.55 C 6.52 g/m*3 5.55 C 0.53333 km/h
2474 16-11-2017 19:00:00 5.51667 C 6.58 g/m*3 5.52 C 0 km/h
2475 16-11-2017 20:00:00 5.71667 C 6.7 g/m*3 5.72 C 0 km/h
Sensor: Nr:Datum:Temp:Abs-Feuchte:Windchill:Wind:
Aussen-T/F 2476 16-11-2017 21:00:00 5.86667 C 6.84 g/m*3 5.87 C 0.66667 km/h
2477 16-11-2017 22:00:00 5.8 C 6.81 g/m*3 5.8 C 0 km/h
2478 16-11-2017 23:00:00 5.74167 C 6.84 g/m*3 5.74 C 0 km/h
2479 17-11-2017 00:00:00 5.7 C 6.83 g/m*3 5.7 C 0.13333 km/h
2480 17-11-2017 01:00:00 5.7 C 6.83 g/m*3 5.7 C 1.06667 km/h
2481 17-11-2017 02:00:00 5.71667 C 6.84 g/m*3 5.72 C 0.4 km/h
2482 17-11-2017 03:00:00 5.40833 C 6.7 g/m*3 5.41 C 0.26667 km/h
2483 17-11-2017 04:00:00 5.225 C 6.62 g/m*3 5.23 C 0.4 km/h
2484 17-11-2017 05:00:00 5.41667 C 6.71 g/m*3 5.42 C 3.21667 km/h
2485 17-11-2017 06:00:00 5.58333 C 6.78 g/m*3 5.58 C 1.06667 km/h
2486 17-11-2017 07:00:00 5.675 C 6.89 g/m*3 5.68 C 1.2 km/h
2487 17-11-2017 08:00:00 5.75 C 6.91 g/m*3 5.75 C 0.53333 km/h
2488 17-11-2017 09:00:00 5.975 C 7.02 g/m*3 5.98 C 1.46667 km/h
2489 17-11-2017 10:00:00 6.325 C 7.19 g/m*3 6.33 C 2.13333 km/h
2490 17-11-2017 11:00:00 7.08333 C 7.56 g/m*3 7.08 C 1.73333 km/h
2491 17-11-2017 12:00:00 7.83333 C 7.88 g/m*3 7.83 C 0.93333 km/h
2492 17-11-2017 13:00:00 8.25833 C 8.04 g/m*3 8.26 C 2.13333 km/h
2493 17-11-2017 14:00:00 8.44167 C 8 g/m*3 8.44 C 1.06667 km/h
2494 17-11-2017 15:00:00 8.49167 C 8.02 g/m*3 8.49 C 0.53333 km/h
2495 17-11-2017 16:00:00 7.70833 C 7.6 g/m*3 7.71 C 2.66667 km/h
2496 17-11-2017 17:00:00 6.1 C 6.9 g/m*3 6.1 C 4.93333 km/h
2497 17-11-2017 18:00:00 5.38333 C 6.64 g/m*3 5.38 C 0.26667 km/h
2498 17-11-2017 19:00:00 5.2 C 6.61 g/m*3 5.2 C 0 km/h
2499 17-11-2017 20:00:00 5.125 C 6.58 g/m*3 5.13 C 0 km/h
2500 17-11-2017 21:00:00 5.21667 C 6.62 g/m*3 5.22 C 1.46667 km/h
Sensor: Nr:Datum:Temp:Abs-Feuchte:Windchill:Wind:
Aussen-T/F 2501 17-11-2017 22:00:00 4.09167 C 6.08 g/m*3 4.09 C 2.8 km/h
2502 17-11-2017 23:00:00 2.83333 C 5.59 g/m*3 2.83 C 0 km/h
2503 18-11-2017 00:00:00 2.03333 C 5.31 g/m*3 2.03 C 0.13333 km/h
2504 18-11-2017 01:00:00 1.94167 C 5.31 g/m*3 1.94 C 0 km/h
2505 18-11-2017 02:00:00 1.94167 C 5.33 g/m*3 1.94 C 1.73333 km/h
2506 18-11-2017 03:00:00 1.84167 C 5.31 g/m*3 1.84 C 1.46667 km/h
2507 18-11-2017 04:00:00 1.33333 C 5.13 g/m*3 1.33 C 3.2 km/h
2508 18-11-2017 05:00:00 1.04167 C 5.05 g/m*3 1.04 C 2.26667 km/h
2509 18-11-2017 06:00:00 0.99167 C 5.03 g/m*3 0.99 C 2.4 km/h
2510 18-11-2017 07:00:00 0.89167 C 5 g/m*3 0.89 C 1.6 km/h
2511 18-11-2017 08:00:00 1.2 C 5.1 g/m*3 -0.9 C 6.7 km/h
2512 18-11-2017 09:00:00 1.99167 C 5.39 g/m*3 -0.03 C 6.81667 km/h
2513 18-11-2017 10:00:00 3.15833 C 5.8 g/m*3 1.32 C 6.84167 km/h
2514 18-11-2017 11:00:00 4.24167 C 6.06 g/m*3 4.24 C 4.54167 km/h
2515 18-11-2017 12:00:00 5.1 C 5.97 g/m*3 3 C 9 km/h
2516 18-11-2017 13:00:00 5.575 C 5.82 g/m*3 3.25 C 10.475 km/h
2517 18-11-2017 14:00:00 5.38333 C 5.83 g/m*3 3.83 C 7.10833 km/h
2518 18-11-2017 15:00:00 5.55833 C 5.85 g/m*3 2.45 C 14.9 km/h
2519 18-11-2017 16:00:00 5.225 C 5.76 g/m*3 2 C 15.16667 km/h
2520 18-11-2017 17:00:00 5 C 5.84 g/m*3 2.14 C 12.63333 km/h
2521 18-11-2017 18:00:00 5.25 C 5.94 g/m*3 2.13 C 14.5 km/h
2522 18-11-2017 19:00:00 5.15833 C 6.05 g/m*3 2.11 C 13.95833 km/h
2523 18-11-2017 20:00:00 5.09167 C 5.95 g/m*3 2.07 C 13.7 km/h
2524 18-11-2017 21:00:00 4.89167 C 5.98 g/m*3 1.92 C 13.16667 km/h
2525 18-11-2017 22:00:00 5.11667 C 6.12 g/m*3 1.62 C 16.9 km/h
Sensor: Nr:Datum:Temp:Abs-Feuchte:Windchill:Wind:
Aussen-T/F 2526 18-11-2017 23:00:00 5.30833 C 6.29 g/m*3 2.56 C 12.36667 km/h
2527 19-11-2017 00:00:00 5.525 C 6.43 g/m*3 3.57 C 8.73333 km/h
2528 19-11-2017 01:00:00 5.13333 C 6.43 g/m*3 5.13 C 3.06667 km/h
2529 19-11-2017 02:00:00 5.09167 C 6.51 g/m*3 5.09 C 3.475 km/h
2530 19-11-2017 03:00:00 5.04167 C 6.51 g/m*3 3.35 C 7.375 km/h
2531 19-11-2017 04:00:00 4.4 C 6.21 g/m*3 4.4 C 1.46667 km/h
2532 19-11-2017 05:00:00 4.58333 C 6.31 g/m*3 4.58 C 4.28333 km/h
2533 19-11-2017 06:00:00 4.61667 C 6.28 g/m*3 4.62 C 3.34167 km/h
2534 19-11-2017 07:00:00 3.675 C 5.88 g/m*3 3.68 C 2.275 km/h
2535 19-11-2017 08:00:00 3.39167 C 5.83 g/m*3 3.39 C 1.86667 km/h
2536 19-11-2017 09:00:00 3.93333 C 6.01 g/m*3 2.05 C 7.4 km/h
2537 19-11-2017 10:00:00 4.85833 C 6.26 g/m*3 2.95 C 8.075 km/h
2538 19-11-2017 11:00:00 5.63333 C 6.6 g/m*3 4.44 C 6.03333 km/h
2539 19-11-2017 12:00:00 6.39167 C 6.86 g/m*3 4.63 C 8.58333 km/h
2540 19-11-2017 13:00:00 7.58333 C 6.74 g/m*3 5.65 C 10.48333 km/h
2541 19-11-2017 14:00:00 7.85 C 6.6 g/m*3 5.78 C 11.56667 km/h
2542 19-11-2017 15:00:00 7.65833 C 6.5 g/m*3 5.35 C 12.76667 km/h
2543 19-11-2017 16:00:00 7.15833 C 6.35 g/m*3 4.92 C 11.7 km/h
2544 19-11-2017 17:00:00 6.76667 C 6.33 g/m*3 4.06 C 14.1 km/h
2545 19-11-2017 18:00:00 6.31667 C 6.28 g/m*3 4.63 C 8.19167 km/h
2546 19-11-2017 19:00:00 6.40833 C 6.27 g/m*3 4.49 C 9.29167 km/h
2547 19-11-2017 20:00:00 6.275 C 6.23 g/m*3 4.65 C 7.925 km/h
2548 19-11-2017 21:00:00 5.75833 C 6.25 g/m*3 4.08 C 7.79167 km/h
2549 19-11-2017 22:00:00 5.925 C 6.36 g/m*3 3.58 C 10.9 km/h
2550 19-11-2017 23:00:00 5.95833 C 6.33 g/m*3 3.35 C 12.36667 km/h
Sensor: Nr:Datum:Temp:Abs-Feuchte:Windchill:Wind:
Aussen-T/F 2551 20-11-2017 00:00:00 5.73333 C 6.39 g/m*3 4.13 C 7.5 km/h
2552 20-11-2017 01:00:00 5.45 C 6.27 g/m*3 4.14 C 6.30833 km/h
2553 20-11-2017 02:00:00 5.21667 C 6.04 g/m*3 3.38 C 8.05 km/h
2554 20-11-2017 03:00:00 4.99167 C 5.93 g/m*3 2.84 C 9.15833 km/h
2555 20-11-2017 04:00:00 4.55 C 5.86 g/m*3 2.7 C 7.65833 km/h
2556 20-11-2017 05:00:00 4.18333 C 5.77 g/m*3 2.73 C 6.16667 km/h
2557 20-11-2017 06:00:00 4.08333 C 5.7 g/m*3 2.04 C 8.075 km/h
2558 20-11-2017 07:00:00 3.75 C 5.62 g/m*3 2.63 C 5.08333 km/h
2559 20-11-2017 08:00:00 3.78333 C 5.63 g/m*3 3.78 C 4.80833 km/h
2560 20-11-2017 09:00:00 4.04167 C 5.69 g/m*3 1.41 C 10.475 km/h
2561 20-11-2017 10:00:00 4.125 C 5.94 g/m*3 2.85 C 5.61667 km/h
2562 20-11-2017 11:00:00 4.54167 C 6.09 g/m*3 4.54 C 1.46667 km/h
2563 20-11-2017 12:00:00 4.95 C 6.23 g/m*3 4.95 C 4.29167 km/h
2564 20-11-2017 13:00:00 4.94167 C 6.27 g/m*3 2.72 C 9.41667 km/h
2565 20-11-2017 14:00:00 4.81667 C 6.32 g/m*3 3.28 C 6.71667 km/h
2566 20-11-2017 15:00:00 4.825 C 6.35 g/m*3 2.21 C 11.15833 km/h
2567 20-11-2017 16:00:00 4.99167 C 6.45 g/m*3 1.99 C 13.41667 km/h
2568 20-11-2017 17:00:00 5.3 C 6.52 g/m*3 1.7 C 17.96667 km/h
2569 20-11-2017 18:00:00 5.56667 C 6.67 g/m*3 1.88 C 19.19167 km/h
2570 20-11-2017 19:00:00 6.19167 C 6.91 g/m*3 2.75 C 18.5 km/h
2571 20-11-2017 20:00:00 6.725 C 7.15 g/m*3 3.39 C 18.76667 km/h
2572 20-11-2017 21:00:00 7.29167 C 7.42 g/m*3 3.99 C 19.70833 km/h
2573 20-11-2017 22:00:00 7.79167 C 7.55 g/m*3 4.62 C 19.70833 km/h
2574 20-11-2017 23:00:00 8.06667 C 7.65 g/m*3 5.58 C 14.63333 km/h
2575 21-11-2017 00:00:00 8.35 C 7.78 g/m*3 5.43 C 18.775 km/h
Sensor: Nr:Datum:Temp:Abs-Feuchte:Windchill:Wind:
Aussen-T/F 2576 21-11-2017 01:00:00 8.31667 C 7.76 g/m*3 5.78 C 15.43333 km/h
2577 21-11-2017 02:00:00 8.74167 C 8.01 g/m*3 6.45 C 14.36667 km/h
2578 21-11-2017 03:00:00 9.2 C 8.16 g/m*3 6.89 C 15.3 km/h
2579 21-11-2017 04:00:00 9.23333 C 8.23 g/m*3 7.25 C 12.89167 km/h
2580 21-11-2017 05:00:00 9.16667 C 8.2 g/m*3 6.7 C 16.49167 km/h
2581 21-11-2017 06:00:00 9.16667 C 8.2 g/m*3 6.7 C 16.5 km/h
2582 21-11-2017 07:00:00 9.35 C 8.31 g/m*3 7.39 C 12.9 km/h
2583 21-11-2017 08:00:00 9.15833 C 8.41 g/m*3 7.12 C 13.16667 km/h
2584 21-11-2017 09:00:00 9.31667 C 8.55 g/m*3 7.03 C 15.3 km/h
2585 21-11-2017 10:00:00 9.7 C 8.71 g/m*3 7.66 C 14.1 km/h
2586 21-11-2017 11:00:00 10.13333 C 8.77 g/m*3 8.11 C 14.76667 km/h
2587 21-11-2017 12:00:00 10.60833 C 8.85 g/m*3 8.29 C 18.5 km/h
2588 21-11-2017 13:00:00 10.38333 C 8.7 g/m*3 7.86 C 19.975 km/h
2589 21-11-2017 14:00:00 10.125 C 8.58 g/m*3 7.56 C 19.7 km/h
2590 21-11-2017 15:00:00 10.04167 C 8.31 g/m*3 8.97 C 8.45 km/h
2591 21-11-2017 16:00:00 9.71667 C 8.18 g/m*3 8.63 C 8.19167 km/h
2592 21-11-2017 17:00:00 9.44167 C 7.93 g/m*3 7.69 C 11.68333 km/h
2593 21-11-2017 18:00:00 9.04167 C 7.78 g/m*3 9.04 C 4.95833 km/h
2594 21-11-2017 19:00:00 8.64167 C 7.59 g/m*3 8.64 C 4.80833 km/h
2595 21-11-2017 20:00:00 8.43333 C 7.48 g/m*3 7.09 C 8.35 km/h
2596 21-11-2017 21:00:00 8.40833 C 7.47 g/m*3 7.28 C 7.39167 km/h
2597 21-11-2017 22:00:00 8.5 C 7.49 g/m*3 7.66 C 6.30833 km/h
2598 21-11-2017 23:00:00 8.6 C 7.53 g/m*3 7.78 C 6.29167 km/h
2599 22-11-2017 00:00:00 8.65833 C 7.55 g/m*3 7.74 C 6.69167 km/h
2600 22-11-2017 01:00:00 8.5 C 7.58 g/m*3 8.5 C 1.33333 km/h
Sensor: Nr:Datum:Temp:Abs-Feuchte:Windchill:Wind:
Aussen-T/F 2601 22-11-2017 02:00:00 8.4 C 7.66 g/m*3 8.4 C 1.46667 km/h
2602 22-11-2017 03:00:00 9.00833 C 7.74 g/m*3 7.95 C 7.51667 km/h
2603 22-11-2017 04:00:00 9.51667 C 7.79 g/m*3 8.46 C 7.925 km/h
2604 22-11-2017 05:00:00 9.6 C 7.8 g/m*3 9.6 C 4.28333 km/h
2605 22-11-2017 06:00:00 9.65 C 7.81 g/m*3 8.42 C 8.85 km/h
2606 22-11-2017 07:00:00 9.775 C 7.8 g/m*3 7.58 C 15.425 km/h
2607 22-11-2017 08:00:00 9.81667 C 7.75 g/m*3 7.89 C 13.43333 km/h
2608 22-11-2017 09:00:00 9.8 C 7.7 g/m*3 8.08 C 11.95833 km/h
2609 22-11-2017 10:00:00 9.74167 C 7.67 g/m*3 8.13 C 11.15833 km/h
2610 22-11-2017 11:00:00 9.70833 C 7.63 g/m*3 8.16 C 10.75833 km/h
2611 22-11-2017 12:00:00 10.03333 C 7.74 g/m*3 8.59 C 10.5 km/h
2612 22-11-2017 13:00:00 9.80833 C 7.78 g/m*3 9.81 C 4.95 km/h
2613 22-11-2017 14:00:00 9.64167 C 7.86 g/m*3 9.64 C 3.6 km/h
2614 22-11-2017 15:00:00 9.175 C 7.87 g/m*3 9.18 C 3.86667 km/h
2615 22-11-2017 16:00:00 8.41667 C 7.65 g/m*3 8.42 C 4.93333 km/h
2616 22-11-2017 17:00:00 7.325 C 7.25 g/m*3 7.33 C 2.8 km/h
2617 22-11-2017 18:00:00 5.96667 C 6.75 g/m*3 5.97 C 0 km/h
2618 22-11-2017 19:00:00 5.825 C 6.8 g/m*3 5.83 C 0.26667 km/h
2619 22-11-2017 20:00:00 5.45833 C 6.61 g/m*3 5.46 C 1.86667 km/h
2620 22-11-2017 21:00:00 5 C 6.44 g/m*3 5 C 0.93333 km/h
2621 22-11-2017 22:00:00 4.93333 C 6.43 g/m*3 4.93 C 1.86667 km/h
2622 22-11-2017 23:00:00 4.60833 C 6.29 g/m*3 4.61 C 1.33333 km/h
2623 23-11-2017 00:00:00 4.59167 C 6.28 g/m*3 4.59 C 0.66667 km/h
2624 23-11-2017 01:00:00 4.18333 C 6.09 g/m*3 4.18 C 1.86667 km/h
2625 23-11-2017 02:00:00 3.45833 C 5.82 g/m*3 3.46 C 1.06667 km/h
Sensor: Nr:Datum:Temp:Abs-Feuchte:Windchill:Wind:
Aussen-T/F 2626 23-11-2017 03:00:00 3.075 C 5.71 g/m*3 3.08 C 0 km/h
2627 23-11-2017 04:00:00 2.69167 C 5.58 g/m*3 2.69 C 0.26667 km/h
2628 23-11-2017 05:00:00 3.175 C 5.8 g/m*3 3.18 C 0.8 km/h
2629 23-11-2017 06:00:00 3.825 C 6.09 g/m*3 3.83 C 2.26667 km/h
2630 23-11-2017 07:00:00 3.925 C 6.12 g/m*3 3.93 C 2 km/h
2631 23-11-2017 08:00:00 4.08333 C 6.2 g/m*3 4.08 C 1.06667 km/h
2632 23-11-2017 09:00:00 4.825 C 6.52 g/m*3 4.83 C 3.06667 km/h
2633 23-11-2017 10:00:00 7.16667 C 7.66 g/m*3 6.29 C 5.76667 km/h
2634 23-11-2017 11:00:00 13.50833 C 9.23 g/m*3 13.51 C 17.16667 km/h
2635 23-11-2017 12:00:00 15.01667 C 9.08 g/m*3 15.02 C 19.18333 km/h
2636 23-11-2017 13:00:00 14.49167 C 9.12 g/m*3 14.49 C 11.69167 km/h
2637 23-11-2017 14:00:00 14.51667 C 9.42 g/m*3 14.52 C 14.10833 km/h
2638 23-11-2017 15:00:00 14.73333 C 9.58 g/m*3 14.73 C 11.15833 km/h
2639 23-11-2017 16:00:00 14.75833 C 9.43 g/m*3 14.76 C 10.34167 km/h
2640 23-11-2017 17:00:00 14.74167 C 9.39 g/m*3 14.74 C 11.01667 km/h
2641 23-11-2017 18:00:00 14.85833 C 9.61 g/m*3 14.86 C 13.28333 km/h
2642 23-11-2017 19:00:00 13.69167 C 9.86 g/m*3 13.69 C 4.83333 km/h
2643 23-11-2017 20:00:00 13.04167 C 10.16 g/m*3 13.04 C 9.13333 km/h
2644 23-11-2017 21:00:00 11.74167 C 9.73 g/m*3 11.74 C 2.675 km/h
2645 23-11-2017 22:00:00 11.61667 C 9.88 g/m*3 11.62 C 0.66667 km/h
2646 23-11-2017 23:00:00 11.625 C 9.97 g/m*3 11.63 C 1.2 km/h
2647 24-11-2017 00:00:00 11.69167 C 9.97 g/m*3 11.69 C 2.675 km/h
2648 24-11-2017 01:00:00 11.35833 C 9.73 g/m*3 11.36 C 0.53333 km/h
2649 24-11-2017 02:00:00 11.19167 C 9.71 g/m*3 11.19 C 0.8 km/h
2650 24-11-2017 03:00:00 11.21667 C 9.72 g/m*3 11.22 C 1.2 km/h
Sensor: Nr:Datum:Temp:Abs-Feuchte:Windchill:Wind:
Aussen-T/F 2651 24-11-2017 04:00:00 11.13333 C 9.54 g/m*3 11.13 C 2.94167 km/h
2652 24-11-2017 05:00:00 11.44167 C 9.49 g/m*3 11.44 C 3.60833 km/h
2653 24-11-2017 06:00:00 11.51667 C 9.44 g/m*3 11.52 C 4.28333 km/h
2654 24-11-2017 07:00:00 11.86667 C 9.5 g/m*3 11.87 C 7.8 km/h
2655 24-11-2017 08:00:00 12.85833 C 9.64 g/m*3 12.86 C 18.5 km/h
2656 24-11-2017 09:00:00 13.28333 C 9.56 g/m*3 13.28 C 17.96667 km/h
2657 24-11-2017 10:00:00 13.53333 C 9.57 g/m*3 13.53 C 16.775 km/h
2658 24-11-2017 11:00:00 13.33333 C 9.7 g/m*3 13.33 C 12.36667 km/h
2659 24-11-2017 12:00:00 13.16667 C 9.58 g/m*3 13.17 C 13.7 km/h
2660 24-11-2017 13:00:00 9.8 C 8.52 g/m*3 9.8 C 4.15833 km/h
2661 24-11-2017 14:00:00 9.30833 C 8.5 g/m*3 9.31 C 0.53333 km/h
2662 24-11-2017 15:00:00 9.14167 C 8.45 g/m*3 9.14 C 0.53333 km/h
2663 24-11-2017 16:00:00 8.98333 C 8.39 g/m*3 8.98 C 0.13333 km/h
2664 24-11-2017 17:00:00 8.49167 C 8.18 g/m*3 8.49 C 1.06667 km/h
2665 24-11-2017 18:00:00 8.16667 C 8.02 g/m*3 8.17 C 2.26667 km/h
2666 24-11-2017 19:00:00 7.95 C 7.91 g/m*3 7.95 C 0.26667 km/h
2667 24-11-2017 20:00:00 7.90833 C 7.89 g/m*3 7.91 C 0 km/h
2668 24-11-2017 21:00:00 7.9 C 7.89 g/m*3 7.9 C 0 km/h
2669 24-11-2017 22:00:00 7.85833 C 7.92 g/m*3 7.86 C 0 km/h
2670 24-11-2017 23:00:00 7.80833 C 7.92 g/m*3 7.81 C 0 km/h
2671 25-11-2017 00:00:00 7.9 C 7.97 g/m*3 7.9 C 0 km/h
2672 25-11-2017 01:00:00 7.75 C 7.89 g/m*3 7.75 C 0 km/h
2673 25-11-2017 02:00:00 7.38333 C 7.71 g/m*3 7.38 C 1.73333 km/h
2674 25-11-2017 03:00:00 7.55 C 7.79 g/m*3 7.55 C 2.41667 km/h
2675 25-11-2017 04:00:00 7.4 C 7.71 g/m*3 7.4 C 0 km/h
Sensor: Nr:Datum:Temp:Abs-Feuchte:Windchill:Wind:
Aussen-T/F 2676 25-11-2017 05:00:00 7.48333 C 7.76 g/m*3 7.48 C 0.8 km/h
2677 25-11-2017 06:00:00 7.39167 C 7.68 g/m*3 6.02 C 7.66667 km/h
2678 25-11-2017 07:00:00 6.70833 C 7.3 g/m*3 6.71 C 3.88333 km/h
2679 25-11-2017 08:00:00 5.99167 C 6.89 g/m*3 5.08 C 5.34167 km/h
2680 25-11-2017 09:00:00 5.59167 C 6.71 g/m*3 3.85 C 7.925 km/h
2681 25-11-2017 10:00:00 5.44167 C 6.62 g/m*3 3.37 C 9.15833 km/h
2682 25-11-2017 11:00:00 5.23333 C 6.45 g/m*3 2.75 C 10.9 km/h
2683 25-11-2017 12:00:00 4.95833 C 6.34 g/m*3 3.33 C 7.1 km/h
2684 25-11-2017 13:00:00 5.125 C 6.41 g/m*3 3.85 C 6.05833 km/h
2685 25-11-2017 14:00:00 4.90833 C 6.35 g/m*3 4.91 C 2.81667 km/h
2686 25-11-2017 15:00:00 4.85833 C 6.39 g/m*3 4.86 C 2.53333 km/h
2687 25-11-2017 16:00:00 4.50833 C 6.28 g/m*3 4.51 C 1.86667 km/h
2688 25-11-2017 17:00:00 4.2 C 6.13 g/m*3 4.2 C 0.53333 km/h
2689 25-11-2017 18:00:00 3.29167 C 5.79 g/m*3 3.29 C 0.8 km/h
2690 25-11-2017 19:00:00 3.29167 C 5.83 g/m*3 3.29 C 3.06667 km/h
2691 25-11-2017 20:00:00 3.475 C 5.85 g/m*3 2.01 C 5.88333 km/h
2692 25-11-2017 21:00:00 3.03333 C 5.68 g/m*3 3.03 C 2.26667 km/h
2693 25-11-2017 22:00:00 1.875 C 5.25 g/m*3 1.88 C 0.66667 km/h
2694 25-11-2017 23:00:00 1.99167 C 5.34 g/m*3 1.99 C 4.14167 km/h
2695 26-11-2017 00:00:00 2.35 C 5.46 g/m*3 0.71 C 5.9 km/h
2696 26-11-2017 01:00:00 2.26667 C 5.41 g/m*3 -0.05 C 7.925 km/h
2697 26-11-2017 02:00:00 2.53333 C 5.48 g/m*3 -0.28 C 9.95833 km/h
2698 26-11-2017 03:00:00 2.61667 C 5.45 g/m*3 0.32 C 8.05833 km/h
2699 26-11-2017 04:00:00 2.58333 C 5.39 g/m*3 -0.31 C 10.35833 km/h
2700 26-11-2017 05:00:00 2.525 C 5.35 g/m*3 -0.25 C 9.81667 km/h
Sensor: Nr:Datum:Temp:Abs-Feuchte:Windchill:Wind:
Aussen-T/F 2701 26-11-2017 06:00:00 2.725 C 5.35 g/m*3 0.05 C 9.56667 km/h
2702 26-11-2017 07:00:00 2.875 C 5.32 g/m*3 0.04 C 10.33333 km/h
2703 26-11-2017 08:00:00 2.93333 C 5.33 g/m*3 0.11 C 10.35833 km/h
2704 26-11-2017 09:00:00 3.48333 C 5.46 g/m*3 0.48 C 11.69167 km/h
2705 26-11-2017 10:00:00 4.2 C 5.58 g/m*3 1.4 C 11.43333 km/h
2706 26-11-2017 11:00:00 4.64167 C 5.71 g/m*3 1.45 C 14.1 km/h
2707 26-11-2017 12:00:00 4.95 C 5.77 g/m*3 1.83 C 14.1 km/h
2708 26-11-2017 13:00:00 5.325 C 5.76 g/m*3 2.25 C 14.35833 km/h
2709 26-11-2017 14:00:00 5.6 C 5.74 g/m*3 3.41 C 9.825 km/h
2710 26-11-2017 15:00:00 5.40833 C 5.7 g/m*3 2.78 C 11.825 km/h
2711 26-11-2017 16:00:00 5.08333 C 5.73 g/m*3 2.29 C 12.36667 km/h
2712 26-11-2017 17:00:00 4.73333 C 5.72 g/m*3 2.41 C 9.675 km/h
2713 26-11-2017 18:00:00 4.325 C 5.61 g/m*3 2.12 C 8.86667 km/h
2714 26-11-2017 19:00:00 3.85 C 5.58 g/m*3 1.36 C 9.68333 km/h
2715 26-11-2017 20:00:00 4.36667 C 5.68 g/m*3 2.45 C 7.78333 km/h
2716 26-11-2017 21:00:00 4.10833 C 5.64 g/m*3 2.73 C 5.9 km/h
2717 26-11-2017 22:00:00 3.625 C 5.55 g/m*3 3.63 C 4.93333 km/h
2718 26-11-2017 23:00:00 3.60833 C 5.62 g/m*3 2.06 C 6.175 km/h
2719 27-11-2017 00:00:00 4 C 5.67 g/m*3 2.29 C 6.85 km/h
2720 27-11-2017 01:00:00 3.45 C 5.5 g/m*3 0.95 C 9.40833 km/h
2721 27-11-2017 02:00:00 3.925 C 5.35 g/m*3 1.04 C 11.56667 km/h
2722 27-11-2017 03:00:00 4.025 C 5.43 g/m*3 0.98 C 12.5 km/h
2723 27-11-2017 04:00:00 3.84167 C 5.44 g/m*3 0.68 C 12.9 km/h
2724 27-11-2017 05:00:00 3.83333 C 5.38 g/m*3 1.15 C 10.49167 km/h
2725 27-11-2017 06:00:00 3.73333 C 5.42 g/m*3 0.6 C 12.63333 km/h
Sensor: Nr:Datum:Temp:Abs-Feuchte:Windchill:Wind:
Aussen-T/F 2726 27-11-2017 07:00:00 3.80833 C 5.48 g/m*3 0.3 C 14.9 km/h
2727 27-11-2017 08:00:00 4.15833 C 5.74 g/m*3 1.79 C 9.40833 km/h
2728 27-11-2017 09:00:00 4.78333 C 5.99 g/m*3 1.93 C 12.36667 km/h
2729 27-11-2017 10:00:00 5.76667 C 6.27 g/m*3 2.57 C 15.83333 km/h
2730 27-11-2017 11:00:00 6.44167 C 6.39 g/m*3 3.13 C 17.96667 km/h
2731 27-11-2017 12:00:00 6.75 C 6.51 g/m*3 3.45 C 18.5 km/h
2732 27-11-2017 13:00:00 7.06667 C 6.62 g/m*3 3.53 C 21.30833 km/h
2733 27-11-2017 14:00:00 7.06667 C 6.69 g/m*3 3.4 C 22.65 km/h
2734 27-11-2017 15:00:00 6.85833 C 6.65 g/m*3 2.9 C 25.05833 km/h
2735 27-11-2017 16:00:00 6.525 C 6.55 g/m*3 2.41 C 25.74167 km/h
2736 27-11-2017 17:00:00 6.575 C 6.54 g/m*3 2.7 C 23.30833 km/h
2737 27-11-2017 18:00:00 6.775 C 6.58 g/m*3 2.73 C 25.75 km/h
2738 27-11-2017 19:00:00 7.04167 C 6.78 g/m*3 3.22 C 24.11667 km/h
2739 27-11-2017 20:00:00 7.10833 C 6.89 g/m*3 3.48 C 22.375 km/h
2740 27-11-2017 21:00:00 7.35 C 6.98 g/m*3 4.04 C 19.975 km/h
2741 27-11-2017 22:00:00 7.5 C 7.12 g/m*3 4.58 C 16.9 km/h
2742 27-11-2017 23:00:00 7.60833 C 7.22 g/m*3 4.78 C 16.36667 km/h
2743 28-11-2017 00:00:00 7.94167 C 7.23 g/m*3 5.41 C 14.76667 km/h
2744 28-11-2017 01:00:00 7.58333 C 7.28 g/m*3 5.35 C 12.225 km/h
2745 28-11-2017 02:00:00 7.24167 C 7.28 g/m*3 5.19 C 10.75833 km/h
2746 28-11-2017 03:00:00 6.89167 C 7.26 g/m*3 6.89 C 3.75 km/h
2747 28-11-2017 04:00:00 6.51667 C 7.13 g/m*3 6.52 C 1.6 km/h
2748 28-11-2017 05:00:00 5.88333 C 6.86 g/m*3 5.88 C 0.8 km/h
2749 28-11-2017 06:00:00 5.43333 C 6.68 g/m*3 5.43 C 1.73333 km/h
2750 28-11-2017 07:00:00 5.11667 C 6.57 g/m*3 5.12 C 2.54167 km/h
Sensor: Nr:Datum:Temp:Abs-Feuchte:Windchill:Wind:
Aussen-T/F 2751 28-11-2017 08:00:00 4.76667 C 6.42 g/m*3 4.77 C 4.54167 km/h
2752 28-11-2017 09:00:00 4.58333 C 6.35 g/m*3 3.57 C 5.09167 km/h
2753 28-11-2017 10:00:00 4.35833 C 6.19 g/m*3 3.03 C 5.875 km/h
2754 28-11-2017 11:00:00 4.40833 C 6.21 g/m*3 2.61 C 7.375 km/h
2755 28-11-2017 12:00:00 4.775 C 6.29 g/m*3 3.15 C 6.98333 km/h
2756 28-11-2017 13:00:00 5.24167 C 6.43 g/m*3 4.28 C 5.20833 km/h
2757 28-11-2017 14:00:00 5.13333 C 6.33 g/m*3 5.13 C 2.53333 km/h
2758 28-11-2017 15:00:00 4.13333 C 6.02 g/m*3 4.13 C 2.4 km/h
2759 28-11-2017 16:00:00 3.24167 C 5.72 g/m*3 3.24 C 3.06667 km/h
2760 28-11-2017 17:00:00 2.44167 C 5.44 g/m*3 2.44 C 1.2 km/h
2761 28-11-2017 18:00:00 1.76667 C 5.22 g/m*3 1.77 C 0 km/h
2762 28-11-2017 19:00:00 1.075 C 5 g/m*3 1.08 C 0 km/h
2763 28-11-2017 20:00:00 0.78333 C 4.91 g/m*3 0.78 C 0 km/h
2764 28-11-2017 21:00:00 0.65 C 4.86 g/m*3 0.65 C 0.26667 km/h
2765 28-11-2017 22:00:00 0.86667 C 4.97 g/m*3 0.87 C 1.86667 km/h
2766 28-11-2017 23:00:00 1.45 C 5.19 g/m*3 1.45 C 1.06667 km/h
2767 29-11-2017 00:00:00 1.76667 C 5.31 g/m*3 1.77 C 0 km/h
2768 29-11-2017 01:00:00 1.925 C 5.36 g/m*3 1.93 C 0 km/h
2769 29-11-2017 02:00:00 2.35833 C 5.52 g/m*3 2.36 C 0 km/h
2770 29-11-2017 03:00:00 2.76667 C 5.68 g/m*3 2.77 C 0 km/h
2771 29-11-2017 04:00:00 2.98333 C 5.76 g/m*3 2.98 C 0 km/h
2772 29-11-2017 05:00:00 2.89167 C 5.73 g/m*3 2.89 C 0 km/h
2773 29-11-2017 06:00:00 3.16667 C 5.83 g/m*3 3.17 C 0.66667 km/h
2774 29-11-2017 07:00:00 3.31667 C 5.89 g/m*3 3.32 C 0 km/h
2775 29-11-2017 08:00:00 3.325 C 5.89 g/m*3 3.33 C 0.8 km/h
Sensor: Nr:Datum:Temp:Abs-Feuchte:Windchill:Wind:
Aussen-T/F 2776 29-11-2017 09:00:00 3.25 C 5.86 g/m*3 3.25 C 0.4 km/h
2777 29-11-2017 10:00:00 3.7 C 6.04 g/m*3 3.7 C 1.6 km/h
2778 29-11-2017 11:00:00 3.88333 C 6.12 g/m*3 3.88 C 2.93333 km/h
2779 29-11-2017 12:00:00 4.075 C 6.14 g/m*3 2.7 C 5.89167 km/h
2780 29-11-2017 13:00:00 3.98333 C 5.96 g/m*3 3.98 C 4.03333 km/h
2781 29-11-2017 14:00:00 4.18333 C 5.67 g/m*3 2.55 C 6.71667 km/h
2782 29-11-2017 15:00:00 3.40833 C 5.53 g/m*3 3.41 C 1.2 km/h
2783 29-11-2017 16:00:00 3.35 C 5.56 g/m*3 3.35 C 0.66667 km/h
2784 29-11-2017 17:00:00 3.125 C 5.61 g/m*3 3.13 C 0 km/h
2785 29-11-2017 18:00:00 2.85833 C 5.57 g/m*3 2.86 C 0.13333 km/h
2786 29-11-2017 19:00:00 2.7 C 5.54 g/m*3 2.7 C 0 km/h
2787 29-11-2017 20:00:00 2.51667 C 5.51 g/m*3 2.52 C 0.13333 km/h
2788 29-11-2017 21:00:00 2.65833 C 5.58 g/m*3 2.66 C 0.13333 km/h
2789 29-11-2017 22:00:00 2.41667 C 5.49 g/m*3 2.42 C 0 km/h
2790 29-11-2017 23:00:00 2.25 C 5.43 g/m*3 2.25 C 0.13333 km/h
2791 30-11-2017 00:00:00 2.48333 C 5.57 g/m*3 2.48 C 0.4 km/h
2792 30-11-2017 01:00:00 2.475 C 5.54 g/m*3 2.48 C 0.13333 km/h
2793 30-11-2017 02:00:00 2.15833 C 5.4 g/m*3 2.16 C 0.26667 km/h
2794 30-11-2017 03:00:00 2.14167 C 5.41 g/m*3 2.14 C 0.4 km/h
2795 30-11-2017 04:00:00 2.05 C 5.4 g/m*3 2.05 C 0.13333 km/h
2796 30-11-2017 05:00:00 1.19167 C 5.05 g/m*3 1.19 C 0.13333 km/h
2797 30-11-2017 06:00:00 0.59167 C 4.84 g/m*3 0.59 C 0.4 km/h
2798 30-11-2017 07:00:00 0.55 C 4.86 g/m*3 0.55 C 3.6 km/h
2799 30-11-2017 08:00:00 0.85 C 4.98 g/m*3 0.85 C 0.93333 km/h
2800 30-11-2017 09:00:00 1.025 C 5.04 g/m*3 1.02 C 0.4 km/h
Sensor: Nr:Datum:Temp:Abs-Feuchte:Windchill:Wind:
Aussen-T/F 2801 30-11-2017 10:00:00 1.78333 C 5.31 g/m*3 1.78 C 3.74167 km/h
2802 30-11-2017 11:00:00 2.74167 C 5.67 g/m*3 2.74 C 4.40833 km/h
2803 30-11-2017 12:00:00 3.76667 C 6.03 g/m*3 2.16 C 6.425 km/h
2804 30-11-2017 13:00:00 4.45833 C 6.09 g/m*3 3.14 C 5.88333 km/h
2805 30-11-2017 14:00:00 4.74167 C 6.03 g/m*3 3.52 C 5.74167 km/h
2806 30-11-2017 15:00:00 4.56667 C 5.96 g/m*3 4.57 C 2.94167 km/h
2807 30-11-2017 16:00:00 4.03333 C 5.82 g/m*3 2.55 C 6.16667 km/h
2808 30-11-2017 17:00:00 3.11667 C 5.62 g/m*3 1.8 C 5.35 km/h
2809 30-11-2017 18:00:00 2.61667 C 5.5 g/m*3 2.62 C 2.66667 km/h
2810 30-11-2017 19:00:00 2.61667 C 5.56 g/m*3 2.62 C 1.06667 km/h
2811 30-11-2017 20:00:00 2.525 C 5.53 g/m*3 2.53 C 0 km/h
2812 30-11-2017 21:00:00 2.24167 C 5.42 g/m*3 2.24 C 0.53333 km/h
2813 30-11-2017 22:00:00 2.01667 C 5.34 g/m*3 2.02 C 2.26667 km/h
2814 30-11-2017 23:00:00 1.86667 C 5.29 g/m*3 1.87 C 2.4 km/h
2815 01-12-2017 00:00:00 1.81667 C 5.27 g/m*3 1.82 C 0.13333 km/h
2816 01-12-2017 01:00:00 1.8 C 5.26 g/m*3 1.8 C 0 km/h
2817 01-12-2017 02:00:00 1.7 C 5.23 g/m*3 1.7 C 0.4 km/h
2818 01-12-2017 03:00:00 1.6 C 5.24 g/m*3 1.6 C 0 km/h
2819 01-12-2017 04:00:00 1.6 C 5.25 g/m*3 1.6 C 0 km/h
2820 01-12-2017 05:00:00 1.05 C 5.01 g/m*3 1.05 C 0 km/h
2821 01-12-2017 06:00:00 0.93333 C 5 g/m*3 0.93 C 0 km/h
2822 01-12-2017 07:00:00 0.875 C 4.98 g/m*3 0.88 C 0 km/h
2823 01-12-2017 08:00:00 1.125 C 5.08 g/m*3 1.13 C 0 km/h
2824 01-12-2017 09:00:00 0.74167 C 4.94 g/m*3 0.74 C 0 km/h
2825 01-12-2017 10:00:00 0.65 C 4.92 g/m*3 0.65 C 0 km/h
Sensor: Nr:Datum:Temp:Abs-Feuchte:Windchill:Wind:
Aussen-T/F 2826 01-12-2017 11:00:00 0.73333 C 4.94 g/m*3 0.73 C 0 km/h
2827 01-12-2017 12:00:00 1.1 C 5.07 g/m*3 1.1 C 0.26667 km/h
2828 01-12-2017 13:00:00 2.35 C 5.42 g/m*3 0.98 C 5.21667 km/h
2829 01-12-2017 14:00:00 2.95 C 5.37 g/m*3 2.95 C 4.40833 km/h
2830 01-12-2017 15:00:00 2.65 C 5.31 g/m*3 2.65 C 0.26667 km/h
2831 01-12-2017 16:00:00 1.875 C 5.15 g/m*3 1.88 C 0.8 km/h
2832 01-12-2017 17:00:00 0.94167 C 4.88 g/m*3 0.94 C 1.2 km/h
2833 01-12-2017 18:00:00 0.525 C 4.77 g/m*3 0.53 C 2.93333 km/h
2834 01-12-2017 19:00:00 -0.23333 C 4.53 g/m*3 -0.23 C 0.4 km/h
2835 01-12-2017 20:00:00 -0.13333 C 4.6 g/m*3 -0.13 C 0 km/h
2836 01-12-2017 21:00:00 0.33333 C 4.76 g/m*3 0.33 C 0 km/h
2837 01-12-2017 22:00:00 0.45 C 4.8 g/m*3 0.45 C 0 km/h
2838 01-12-2017 23:00:00 -0.30833 C 4.55 g/m*3 -0.31 C 0.13333 km/h
2839 02-12-2017 00:00:00 -0.51667 C 4.49 g/m*3 -0.52 C 0.53333 km/h
2840 02-12-2017 01:00:00 -0.04167 C 4.64 g/m*3 -0.04 C 0 km/h
2841 02-12-2017 02:00:00 0.24167 C 4.73 g/m*3 0.24 C 0 km/h
2842 02-12-2017 03:00:00 0.6 C 4.89 g/m*3 0.6 C 0.13333 km/h
2843 02-12-2017 04:00:00 0.7 C 4.88 g/m*3 0.7 C 0 km/h
2844 02-12-2017 05:00:00 0.6 C 4.85 g/m*3 0.6 C 1.06667 km/h
2845 02-12-2017 06:00:00 0.5 C 4.81 g/m*3 0.5 C 0.53333 km/h
2846 02-12-2017 07:00:00 0.475 C 4.81 g/m*3 0.48 C 0 km/h
2847 02-12-2017 08:00:00 0.45833 C 4.8 g/m*3 0.46 C 0.26667 km/h
2848 02-12-2017 09:00:00 0.65 C 4.86 g/m*3 0.65 C 0.4 km/h
2849 02-12-2017 10:00:00 0.96667 C 4.92 g/m*3 0.97 C 1.06667 km/h
2850 02-12-2017 11:00:00 1.325 C 5.01 g/m*3 1.33 C 0.53333 km/h
Sensor: Nr:Datum:Temp:Abs-Feuchte:Windchill:Wind:
Aussen-T/F 2851 02-12-2017 12:00:00 1.5 C 5 g/m*3 1.5 C 3.33333 km/h
2852 02-12-2017 13:00:00 1.74167 C 5.04 g/m*3 1.74 C 2.4 km/h
2853 02-12-2017 14:00:00 1.81667 C 5.1 g/m*3 1.82 C 0.4 km/h
2854 02-12-2017 15:00:00 1.9 C 5.12 g/m*3 1.9 C 1.6 km/h
2855 02-12-2017 16:00:00 1.76667 C 5.04 g/m*3 1.77 C 3.06667 km/h
2856 02-12-2017 17:00:00 1.66667 C 5.03 g/m*3 1.67 C 2.13333 km/h
2857 02-12-2017 18:00:00 1.46667 C 4.93 g/m*3 1.47 C 1.06667 km/h
2858 02-12-2017 19:00:00 1.31667 C 4.88 g/m*3 1.32 C 0.13333 km/h
2859 02-12-2017 20:00:00 1.25 C 4.89 g/m*3 1.25 C 0.53333 km/h
2860 02-12-2017 21:00:00 1.2 C 4.89 g/m*3 1.2 C 0 km/h
2861 02-12-2017 22:00:00 1.025 C 4.84 g/m*3 1.02 C 0 km/h
2862 02-12-2017 23:00:00 0.81667 C 4.77 g/m*3 0.82 C 0.13333 km/h
2863 03-12-2017 00:00:00 0.7 C 4.78 g/m*3 0.7 C 0 km/h
2864 03-12-2017 01:00:00 0.76667 C 4.8 g/m*3 0.77 C 0 km/h
2865 03-12-2017 02:00:00 0.65833 C 4.77 g/m*3 0.66 C 0 km/h
2866 03-12-2017 03:00:00 0.28333 C 4.63 g/m*3 0.28 C 0.13333 km/h
2867 03-12-2017 04:00:00 0.275 C 4.64 g/m*3 0.28 C 0.66667 km/h
2868 03-12-2017 05:00:00 0.325 C 4.61 g/m*3 0.33 C 2.94167 km/h
2869 03-12-2017 06:00:00 0.46667 C 4.59 g/m*3 0.47 C 2.80833 km/h
2870 03-12-2017 07:00:00 0.45 C 4.59 g/m*3 0.45 C 4.01667 km/h
2871 03-12-2017 08:00:00 0.44167 C 4.6 g/m*3 -1.79 C 6.70833 km/h
2872 03-12-2017 09:00:00 0.58333 C 4.67 g/m*3 -0.96 C 5.075 km/h
2873 03-12-2017 10:00:00 0.73333 C 4.71 g/m*3 -1.72 C 7.51667 km/h
2874 03-12-2017 11:00:00 0.78333 C 4.73 g/m*3 -2.73 C 11.43333 km/h
2875 03-12-2017 12:00:00 0.64167 C 4.76 g/m*3 -3.3 C 13.3 km/h
Sensor: Nr:Datum:Temp:Abs-Feuchte:Windchill:Wind:
Aussen-T/F 2876 03-12-2017 13:00:00 0.44167 C 4.7 g/m*3 -3.26 C 11.95833 km/h
2877 03-12-2017 14:00:00 0.5 C 4.71 g/m*3 -2.53 C 9.29167 km/h
2878 03-12-2017 15:00:00 0.575 C 4.74 g/m*3 -2.91 C 11.16667 km/h
2879 03-12-2017 16:00:00 0.53333 C 4.7 g/m*3 -3.12 C 11.83333 km/h
2880 03-12-2017 17:00:00 0.65 C 4.71 g/m*3 -2.16 C 8.6 km/h
2881 03-12-2017 18:00:00 0.78333 C 4.76 g/m*3 -2.37 C 9.96667 km/h
2882 03-12-2017 19:00:00 0.9 C 4.85 g/m*3 -2.02 C 9.15833 km/h
2883 03-12-2017 20:00:00 1.01667 C 4.88 g/m*3 -1.91 C 9.28333 km/h
2884 03-12-2017 21:00:00 1.14167 C 4.92 g/m*3 -1.16 C 7.24167 km/h
2885 03-12-2017 22:00:00 1.275 C 4.97 g/m*3 -1.22 C 7.91667 km/h
2886 03-12-2017 23:00:00 1.31667 C 5.02 g/m*3 -0.52 C 6.03333 km/h
2887 04-12-2017 00:00:00 1.48333 C 5.07 g/m*3 -0.76 C 7.23333 km/h
2888 04-12-2017 01:00:00 1.63333 C 5.15 g/m*3 -0.54 C 7.11667 km/h
2889 04-12-2017 02:00:00 1.775 C 5.2 g/m*3 -0.83 C 8.61667 km/h
2890 04-12-2017 03:00:00 1.98333 C 5.27 g/m*3 -0.22 C 7.38333 km/h
2891 04-12-2017 04:00:00 2.15833 C 5.34 g/m*3 -0.41 C 8.725 km/h
2892 04-12-2017 05:00:00 2.30833 C 5.39 g/m*3 -0.09 C 8.20833 km/h
2893 04-12-2017 06:00:00 2.44167 C 5.45 g/m*3 -0.15 C 9.00833 km/h
2894 04-12-2017 07:00:00 2.60833 C 5.56 g/m*3 -0.22 C 10.09167 km/h
2895 04-12-2017 08:00:00 2.79167 C 5.63 g/m*3 0.3 C 8.875 km/h
2896 04-12-2017 09:00:00 3.18333 C 5.78 g/m*3 0.43 C 10.23333 km/h
2897 04-12-2017 10:00:00 3.575 C 5.9 g/m*3 0.93 C 10.1 km/h
2898 04-12-2017 11:00:00 3.96667 C 6.03 g/m*3 1.28 C 10.63333 km/h
2899 04-12-2017 12:00:00 4.23333 C 6.13 g/m*3 1.49 C 11.16667 km/h
2900 04-12-2017 13:00:00 4.25 C 6.2 g/m*3 1.86 C 9.55833 km/h
Sensor: Nr:Datum:Temp:Abs-Feuchte:Windchill:Wind:
Aussen-T/F 2901 04-12-2017 14:00:00 4.425 C 6.28 g/m*3 2.07 C 9.55 km/h
2902 04-12-2017 15:00:00 4.61667 C 6.36 g/m*3 2.66 C 8.075 km/h
2903 04-12-2017 16:00:00 4.60833 C 6.36 g/m*3 3 C 6.84167 km/h
2904 04-12-2017 17:00:00 4.60833 C 6.36 g/m*3 3.13 C 6.425 km/h
2905 04-12-2017 18:00:00 4.48333 C 6.3 g/m*3 2.9 C 6.69167 km/h
2906 04-12-2017 19:00:00 4.34167 C 6.23 g/m*3 2.78 C 6.575 km/h
2907 04-12-2017 20:00:00 4.2 C 6.18 g/m*3 4.2 C 2.13333 km/h
2908 04-12-2017 21:00:00 3.28333 C 5.79 g/m*3 3.28 C 0.93333 km/h
2909 04-12-2017 22:00:00 2.75833 C 5.62 g/m*3 2.76 C 2 km/h
2910 04-12-2017 23:00:00 3.04167 C 5.77 g/m*3 3.04 C 2.53333 km/h
2911 05-12-2017 00:00:00 3.46667 C 5.95 g/m*3 3.47 C 3.46667 km/h
2912 05-12-2017 01:00:00 4.425 C 6.34 g/m*3 4.43 C 4.275 km/h
2913 05-12-2017 02:00:00 4.50833 C 6.37 g/m*3 4.51 C 0.93333 km/h
2914 05-12-2017 03:00:00 4.05 C 6.17 g/m*3 4.05 C 3.34167 km/h
2915 05-12-2017 04:00:00 3.55 C 5.96 g/m*3 3.55 C 1.46667 km/h
2916 05-12-2017 05:00:00 3.35 C 5.89 g/m*3 2.06 C 5.36667 km/h
2917 05-12-2017 06:00:00 3.63333 C 5.96 g/m*3 1.41 C 8.45833 km/h
2918 05-12-2017 07:00:00 4.09167 C 6.11 g/m*3 2.24 C 7.375 km/h
2919 05-12-2017 08:00:00 4.28333 C 6.12 g/m*3 2.51 C 7.23333 km/h
2920 05-12-2017 09:00:00 4.7 C 6.17 g/m*3 1.92 C 11.83333 km/h
2921 05-12-2017 10:00:00 4.81667 C 6.18 g/m*3 1.8 C 13.3 km/h
2922 05-12-2017 11:00:00 5.13333 C 6.27 g/m*3 2.66 C 10.76667 km/h
2923 05-12-2017 12:00:00 5.425 C 6.34 g/m*3 2.71 C 12.36667 km/h
2924 05-12-2017 13:00:00 5.64167 C 6.42 g/m*3 2.64 C 14.36667 km/h
2925 05-12-2017 14:00:00 5.69167 C 6.42 g/m*3 3.15 C 11.7 km/h
Sensor: Nr:Datum:Temp:Abs-Feuchte:Windchill:Wind:
Aussen-T/F 2926 05-12-2017 15:00:00 5.49167 C 6.42 g/m*3 3.5 C 8.88333 km/h
2927 05-12-2017 16:00:00 5.325 C 6.39 g/m*3 3.68 C 7.39167 km/h
2928 05-12-2017 17:00:00 5.28333 C 6.37 g/m*3 4.38 C 5.075 km/h
2929 05-12-2017 18:00:00 5.3 C 6.37 g/m*3 3.44 C 8.19167 km/h
2930 05-12-2017 19:00:00 5.25 C 6.34 g/m*3 4.14 C 5.625 km/h
2931 05-12-2017 20:00:00 5.21667 C 6.34 g/m*3 5.22 C 4.80833 km/h
2932 05-12-2017 21:00:00 5.13333 C 6.34 g/m*3 5.13 C 1.86667 km/h
2933 05-12-2017 22:00:00 5.1 C 6.36 g/m*3 5.1 C 3.2 km/h
2934 05-12-2017 23:00:00 5.09167 C 6.3 g/m*3 5.09 C 3.06667 km/h
2935 06-12-2017 00:00:00 5.05 C 6.27 g/m*3 5.05 C 3.6 km/h
2936 06-12-2017 01:00:00 5.025 C 6.26 g/m*3 5.03 C 3.46667 km/h
2937 06-12-2017 02:00:00 5.01667 C 6.3 g/m*3 5.02 C 2.13333 km/h
2938 06-12-2017 03:00:00 4.90833 C 6.28 g/m*3 4.91 C 0.93333 km/h
2939 06-12-2017 04:00:00 5.00833 C 6.32 g/m*3 5.01 C 1.6 km/h
2940 06-12-2017 05:00:00 5.1 C 6.36 g/m*3 5.1 C 1.86667 km/h
2941 06-12-2017 06:00:00 5.21667 C 6.4 g/m*3 5.22 C 2 km/h
2942 06-12-2017 07:00:00 5.33333 C 6.41 g/m*3 5.33 C 2.93333 km/h
2943 06-12-2017 08:00:00 5.425 C 6.43 g/m*3 5.43 C 2.14167 km/h
2944 06-12-2017 09:00:00 5.74167 C 6.47 g/m*3 4.49 C 6.28333 km/h
2945 06-12-2017 10:00:00 6.19167 C 6.58 g/m*3 5.01 C 6.28333 km/h
2946 06-12-2017 11:00:00 6.56667 C 6.68 g/m*3 4.99 C 7.91667 km/h
2947 06-12-2017 12:00:00 6.875 C 6.75 g/m*3 4.99 C 9.56667 km/h
2948 06-12-2017 13:00:00 7.1 C 6.79 g/m*3 5.4 C 8.88333 km/h
2949 06-12-2017 14:00:00 7.14167 C 6.8 g/m*3 5.6 C 8.2 km/h
2950 06-12-2017 15:00:00 7.06667 C 6.77 g/m*3 5.42 C 8.60833 km/h
Sensor: Nr:Datum:Temp:Abs-Feuchte:Windchill:Wind:
Aussen-T/F 2951 06-12-2017 16:00:00 6.83333 C 6.74 g/m*3 6.83 C 4.54167 km/h
2952 06-12-2017 17:00:00 6.51667 C 6.71 g/m*3 6.52 C 2.8 km/h
2953 06-12-2017 18:00:00 6.24167 C 6.65 g/m*3 6.24 C 2.26667 km/h
2954 06-12-2017 19:00:00 6.15833 C 6.61 g/m*3 6.16 C 1.86667 km/h
2955 06-12-2017 20:00:00 5.96667 C 6.57 g/m*3 5.97 C 1.06667 km/h
2956 06-12-2017 21:00:00 5.8 C 6.42 g/m*3 5.8 C 2.675 km/h
2957 06-12-2017 22:00:00 5.7 C 6.28 g/m*3 5.7 C 0.4 km/h
2958 06-12-2017 23:00:00 5.56667 C 6.12 g/m*3 5.57 C 0.8 km/h
2959 07-12-2017 00:00:00 5.63333 C 5.93 g/m*3 5.63 C 3.60833 km/h
2960 07-12-2017 01:00:00 5.70833 C 5.77 g/m*3 4.57 C 5.9 km/h
2961 07-12-2017 02:00:00 5.11667 C 5.72 g/m*3 5.12 C 1.6 km/h
2962 07-12-2017 03:00:00 3.15833 C 5.31 g/m*3 3.16 C 2.4 km/h
2963 07-12-2017 04:00:00 1.66667 C 5 g/m*3 1.67 C 2.53333 km/h
2964 07-12-2017 05:00:00 1.68333 C 5.11 g/m*3 1.68 C 3.89167 km/h
2965 07-12-2017 06:00:00 2.75833 C 5.24 g/m*3 -0.74 C 13.43333 km/h
2966 07-12-2017 07:00:00 2.33333 C 5 g/m*3 -0.65 C 10.5 km/h
2967 07-12-2017 08:00:00 2.36667 C 5.01 g/m*3 0.49 C 6.575 km/h
2968 07-12-2017 09:00:00 2.675 C 5.03 g/m*3 0.76 C 6.85 km/h
2969 07-12-2017 10:00:00 2.975 C 4.96 g/m*3 0.13 C 10.49167 km/h
2970 07-12-2017 11:00:00 2.99167 C 4.88 g/m*3 -0.95 C 16.36667 km/h
2971 07-12-2017 12:00:00 3.20833 C 4.95 g/m*3 -0.04 C 12.63333 km/h
2972 07-12-2017 13:00:00 4.45833 C 5.33 g/m*3 2.91 C 6.58333 km/h
2973 07-12-2017 14:00:00 5.66667 C 5.55 g/m*3 3.77 C 8.60833 km/h
2974 07-12-2017 15:00:00 5.86667 C 5.78 g/m*3 4.84 C 5.625 km/h
2975 07-12-2017 16:00:00 6.4 C 6.18 g/m*3 5.5 C 5.49167 km/h
Sensor: Nr:Datum:Temp:Abs-Feuchte:Windchill:Wind:
Aussen-T/F 2976 07-12-2017 17:00:00 6.91667 C 6.49 g/m*3 6.18 C 5.225 km/h
2977 07-12-2017 18:00:00 7.14167 C 6.76 g/m*3 6.02 C 6.56667 km/h
2978 07-12-2017 19:00:00 7.39167 C 6.93 g/m*3 6.03 C 7.65833 km/h
2979 07-12-2017 20:00:00 7.36667 C 7.15 g/m*3 4.54 C 15.975 km/h
2980 07-12-2017 21:00:00 7.025 C 7.13 g/m*3 3.49 C 21.19167 km/h
2981 07-12-2017 22:00:00 7 C 7.15 g/m*3 3.37 C 22.11667 km/h
2982 07-12-2017 23:00:00 7.20833 C 7.25 g/m*3 4.38 C 15.7 km/h
2983 08-12-2017 00:00:00 7.33333 C 7.32 g/m*3 5.07 C 12.1 km/h
2984 08-12-2017 01:00:00 6.75833 C 7.08 g/m*3 5.19 C 8.05 km/h
2985 08-12-2017 02:00:00 5.975 C 6.74 g/m*3 4.71 C 6.43333 km/h
2986 08-12-2017 03:00:00 5.59167 C 6.62 g/m*3 4.11 C 6.96667 km/h
2987 08-12-2017 04:00:00 4.73333 C 6.2 g/m*3 4.73 C 3.88333 km/h
2988 08-12-2017 05:00:00 3.6 C 5.81 g/m*3 3.6 C 2.66667 km/h
2989 08-12-2017 06:00:00 2.81667 C 5.57 g/m*3 2.82 C 4.40833 km/h
2990 08-12-2017 07:00:00 2.45833 C 5.44 g/m*3 2.46 C 2.8 km/h
2991 08-12-2017 08:00:00 2.1 C 5.31 g/m*3 2.1 C 2 km/h
2992 08-12-2017 09:00:00 2.16667 C 5.36 g/m*3 0.6 C 5.64167 km/h
2993 08-12-2017 10:00:00 3.63333 C 5.63 g/m*3 0.45 C 12.76667 km/h
2994 08-12-2017 11:00:00 4.35 C 5.61 g/m*3 1.89 C 9.95 km/h
2995 08-12-2017 12:00:00 4.69167 C 5.57 g/m*3 2.02 C 11.3 km/h
2996 08-12-2017 13:00:00 4.6 C 5.2 g/m*3 1.19 C 15.43333 km/h
2997 08-12-2017 14:00:00 4.55833 C 4.99 g/m*3 1.22 C 14.9 km/h
2998 08-12-2017 15:00:00 4.38333 C 5.1 g/m*3 0.46 C 18.65 km/h
2999 08-12-2017 16:00:00 3.74167 C 5.13 g/m*3 0.59 C 12.76667 km/h
3000 08-12-2017 17:00:00 2.89167 C 4.84 g/m*3 0.76 C 7.64167 km/h
Sensor: Nr:Datum:Temp:Abs-Feuchte:Windchill:Wind:
Aussen-T/F 3001 08-12-2017 18:00:00 2.23333 C 4.93 g/m*3 -0.29 C 8.6 km/h
3002 08-12-2017 19:00:00 1.775 C 4.91 g/m*3 -0.19 C 6.55833 km/h
3003 08-12-2017 20:00:00 0.89167 C 4.66 g/m*3 0.89 C 3.34167 km/h
3004 08-12-2017 21:00:00 0.30833 C 4.55 g/m*3 0.31 C 3.48333 km/h
3005 08-12-2017 22:00:00 1.19167 C 4.62 g/m*3 -1.91 C 10.08333 km/h
3006 08-12-2017 23:00:00 1.7 C 4.68 g/m*3 -1.31 C 10.1 km/h
3007 09-12-2017 00:00:00 1.79167 C 4.7 g/m*3 -0.96 C 9.15 km/h
3008 09-12-2017 01:00:00 1.80833 C 4.6 g/m*3 -0.63 C 8.05 km/h
3009 09-12-2017 02:00:00 2.00833 C 4.5 g/m*3 -0.87 C 9.825 km/h
3010 09-12-2017 03:00:00 1.425 C 4.26 g/m*3 -1.73 C 10.5 km/h
3011 09-12-2017 04:00:00 1.04167 C 4.17 g/m*3 -2.94 C 13.96667 km/h
3012 09-12-2017 05:00:00 0.5 C 4.09 g/m*3 -2.25 C 8.30833 km/h
3013 09-12-2017 06:00:00 0.16667 C 4.07 g/m*3 -2.52 C 7.925 km/h
3014 09-12-2017 07:00:00 0.05833 C 4.17 g/m*3 -2.77 C 8.33333 km/h
3015 09-12-2017 08:00:00 0.21667 C 4.17 g/m*3 -2.51 C 8.075 km/h
3016 09-12-2017 09:00:00 0.55 C 4.22 g/m*3 -2.85 C 10.75833 km/h
3017 09-12-2017 10:00:00 1.19167 C 4.36 g/m*3 -2.76 C 13.96667 km/h
3018 09-12-2017 11:00:00 1.65 C 4.48 g/m*3 -1.88 C 12.36667 km/h
3019 09-12-2017 12:00:00 1.34167 C 4.64 g/m*3 -2.39 C 13.03333 km/h
3020 09-12-2017 13:00:00 1.625 C 4.64 g/m*3 -2.47 C 15.3 km/h
3021 09-12-2017 14:00:00 2.025 C 4.64 g/m*3 -2.55 C 19.04167 km/h
3022 09-12-2017 15:00:00 2.01667 C 4.56 g/m*3 -2.37 C 17.7 km/h
3023 09-12-2017 16:00:00 1.78333 C 4.48 g/m*3 -1.27 C 10.35833 km/h
3024 09-12-2017 17:00:00 1.575 C 4.4 g/m*3 -2.11 C 13.03333 km/h
3025 09-12-2017 18:00:00 1.34167 C 4.28 g/m*3 -2.28 C 12.5 km/h
Sensor: Nr:Datum:Temp:Abs-Feuchte:Windchill:Wind:
Aussen-T/F 3026 09-12-2017 19:00:00 1.09167 C 4.3 g/m*3 -2.88 C 13.96667 km/h
3027 09-12-2017 20:00:00 1.05 C 4.38 g/m*3 -2.28 C 10.9 km/h
3028 09-12-2017 21:00:00 1.25 C 4.5 g/m*3 -1.12 C 7.51667 km/h
3029 09-12-2017 22:00:00 1.50833 C 4.66 g/m*3 -1.14 C 8.6 km/h
3030 09-12-2017 23:00:00 1.6 C 4.74 g/m*3 -1.74 C 11.425 km/h
3031 10-12-2017 00:00:00 1.21667 C 4.53 g/m*3 -2.43 C 12.5 km/h
3032 10-12-2017 01:00:00 1.35833 C 4.45 g/m*3 -2.63 C 14.36667 km/h
3033 10-12-2017 02:00:00 1.55 C 4.48 g/m*3 -2.44 C 14.63333 km/h
3034 10-12-2017 03:00:00 1.64167 C 4.56 g/m*3 -1.6 C 11.03333 km/h
3035 10-12-2017 04:00:00 1.75833 C 4.61 g/m*3 -2.18 C 14.63333 km/h
3036 10-12-2017 05:00:00 1.78333 C 4.61 g/m*3 -1.51 C 11.41667 km/h
3037 10-12-2017 06:00:00 1.675 C 4.62 g/m*3 -0.67 C 7.66667 km/h
3038 10-12-2017 07:00:00 1.09167 C 4.53 g/m*3 1.09 C 3.60833 km/h
3039 10-12-2017 08:00:00 0.93333 C 4.59 g/m*3 0.93 C 3.86667 km/h
3040 10-12-2017 09:00:00 1.575 C 4.66 g/m*3 1.58 C 3.20833 km/h
3041 10-12-2017 10:00:00 1.65833 C 4.6 g/m*3 1.66 C 4.26667 km/h
3042 10-12-2017 11:00:00 0.55 C 4.65 g/m*3 -1.35 C 5.89167 km/h
3043 10-12-2017 12:00:00 -0.01667 C 4.53 g/m*3 -2.69 C 7.775 km/h
3044 10-12-2017 13:00:00 -0.15 C 4.53 g/m*3 -2.37 C 6.43333 km/h
3045 10-12-2017 14:00:00 0.14167 C 4.65 g/m*3 0.14 C 2.14167 km/h
3046 10-12-2017 15:00:00 0.53333 C 4.78 g/m*3 0.53 C 0 km/h
3047 10-12-2017 16:00:00 0.65833 C 4.82 g/m*3 0.66 C 0 km/h
3048 10-12-2017 17:00:00 1.46667 C 5.16 g/m*3 -0.24 C 5.75833 km/h
3049 10-12-2017 18:00:00 5.01667 C 6.33 g/m*3 0.92 C 21.45 km/h
3050 10-12-2017 19:00:00 6.81667 C 6.46 g/m*3 2.63 C 27.49167 km/h
Sensor: Nr:Datum:Temp:Abs-Feuchte:Windchill:Wind:
Aussen-T/F 3051 10-12-2017 20:00:00 7.21667 C 6.59 g/m*3 3.78 C 20.8 km/h
3052 10-12-2017 21:00:00 6.46667 C 6.72 g/m*3 3.48 C 15.575 km/h
3053 10-12-2017 22:00:00 6.63333 C 6.78 g/m*3 2.94 C 21.71667 km/h
3054 10-12-2017 23:00:00 6.24167 C 6.58 g/m*3 3.56 C 13.16667 km/h
3055 11-12-2017 00:00:00 5.91667 C 6.51 g/m*3 4.04 C 8.71667 km/h
3056 11-12-2017 01:00:00 5 C 6.3 g/m*3 5 C 2.53333 km/h
3057 11-12-2017 02:00:00 4.94167 C 6.31 g/m*3 4.94 C 1.46667 km/h
3058 11-12-2017 03:00:00 4.85 C 6.32 g/m*3 4.85 C 1.33333 km/h
3059 11-12-2017 04:00:00 4.85 C 6.32 g/m*3 4.85 C 0.66667 km/h
3060 11-12-2017 05:00:00 4 C 6 g/m*3 4 C 0.93333 km/h
3061 11-12-2017 06:00:00 3.76667 C 5.96 g/m*3 3.77 C 0 km/h
3062 11-12-2017 07:00:00 3.96667 C 6.09 g/m*3 3.97 C 0 km/h
3063 11-12-2017 08:00:00 4.26667 C 6.21 g/m*3 4.27 C 0 km/h
3064 11-12-2017 09:00:00 4.64167 C 6.39 g/m*3 4.64 C 0.93333 km/h
3065 11-12-2017 10:00:00 4.96667 C 6.58 g/m*3 4.97 C 4.41667 km/h
3066 11-12-2017 11:00:00 6 C 7.04 g/m*3 3.87 C 9.94167 km/h
3067 11-12-2017 12:00:00 6.95 C 7.49 g/m*3 5.68 C 6.98333 km/h
3068 11-12-2017 13:00:00 7.30833 C 7.62 g/m*3 7.31 C 4.425 km/h
3069 11-12-2017 14:00:00 7.59167 C 7.76 g/m*3 7.59 C 4.675 km/h
3070 11-12-2017 15:00:00 7.375 C 7.62 g/m*3 7.38 C 2.4 km/h
3071 11-12-2017 16:00:00 7.05 C 7.48 g/m*3 7.05 C 2.66667 km/h
3072 11-12-2017 17:00:00 7.01667 C 7.48 g/m*3 7.02 C 4.81667 km/h
3073 11-12-2017 18:00:00 7.41667 C 7.42 g/m*3 6.57 C 5.76667 km/h
3074 11-12-2017 19:00:00 8.04167 C 7.35 g/m*3 7.06 C 6.55833 km/h
3075 11-12-2017 20:00:00 7.81667 C 7.19 g/m*3 6.99 C 5.9 km/h
Sensor: Nr:Datum:Temp:Abs-Feuchte:Windchill:Wind:
Aussen-T/F 3076 11-12-2017 21:00:00 7.25833 C 7.12 g/m*3 5.24 C 10.59167 km/h
3077 11-12-2017 22:00:00 6.73333 C 6.75 g/m*3 3.58 C 17.3 km/h
3078 11-12-2017 23:00:00 6.78333 C 6.65 g/m*3 4.57 C 11.15833 km/h
3079 12-12-2017 00:00:00 6.66667 C 6.48 g/m*3 3.74 C 15.41667 km/h
3080 12-12-2017 01:00:00 6.325 C 6.42 g/m*3 3.71 C 12.9 km/h
3081 12-12-2017 02:00:00 4.425 C 5.65 g/m*3 0.55 C 18.375 km/h
3082 12-12-2017 03:00:00 3.16667 C 5.09 g/m*3 -0.75 C 16.5 km/h
3083 12-12-2017 04:00:00 3.00833 C 5.09 g/m*3 -0.67 C 14.76667 km/h
3084 12-12-2017 05:00:00 3.13333 C 5.14 g/m*3 -0.21 C 13.03333 km/h
3085 12-12-2017 06:00:00 3.35 C 5.17 g/m*3 -0.36 C 15.43333 km/h
3086 12-12-2017 07:00:00 3.125 C 5.05 g/m*3 -0.34 C 13.69167 km/h
3087 12-12-2017 08:00:00 2.54167 C 4.93 g/m*3 0.12 C 8.46667 km/h
3088 12-12-2017 09:00:00 3.03333 C 5.13 g/m*3 -0.5 C 13.96667 km/h
3089 12-12-2017 10:00:00 3.75 C 5.26 g/m*3 0.2 C 15.03333 km/h
3090 12-12-2017 11:00:00 4.45 C 5.43 g/m*3 1.24 C 13.96667 km/h
3091 12-12-2017 12:00:00 4.55 C 5.58 g/m*3 1.88 C 11.15833 km/h
3092 12-12-2017 13:00:00 4.6 C 5.59 g/m*3 1.51 C 13.425 km/h
3093 12-12-2017 14:00:00 4.85833 C 5.66 g/m*3 2.36 C 10.625 km/h
3094 12-12-2017 15:00:00 4.38333 C 5.48 g/m*3 1.85 C 10.34167 km/h
3095 12-12-2017 16:00:00 4.175 C 5.23 g/m*3 1.42 C 11.15833 km/h
3096 12-12-2017 17:00:00 3.63333 C 5.11 g/m*3 1.07 C 9.80833 km/h
3097 12-12-2017 18:00:00 3.49167 C 5.13 g/m*3 0.44 C 11.94167 km/h
3098 12-12-2017 19:00:00 3.225 C 5.05 g/m*3 1.27 C 7.25 km/h
3099 12-12-2017 20:00:00 3.00833 C 5.05 g/m*3 3.01 C 4.55 km/h
3100 12-12-2017 21:00:00 2.9 C 5.06 g/m*3 2.9 C 1.46667 km/h
Sensor: Nr:Datum:Temp:Abs-Feuchte:Windchill:Wind:
Aussen-T/F 3101 12-12-2017 22:00:00 2 C 4.9 g/m*3 2 C 3.33333 km/h
3102 12-12-2017 23:00:00 1.55 C 4.87 g/m*3 1.55 C 4.4 km/h
3103 13-12-2017 00:00:00 2.36667 C 4.98 g/m*3 0.45 C 6.7 km/h
3104 13-12-2017 01:00:00 2.8 C 5.05 g/m*3 2.8 C 1.73333 km/h
3105 13-12-2017 02:00:00 2.33333 C 5.03 g/m*3 2.33 C 1.2 km/h
3106 13-12-2017 03:00:00 1.91667 C 5.01 g/m*3 0.02 C 6.43333 km/h
3107 13-12-2017 04:00:00 3.125 C 5.18 g/m*3 3.13 C 4.40833 km/h
3108 13-12-2017 05:00:00 2.71667 C 5.07 g/m*3 2.72 C 3.20833 km/h
3109 13-12-2017 06:00:00 2.56667 C 5.2 g/m*3 2.57 C 1.86667 km/h
3110 13-12-2017 07:00:00 3.29167 C 5.31 g/m*3 2.05 C 5.23333 km/h
3111 13-12-2017 08:00:00 3.925 C 5.36 g/m*3 3.93 C 4.54167 km/h
3112 13-12-2017 09:00:00 4.50833 C 5.46 g/m*3 3.24 C 5.76667 km/h
3113 13-12-2017 10:00:00 4.73333 C 5.54 g/m*3 3.4 C 6.04167 km/h
3114 13-12-2017 11:00:00 4.8 C 5.61 g/m*3 3.22 C 6.85 km/h
3115 13-12-2017 12:00:00 4.84167 C 5.94 g/m*3 3.16 C 7.23333 km/h
3116 13-12-2017 13:00:00 4.425 C 5.91 g/m*3 2.2 C 9 km/h
3117 13-12-2017 14:00:00 3.525 C 5.71 g/m*3 3.53 C 4.95833 km/h
3118 13-12-2017 15:00:00 3.225 C 5.67 g/m*3 3.23 C 4.26667 km/h
3119 13-12-2017 16:00:00 3.2 C 5.68 g/m*3 3.2 C 4.14167 km/h
3120 13-12-2017 17:00:00 3.325 C 5.77 g/m*3 3.33 C 4.825 km/h
3121 13-12-2017 18:00:00 3.925 C 6.01 g/m*3 3.93 C 2.8 km/h
3122 13-12-2017 19:00:00 4.4 C 6.2 g/m*3 4.4 C 3.33333 km/h
3123 13-12-2017 20:00:00 5.30833 C 6.5 g/m*3 3.16 C 9.4 km/h
3124 13-12-2017 21:00:00 5.46667 C 6.41 g/m*3 4 C 6.84167 km/h
3125 13-12-2017 22:00:00 5.31667 C 6.35 g/m*3 3.71 C 7.24167 km/h
Sensor: Nr:Datum:Temp:Abs-Feuchte:Windchill:Wind:
Aussen-T/F 3126 13-12-2017 23:00:00 5.54167 C 6.53 g/m*3 1.95 C 18.36667 km/h
3127 14-12-2017 00:00:00 5 C 6.4 g/m*3 3.16 C 7.91667 km/h
3128 14-12-2017 01:00:00 4.69167 C 6.32 g/m*3 3.45 C 5.76667 km/h
3129 14-12-2017 02:00:00 4.8 C 6.31 g/m*3 2.43 C 9.93333 km/h
3130 14-12-2017 03:00:00 4.75833 C 6.17 g/m*3 2.98 C 7.525 km/h
3131 14-12-2017 04:00:00 4.8 C 6.18 g/m*3 1.48 C 15.16667 km/h
3132 14-12-2017 05:00:00 4.375 C 5.66 g/m*3 0.31 C 19.70833 km/h
3133 14-12-2017 06:00:00 4.38333 C 5.33 g/m*3 -0.28 C 25.06667 km/h
3134 14-12-2017 07:00:00 4.35833 C 5.1 g/m*3 0.21 C 20.375 km/h
3135 14-12-2017 08:00:00 4.24167 C 5.22 g/m*3 1.51 C 11.14167 km/h
3136 14-12-2017 09:00:00 4.84167 C 5.63 g/m*3 1.29 C 16.75833 km/h
3137 14-12-2017 10:00:00 5.30833 C 5.91 g/m*3 1.68 C 18.23333 km/h
3138 14-12-2017 11:00:00 5.16667 C 6.06 g/m*3 1.95 C 15.025 km/h
3139 14-12-2017 12:00:00 5.60833 C 6.11 g/m*3 1.64 C 21.70833 km/h
3140 14-12-2017 13:00:00 5.14167 C 6.16 g/m*3 1.8 C 15.83333 km/h
3141 14-12-2017 14:00:00 4.61667 C 6.1 g/m*3 1.58 C 13.16667 km/h
3142 14-12-2017 15:00:00 4.36667 C 6.04 g/m*3 1.82 C 10.35 km/h
3143 14-12-2017 16:00:00 4.26667 C 6.04 g/m*3 4.27 C 3.075 km/h
3144 14-12-2017 17:00:00 4.13333 C 6.05 g/m*3 4.13 C 4.94167 km/h
3145 14-12-2017 18:00:00 4.33333 C 6.06 g/m*3 4.33 C 3.875 km/h
3146 14-12-2017 19:00:00 4.34167 C 6.04 g/m*3 4.34 C 3.48333 km/h
3147 14-12-2017 20:00:00 3.825 C 5.81 g/m*3 3.83 C 1.86667 km/h
3148 14-12-2017 21:00:00 4.225 C 6.02 g/m*3 4.22 C 0.66667 km/h
3149